GEFSMW_prec_meanprecacc_138.txt.gz
Total_Precipitation_Accumulation
0.10 0.11 0.14 0.17 0.18 0.18 0.19 0.24 0.29 0.32 0.34 0.42 0.53 0.62 0.72 0.90 1.11 1.17 1.22 1.35 1.37 1.40 1.54 1.63 1.65 1.58 1.48 1.51 1.67 1.99 1.86 1.49 1.33 1.36 1.23 1.02 0.89 0.91 0.81 0.82 0.91 0.90 0.92
0.08 0.07 0.09 0.12 0.12 0.10 0.12 0.18 0.27 0.36 0.42 0.48 0.62 0.77 1.00 1.11 1.25 1.40 1.39 1.41 1.46 1.49 1.57 1.78 1.88 1.81 1.76 1.84 1.84 2.03 2.15 1.91 1.68 1.62 1.77 1.54 1.28 0.93 0.73 0.77 0.84 0.92 1.00
0.08 0.06 0.07 0.08 0.10 0.09 0.11 0.18 0.32 0.51 0.72 0.82 1.05 1.33 1.58 1.66 1.58 1.57 1.61 1.59 1.63 1.70 1.66 1.77 1.97 1.93 1.88 1.87 2.03 2.26 2.49 2.44 2.22 1.97 2.03 1.77 1.56 1.41 0.92 0.71 0.79 0.89 1.00
0.12 0.10 0.10 0.10 0.10 0.12 0.22 0.38 0.62 0.92 1.17 1.32 1.52 1.72 1.83 1.87 1.80 1.81 1.79 1.77 1.69 1.62 1.61 1.72 1.93 2.06 2.13 2.16 2.22 2.22 2.47 2.66 2.50 2.41 2.11 1.81 1.67 1.73 1.48 1.01 0.78 0.82 0.89
0.20 0.21 0.23 0.24 0.30 0.40 0.59 0.88 1.13 1.38 1.53 1.58 1.68 1.88 2.03 2.19 2.20 2.08 1.93 1.82 1.78 1.70 1.61 1.66 1.73 1.78 1.85 1.96 2.10 2.17 2.36 2.47 2.58 2.56 2.39 2.15 1.97 1.55 1.50 1.49 1.22 0.98 0.79
0.31 0.36 0.47 0.58 0.72 0.83 1.01 1.22 1.37 1.51 1.51 1.52 1.58 1.71 1.90 2.06 2.08 2.09 2.05 1.92 1.78 1.67 1.58 1.53 1.64 1.66 1.66 1.78 1.90 1.99 2.20 2.34 2.45 2.51 2.39 2.22 2.15 1.91 1.64 1.49 1.45 1.33 1.02
0.42 0.58 0.73 0.87 0.98 1.09 1.20 1.23 1.23 1.28 1.30 1.32 1.36 1.44 1.50 1.53 1.59 1.70 1.62 1.49 1.36 1.31 1.30 1.24 1.30 1.43 1.48 1.66 1.73 1.67 1.72 1.88 2.07 2.23 2.25 2.20 2.08 2.08 1.98 1.81 1.65 1.45 1.12
0.68 0.78 0.89 0.97 1.01 1.14 1.21 1.16 1.14 1.13 1.06 1.00 1.05 1.07 1.12 1.17 1.20 1.22 1.17 1.09 1.04 1.01 0.97 0.97 0.98 1.04 1.13 1.34 1.55 1.53 1.55 1.61 1.68 1.78 2.02 2.10 2.03 2.05 1.91 1.77 1.75 1.55 1.29
0.94 1.09 1.08 0.99 0.90 0.94 1.02 1.01 0.97 0.92 0.84 0.79 0.82 0.85 0.92 0.95 0.93 0.91 0.86 0.84 0.78 0.78 0.76 0.78 0.86 0.92 0.91 1.02 1.15 1.33 1.41 1.46 1.53 1.57 1.72 1.79 1.83 1.80 1.70 1.70 1.68 1.58 1.36
1.00 1.25 1.38 1.27 1.00 0.80 0.82 0.79 0.77 0.80 0.79 0.75 0.77 0.77 0.70 0.65 0.66 0.69 0.63 0.62 0.67 0.71 0.70 0.67 0.68 0.74 0.77 0.87 0.97 1.03 1.13 1.21 1.37 1.53 1.65 1.65 1.67 1.70 1.64 1.60 1.66 1.61 1.42
1.17 1.31 1.36 1.23 1.05 0.78 0.69 0.69 0.66 0.70 0.77 0.70 0.72 0.71 0.61 0.49 0.47 0.47 0.45 0.45 0.49 0.55 0.56 0.59 0.65 0.65 0.67 0.69 0.70 0.75 0.81 0.88 0.98 1.04 1.15 1.35 1.55 1.61 1.60 1.62 1.64 1.64 1.54
0.83 0.85 0.96 0.97 0.91 0.78 0.71 0.75 0.80 0.79 0.72 0.65 0.62 0.58 0.51 0.44 0.43 0.41 0.38 0.40 0.45 0.47 0.49 0.54 0.58 0.58 0.64 0.66 0.66 0.65 0.67 0.77 0.84 0.85 0.85 0.95 1.18 1.33 1.44 1.50 1.52 1.59 1.60
0.60 0.53 0.64 0.78 0.73 0.66 0.70 0.77 0.91 0.91 0.82 0.70 0.60 0.56 0.52 0.49 0.47 0.42 0.41 0.41 0.48 0.59 0.62 0.61 0.64 0.62 0.64 0.64 0.65 0.68 0.69 0.72 0.76 0.79 0.81 0.86 0.96 1.11 1.19 1.31 1.41 1.49 1.61
0.47 0.41 0.40 0.42 0.41 0.44 0.47 0.59 0.84 1.03 1.01 0.90 0.77 0.68 0.61 0.54 0.48 0.44 0.43 0.42 0.45 0.51 0.54 0.63 0.71 0.79 0.83 0.82 0.78 0.77 0.74 0.70 0.71 0.77 0.84 0.86 0.87 0.98 1.19 1.32 1.39 1.42 1.52
0.28 0.24 0.20 0.20 0.22 0.27 0.34 0.45 0.72 0.91 0.93 0.92 0.80 0.66 0.55 0.45 0.43 0.46 0.49 0.46 0.41 0.44 0.45 0.53 0.62 0.72 0.81 0.86 0.86 0.72 0.61 0.62 0.66 0.67 0.68 0.76 0.83 0.86 1.00 1.16 1.39 1.41 1.51
0.19 0.18 0.16 0.14 0.11 0.11 0.16 0.27 0.46 0.62 0.68 0.74 0.70 0.54 0.48 0.43 0.39 0.42 0.48 0.49 0.39 0.38 0.39 0.44 0.42 0.45 0.50 0.66 0.66 0.54 0.45 0.50 0.60 0.67 0.69 0.69 0.70 0.72 0.76 0.79 1.04 1.24 1.35
0.22 0.22 0.22 0.19 0.17 0.14 0.14 0.17 0.24 0.33 0.40 0.45 0.45 0.36 0.34 0.41 0.42 0.45 0.44 0.38 0.31 0.34 0.36 0.32 0.28 0.30 0.34 0.39 0.38 0.43 0.45 0.48 0.52 0.61 0.70 0.74 0.72 0.78 0.86 0.82 0.86 0.95 1.03
0.28 0.24 0.20 0.18 0.15 0.12 0.12 0.13 0.15 0.18 0.20 0.20 0.17 0.14 0.21 0.30 0.32 0.30 0.28 0.23 0.23 0.29 0.36 0.31 0.29 0.33 0.30 0.32 0.37 0.40 0.42 0.56 0.62 0.61 0.62 0.73 0.79 0.84 0.99 0.98 1.06 0.99 0.89
0.12 0.08 0.05 0.04 0.03 0.03 0.03 0.03 0.02 0.02 0.02 0.02 0.02 0.04 0.05 0.06 0.06 0.06 0.07 0.11 0.15 0.20 0.19 0.23 0.37 0.38 0.34 0.42 0.40 0.35 0.42 0.55 0.62 0.58 0.61 0.73 0.83 0.96 1.06 1.11 1.14 1.04 0.94
0.01 0.00 0.00 0.00 0.00 0.00 0.00 0.00 0.00 0.00 0.00 0.00 0.00 0.00 0.01 0.01 0.01 0.01 0.01 0.03 0.06 0.09 0.10 0.14 0.27 0.34 0.36 0.36 0.28 0.28 0.40 0.53 0.60 0.62 0.63 0.85 0.85 0.93 0.98 1.04 1.16 1.18 1.04
0.00 0.00 0.00 0.00 0.00 0.00 0.00 0.00 0.00 0.00 0.00 0.00 0.00 0.00 0.01 0.01 0.01 0.02 0.01 0.01 0.01 0.02 0.06 0.10 0.14 0.15 0.16 0.16 0.17 0.24 0.31 0.38 0.50 0.58 0.62 0.60 0.71 0.74 0.84 0.95 1.03 1.23 1.11
0.00 0.00 0.00 0.00 0.00 0.00 0.00 0.00 0.00 0.00 0.00 0.00 0.00 0.00 0.01 0.01 0.01 0.03 0.02 0.01 0.01 0.02 0.03 0.06 0.10 0.09 0.08 0.07 0.10 0.13 0.17 0.24 0.32 0.40 0.52 0.52 0.59 0.65 0.72 0.74 0.91 1.08 1.05
0.00 0.00 0.00 0.00 0.00 0.00 0.00 0.00 0.00 0.00 0.00 0.00 0.01 0.00 0.00 0.01 0.01 0.01 0.01 0.01 0.01 0.02 0.02 0.04 0.08 0.09 0.10 0.09 0.09 0.11 0.14 0.19 0.23 0.26 0.41 0.49 0.55 0.54 0.55 0.67 0.85 0.91 0.95
0.00 0.00 0.00 0.00 0.00 0.00 0.00 0.00 0.00 0.00 0.00 0.00 0.00 0.00 0.00 0.01 0.01 0.01 0.01 0.01 0.02 0.02 0.02 0.04 0.06 0.11 0.13 0.09 0.09 0.13 0.17 0.20 0.22 0.25 0.38 0.50 0.56 0.55 0.54 0.61 0.74 0.81 0.93
0.00 0.00 0.00 0.00 0.00 0.00 0.00 0.00 0.00 0.00 0.00 0.00 0.00 0.00 0.01 0.01 0.01 0.01 0.01 0.01 0.01 0.02 0.03 0.03 0.05 0.06 0.07 0.07 0.11 0.15 0.19 0.22 0.24 0.32 0.49 0.63 0.65 0.64 0.61 0.64 0.74 0.73 0.71
0.00 0.00 0.00 0.00 0.00 0.00 0.00 0.00 0.00 0.00 0.00 0.00 0.00 0.00 0.01 0.01 0.01 0.02 0.02 0.01 0.02 0.03 0.03 0.03 0.04 0.04 0.06 0.08 0.12 0.17 0.22 0.24 0.34 0.51 0.69 0.81 0.88 0.88 0.80 0.76 0.74 0.68 0.66

GEFSMW_prec_meanprecacc_144.txt.gz
Total_Precipitation_Accumulation
0.11 0.12 0.14 0.17 0.18 0.18 0.19 0.24 0.29 0.32 0.34 0.42 0.53 0.62 0.72 0.90 1.11 1.17 1.22 1.35 1.37 1.40 1.54 1.63 1.65 1.58 1.49 1.52 1.68 2.00 1.88 1.52 1.36 1.40 1.27 1.05 0.92 0.95 0.87 0.90 0.98 0.98 0.98
0.09 0.08 0.09 0.12 0.12 0.10 0.12 0.18 0.27 0.36 0.42 0.48 0.62 0.77 1.00 1.11 1.25 1.40 1.39 1.41 1.46 1.49 1.57 1.78 1.88 1.81 1.77 1.85 1.85 2.04 2.18 1.93 1.70 1.66 1.83 1.61 1.34 0.98 0.78 0.83 0.90 0.97 1.06
0.09 0.07 0.07 0.08 0.10 0.09 0.11 0.18 0.32 0.51 0.72 0.82 1.05 1.33 1.58 1.66 1.58 1.57 1.61 1.59 1.63 1.70 1.66 1.77 1.98 1.94 1.88 1.88 2.04 2.27 2.51 2.47 2.24 1.99 2.07 1.82 1.61 1.47 0.97 0.75 0.83 0.93 1.04
0.12 0.10 0.11 0.10 0.10 0.13 0.22 0.38 0.62 0.92 1.17 1.32 1.52 1.72 1.83 1.87 1.80 1.81 1.79 1.77 1.69 1.62 1.61 1.72 1.93 2.06 2.14 2.17 2.23 2.22 2.49 2.68 2.53 2.43 2.13 1.84 1.71 1.78 1.53 1.04 0.81 0.86 0.93
0.20 0.21 0.23 0.24 0.30 0.40 0.59 0.88 1.14 1.38 1.53 1.58 1.68 1.88 2.03 2.19 2.20 2.08 1.93 1.82 1.78 1.70 1.61 1.66 1.74 1.78 1.86 1.97 2.10 2.18 2.37 2.47 2.60 2.59 2.42 2.18 2.00 1.57 1.54 1.53 1.25 1.01 0.82
0.31 0.36 0.47 0.58 0.73 0.83 1.01 1.22 1.37 1.51 1.51 1.52 1.58 1.71 1.90 2.06 2.08 2.09 2.05 1.92 1.78 1.67 1.58 1.53 1.64 1.66 1.66 1.78 1.91 2.00 2.21 2.36 2.47 2.53 2.41 2.25 2.18 1.93 1.67 1.52 1.48 1.36 1.04
0.42 0.58 0.73 0.87 0.99 1.10 1.20 1.23 1.23 1.28 1.30 1.32 1.36 1.44 1.50 1.53 1.59 1.70 1.62 1.49 1.36 1.31 1.30 1.24 1.30 1.43 1.48 1.66 1.73 1.67 1.72 1.88 2.08 2.24 2.26 2.21 2.10 2.09 2.00 1.84 1.68 1.48 1.15
0.68 0.78 0.89 0.98 1.02 1.15 1.21 1.16 1.14 1.13 1.06 1.00 1.05 1.07 1.12 1.17 1.20 1.22 1.17 1.09 1.04 1.01 0.97 0.97 0.98 1.04 1.13 1.34 1.55 1.53 1.55 1.61 1.69 1.78 2.03 2.11 2.04 2.06 1.91 1.78 1.78 1.58 1.33
0.94 1.09 1.09 1.00 0.91 0.95 1.02 1.01 0.97 0.93 0.84 0.79 0.82 0.85 0.92 0.95 0.93 0.91 0.86 0.84 0.78 0.78 0.76 0.78 0.86 0.92 0.91 1.02 1.15 1.33 1.41 1.46 1.53 1.57 1.72 1.80 1.84 1.81 1.70 1.71 1.70 1.60 1.38
1.00 1.25 1.39 1.28 1.01 0.81 0.82 0.79 0.77 0.80 0.79 0.75 0.77 0.77 0.70 0.65 0.66 0.69 0.63 0.62 0.67 0.71 0.70 0.67 0.68 0.74 0.77 0.87 0.98 1.03 1.14 1.21 1.37 1.54 1.66 1.66 1.69 1.72 1.65 1.60 1.67 1.63 1.45
1.18 1.31 1.37 1.24 1.06 0.79 0.70 0.69 0.66 0.70 0.77 0.70 0.72 0.71 0.61 0.49 0.47 0.47 0.45 0.45 0.49 0.55 0.56 0.59 0.65 0.65 0.67 0.69 0.70 0.75 0.81 0.88 0.99 1.04 1.15 1.35 1.55 1.61 1.60 1.63 1.66 1.66 1.56
0.83 0.85 0.97 0.98 0.92 0.78 0.71 0.76 0.80 0.79 0.72 0.65 0.62 0.58 0.51 0.44 0.43 0.41 0.38 0.40 0.45 0.47 0.49 0.54 0.58 0.58 0.64 0.66 0.66 0.65 0.68 0.77 0.85 0.85 0.85 0.95 1.18 1.34 1.45 1.51 1.53 1.60 1.61
0.60 0.54 0.64 0.79 0.74 0.67 0.70 0.77 0.91 0.91 0.82 0.70 0.60 0.56 0.52 0.49 0.47 0.42 0.41 0.41 0.48 0.59 0.62 0.61 0.64 0.62 0.64 0.64 0.65 0.68 0.69 0.72 0.76 0.79 0.81 0.87 0.97 1.12 1.20 1.31 1.41 1.50 1.62
0.47 0.42 0.41 0.42 0.42 0.44 0.48 0.59 0.84 1.03 1.01 0.90 0.77 0.68 0.61 0.54 0.48 0.44 0.43 0.42 0.45 0.51 0.54 0.63 0.71 0.79 0.83 0.82 0.78 0.77 0.74 0.70 0.71 0.77 0.84 0.86 0.87 0.98 1.19 1.33 1.40 1.43 1.53
0.29 0.24 0.20 0.21 0.23 0.27 0.34 0.45 0.72 0.91 0.93 0.92 0.80 0.66 0.55 0.45 0.43 0.46 0.49 0.46 0.41 0.44 0.45 0.53 0.62 0.72 0.81 0.86 0.86 0.72 0.61 0.62 0.67 0.67 0.68 0.76 0.83 0.86 1.00 1.16 1.40 1.42 1.52
0.20 0.18 0.16 0.14 0.11 0.11 0.16 0.27 0.46 0.62 0.68 0.74 0.70 0.54 0.48 0.43 0.39 0.42 0.48 0.49 0.39 0.38 0.40 0.44 0.42 0.45 0.50 0.66 0.66 0.54 0.45 0.50 0.60 0.67 0.69 0.69 0.70 0.72 0.76 0.79 1.04 1.24 1.35
0.23 0.23 0.22 0.20 0.17 0.14 0.14 0.17 0.24 0.33 0.40 0.45 0.45 0.36 0.34 0.41 0.42 0.45 0.44 0.38 0.31 0.34 0.36 0.32 0.28 0.30 0.34 0.39 0.38 0.43 0.45 0.48 0.52 0.61 0.70 0.74 0.72 0.78 0.86 0.82 0.86 0.95 1.03
0.29 0.25 0.21 0.18 0.15 0.12 0.12 0.13 0.15 0.18 0.20 0.20 0.17 0.14 0.21 0.30 0.32 0.30 0.28 0.23 0.23 0.29 0.36 0.31 0.29 0.33 0.30 0.32 0.37 0.40 0.43 0.56 0.62 0.61 0.62 0.73 0.79 0.84 0.99 0.98 1.06 0.99 0.89
0.13 0.08 0.06 0.04 0.03 0.03 0.03 0.03 0.02 0.02 0.02 0.02 0.02 0.04 0.05 0.06 0.06 0.06 0.07 0.11 0.15 0.20 0.19 0.23 0.37 0.38 0.34 0.42 0.40 0.35 0.42 0.55 0.62 0.58 0.61 0.73 0.83 0.96 1.06 1.11 1.14 1.04 0.94
0.01 0.01 0.00 0.01 0.00 0.00 0.00 0.00 0.00 0.00 0.00 0.00 0.00 0.00 0.01 0.01 0.01 0.01 0.01 0.03 0.06 0.09 0.10 0.14 0.27 0.34 0.36 0.36 0.28 0.28 0.40 0.53 0.61 0.62 0.63 0.85 0.86 0.93 0.98 1.04 1.16 1.18 1.04
0.00 0.00 0.00 0.00 0.00 0.00 0.00 0.00 0.00 0.00 0.00 0.00 0.00 0.00 0.01 0.01 0.01 0.02 0.01 0.01 0.01 0.02 0.06 0.10 0.14 0.15 0.16 0.16 0.17 0.24 0.31 0.38 0.50 0.58 0.62 0.60 0.72 0.74 0.84 0.96 1.03 1.23 1.11
0.00 0.00 0.00 0.00 0.00 0.00 0.00 0.00 0.00 0.00 0.00 0.00 0.00 0.00 0.01 0.01 0.01 0.03 0.02 0.01 0.01 0.02 0.03 0.06 0.10 0.09 0.08 0.07 0.10 0.13 0.17 0.24 0.32 0.40 0.52 0.52 0.60 0.65 0.72 0.74 0.91 1.08 1.05
0.00 0.00 0.00 0.00 0.00 0.00 0.00 0.00 0.00 0.00 0.00 0.00 0.01 0.00 0.00 0.01 0.01 0.01 0.01 0.01 0.01 0.02 0.02 0.04 0.08 0.09 0.10 0.09 0.09 0.11 0.14 0.19 0.23 0.26 0.41 0.49 0.56 0.55 0.55 0.67 0.85 0.91 0.95
0.00 0.00 0.00 0.00 0.00 0.00 0.00 0.00 0.00 0.00 0.00 0.00 0.00 0.00 0.01 0.01 0.01 0.01 0.01 0.01 0.02 0.02 0.02 0.04 0.06 0.11 0.13 0.09 0.09 0.13 0.17 0.20 0.22 0.25 0.38 0.50 0.56 0.55 0.55 0.62 0.74 0.81 0.94
0.00 0.00 0.00 0.00 0.00 0.00 0.00 0.00 0.00 0.00 0.00 0.00 0.00 0.00 0.01 0.01 0.01 0.01 0.01 0.01 0.01 0.02 0.03 0.03 0.05 0.06 0.07 0.07 0.11 0.15 0.19 0.22 0.24 0.32 0.49 0.63 0.65 0.65 0.61 0.65 0.75 0.74 0.72
0.00 0.00 0.00 0.00 0.00 0.00 0.00 0.00 0.00 0.00 0.00 0.00 0.00 0.00 0.01 0.01 0.01 0.02 0.02 0.01 0.02 0.03 0.03 0.03 0.04 0.04 0.06 0.08 0.12 0.17 0.22 0.24 0.34 0.51 0.69 0.81 0.89 0.88 0.80 0.76 0.75 0.69 0.67

GEFSMW_prec_meanprecacc_150.txt.gz
Total_Precipitation_Accumulation
0.13 0.13 0.14 0.17 0.18 0.18 0.19 0.24 0.29 0.32 0.34 0.42 0.53 0.62 0.72 0.90 1.11 1.17 1.22 1.35 1.37 1.40 1.54 1.64 1.65 1.58 1.49 1.52 1.68 2.01 1.90 1.53 1.37 1.41 1.29 1.10 1.00 1.03 0.99 1.00 1.07 1.04 1.03
0.12 0.09 0.10 0.12 0.12 0.10 0.12 0.18 0.27 0.36 0.42 0.48 0.62 0.77 1.00 1.11 1.25 1.40 1.39 1.41 1.47 1.50 1.58 1.78 1.89 1.81 1.77 1.85 1.85 2.05 2.18 1.94 1.71 1.66 1.83 1.62 1.39 1.07 0.88 0.91 0.96 1.02 1.11
0.09 0.07 0.07 0.08 0.10 0.09 0.11 0.18 0.32 0.51 0.72 0.82 1.05 1.33 1.58 1.66 1.58 1.57 1.61 1.60 1.64 1.70 1.67 1.79 1.99 1.94 1.88 1.89 2.04 2.27 2.51 2.47 2.25 2.00 2.08 1.84 1.64 1.52 1.02 0.80 0.87 0.98 1.11
0.13 0.11 0.11 0.10 0.11 0.13 0.22 0.38 0.62 0.92 1.17 1.32 1.52 1.72 1.83 1.87 1.80 1.81 1.79 1.77 1.70 1.62 1.62 1.73 1.93 2.07 2.14 2.17 2.23 2.22 2.49 2.68 2.53 2.44 2.14 1.85 1.72 1.79 1.54 1.07 0.85 0.92 0.98
0.21 0.21 0.24 0.25 0.30 0.40 0.60 0.89 1.14 1.38 1.53 1.58 1.68 1.88 2.04 2.19 2.20 2.08 1.93 1.82 1.78 1.71 1.62 1.66 1.74 1.78 1.86 1.97 2.10 2.18 2.37 2.48 2.61 2.59 2.42 2.18 2.01 1.58 1.55 1.54 1.27 1.04 0.85
0.31 0.37 0.47 0.59 0.73 0.84 1.02 1.24 1.38 1.52 1.52 1.52 1.58 1.71 1.90 2.06 2.08 2.09 2.05 1.93 1.78 1.68 1.58 1.54 1.64 1.67 1.67 1.78 1.91 2.00 2.21 2.36 2.47 2.53 2.42 2.26 2.20 1.95 1.68 1.53 1.49 1.38 1.08
0.43 0.59 0.74 0.87 0.99 1.10 1.21 1.25 1.24 1.29 1.30 1.32 1.36 1.44 1.50 1.53 1.59 1.70 1.62 1.49 1.36 1.31 1.30 1.24 1.30 1.43 1.48 1.66 1.73 1.67 1.73 1.88 2.08 2.24 2.26 2.22 2.11 2.11 2.01 1.85 1.69 1.50 1.18
0.69 0.79 0.90 0.98 1.02 1.15 1.21 1.17 1.15 1.13 1.06 1.00 1.05 1.07 1.12 1.17 1.20 1.22 1.17 1.09 1.04 1.01 0.97 0.97 0.98 1.04 1.13 1.34 1.55 1.54 1.55 1.61 1.69 1.78 2.03 2.11 2.05 2.08 1.92 1.79 1.79 1.60 1.35
0.95 1.10 1.10 1.00 0.91 0.95 1.03 1.01 0.97 0.93 0.85 0.79 0.82 0.85 0.92 0.95 0.93 0.91 0.86 0.84 0.78 0.78 0.76 0.78 0.86 0.92 0.91 1.02 1.15 1.33 1.41 1.46 1.53 1.57 1.72 1.80 1.85 1.83 1.71 1.72 1.70 1.61 1.39
1.02 1.28 1.40 1.28 1.01 0.81 0.82 0.80 0.77 0.80 0.79 0.75 0.77 0.77 0.70 0.65 0.66 0.69 0.63 0.62 0.67 0.71 0.70 0.67 0.68 0.74 0.77 0.87 0.98 1.03 1.14 1.21 1.37 1.54 1.66 1.67 1.70 1.72 1.65 1.61 1.67 1.63 1.45
1.18 1.32 1.37 1.24 1.06 0.79 0.70 0.69 0.66 0.70 0.77 0.70 0.72 0.71 0.61 0.49 0.47 0.47 0.45 0.45 0.49 0.55 0.56 0.59 0.65 0.65 0.67 0.69 0.70 0.75 0.81 0.88 0.99 1.04 1.15 1.36 1.56 1.61 1.61 1.63 1.66 1.66 1.56
0.83 0.86 0.97 0.98 0.92 0.79 0.71 0.76 0.80 0.79 0.72 0.65 0.62 0.58 0.51 0.44 0.43 0.41 0.38 0.40 0.45 0.47 0.49 0.54 0.58 0.58 0.64 0.66 0.66 0.65 0.68 0.77 0.85 0.85 0.85 0.95 1.18 1.34 1.45 1.51 1.54 1.60 1.61
0.60 0.54 0.65 0.79 0.74 0.67 0.70 0.78 0.91 0.91 0.83 0.70 0.60 0.56 0.52 0.49 0.47 0.42 0.41 0.41 0.48 0.59 0.62 0.61 0.64 0.62 0.64 0.64 0.65 0.68 0.69 0.72 0.76 0.79 0.81 0.87 0.97 1.12 1.20 1.31 1.41 1.50 1.62
0.48 0.42 0.41 0.43 0.42 0.44 0.48 0.60 0.85 1.04 1.01 0.91 0.77 0.68 0.61 0.54 0.48 0.44 0.43 0.42 0.45 0.51 0.54 0.63 0.71 0.79 0.83 0.82 0.78 0.77 0.74 0.70 0.71 0.77 0.84 0.86 0.87 0.98 1.19 1.33 1.40 1.43 1.53
0.30 0.26 0.22 0.22 0.23 0.28 0.35 0.45 0.72 0.92 0.93 0.92 0.80 0.66 0.55 0.45 0.43 0.46 0.49 0.46 0.41 0.44 0.45 0.53 0.62 0.72 0.81 0.86 0.86 0.72 0.61 0.62 0.67 0.67 0.68 0.76 0.83 0.86 1.00 1.17 1.40 1.42 1.52
0.23 0.22 0.19 0.16 0.12 0.12 0.17 0.27 0.46 0.62 0.68 0.74 0.70 0.55 0.49 0.43 0.39 0.42 0.48 0.49 0.39 0.38 0.40 0.44 0.42 0.45 0.50 0.66 0.66 0.54 0.45 0.50 0.60 0.67 0.69 0.69 0.70 0.72 0.76 0.80 1.05 1.24 1.35
0.27 0.27 0.25 0.22 0.18 0.15 0.14 0.17 0.24 0.33 0.40 0.45 0.45 0.36 0.34 0.41 0.42 0.45 0.44 0.38 0.31 0.34 0.36 0.32 0.28 0.30 0.34 0.39 0.38 0.43 0.45 0.48 0.52 0.61 0.70 0.74 0.72 0.78 0.86 0.82 0.86 0.95 1.03
0.30 0.26 0.23 0.20 0.16 0.13 0.12 0.13 0.15 0.18 0.20 0.20 0.17 0.14 0.21 0.30 0.32 0.30 0.28 0.23 0.23 0.29 0.36 0.31 0.29 0.33 0.30 0.32 0.37 0.40 0.43 0.56 0.62 0.61 0.62 0.73 0.79 0.84 0.99 0.98 1.06 0.99 0.89
0.13 0.09 0.06 0.05 0.04 0.04 0.03 0.03 0.02 0.02 0.02 0.02 0.03 0.04 0.05 0.06 0.06 0.06 0.07 0.11 0.15 0.20 0.19 0.23 0.37 0.38 0.34 0.42 0.40 0.35 0.42 0.55 0.62 0.58 0.61 0.73 0.83 0.96 1.07 1.11 1.14 1.04 0.94
0.01 0.01 0.02 0.02 0.01 0.01 0.01 0.00 0.00 0.00 0.00 0.00 0.00 0.00 0.01 0.01 0.01 0.01 0.02 0.03 0.06 0.09 0.10 0.14 0.27 0.34 0.36 0.36 0.28 0.28 0.40 0.53 0.61 0.62 0.63 0.85 0.86 0.94 0.99 1.04 1.16 1.18 1.04
0.01 0.01 0.01 0.02 0.02 0.01 0.01 0.00 0.00 0.00 0.00 0.00 0.00 0.00 0.01 0.01 0.01 0.02 0.01 0.01 0.01 0.02 0.06 0.10 0.14 0.15 0.16 0.16 0.17 0.24 0.31 0.38 0.50 0.58 0.62 0.60 0.72 0.74 0.84 0.96 1.03 1.24 1.12
0.01 0.01 0.02 0.02 0.01 0.01 0.00 0.00 0.00 0.00 0.00 0.00 0.00 0.00 0.01 0.01 0.01 0.03 0.02 0.01 0.01 0.02 0.03 0.06 0.10 0.09 0.08 0.07 0.10 0.13 0.17 0.24 0.32 0.40 0.52 0.52 0.60 0.65 0.72 0.74 0.91 1.09 1.06
0.02 0.01 0.01 0.01 0.01 0.01 0.01 0.00 0.00 0.00 0.00 0.00 0.01 0.00 0.00 0.01 0.01 0.01 0.01 0.01 0.01 0.02 0.02 0.04 0.08 0.09 0.10 0.09 0.09 0.11 0.14 0.19 0.23 0.26 0.41 0.49 0.56 0.55 0.55 0.67 0.85 0.91 0.96
0.01 0.01 0.01 0.01 0.01 0.01 0.01 0.01 0.01 0.01 0.00 0.00 0.00 0.00 0.01 0.01 0.01 0.01 0.01 0.01 0.02 0.02 0.02 0.04 0.06 0.11 0.13 0.09 0.09 0.13 0.17 0.20 0.22 0.25 0.38 0.50 0.57 0.55 0.55 0.62 0.75 0.81 0.94
0.01 0.01 0.01 0.01 0.01 0.01 0.01 0.01 0.01 0.01 0.01 0.00 0.00 0.00 0.01 0.01 0.01 0.01 0.01 0.01 0.01 0.02 0.03 0.03 0.05 0.06 0.07 0.07 0.11 0.15 0.19 0.22 0.24 0.32 0.49 0.63 0.65 0.65 0.61 0.65 0.75 0.74 0.72
0.01 0.01 0.01 0.01 0.01 0.00 0.01 0.01 0.01 0.01 0.01 0.01 0.01 0.00 0.01 0.01 0.01 0.02 0.02 0.02 0.02 0.03 0.03 0.03 0.04 0.04 0.06 0.08 0.12 0.17 0.22 0.24 0.34 0.51 0.69 0.81 0.89 0.88 0.80 0.76 0.75 0.69 0.67

GEFSMW_prec_meanprecacc_156.txt.gz
Total_Precipitation_Accumulation
0.16 0.15 0.15 0.17 0.18 0.18 0.19 0.24 0.29 0.32 0.34 0.42 0.53 0.62 0.72 0.90 1.11 1.17 1.22 1.36 1.38 1.40 1.54 1.64 1.65 1.58 1.49 1.53 1.69 2.02 1.91 1.55 1.38 1.43 1.30 1.13 1.05 1.10 1.05 1.06 1.12 1.07 1.06
0.14 0.10 0.10 0.12 0.12 0.10 0.12 0.18 0.27 0.36 0.42 0.48 0.62 0.77 1.00 1.11 1.25 1.40 1.39 1.42 1.47 1.50 1.58 1.78 1.89 1.82 1.78 1.86 1.87 2.06 2.19 1.95 1.72 1.69 1.87 1.65 1.43 1.12 0.91 0.94 1.00 1.05 1.14
0.13 0.09 0.08 0.08 0.10 0.09 0.11 0.18 0.32 0.51 0.72 0.82 1.05 1.33 1.58 1.66 1.58 1.57 1.61 1.60 1.64 1.70 1.67 1.79 1.99 1.94 1.88 1.89 2.06 2.29 2.53 2.48 2.25 2.02 2.11 1.86 1.66 1.53 1.04 0.83 0.90 1.00 1.13
0.17 0.12 0.11 0.10 0.11 0.13 0.22 0.38 0.62 0.92 1.17 1.32 1.52 1.72 1.83 1.87 1.80 1.81 1.80 1.78 1.70 1.62 1.62 1.74 1.94 2.07 2.14 2.17 2.24 2.23 2.50 2.69 2.54 2.44 2.15 1.87 1.74 1.81 1.56 1.09 0.87 0.94 1.01
0.22 0.22 0.24 0.25 0.31 0.40 0.60 0.89 1.15 1.39 1.53 1.58 1.68 1.88 2.04 2.19 2.20 2.08 1.93 1.82 1.78 1.71 1.62 1.66 1.75 1.79 1.86 1.97 2.10 2.18 2.37 2.48 2.61 2.60 2.43 2.20 2.04 1.60 1.57 1.56 1.29 1.06 0.88
0.32 0.38 0.48 0.59 0.73 0.84 1.02 1.24 1.38 1.53 1.52 1.52 1.58 1.71 1.90 2.06 2.08 2.09 2.06 1.93 1.78 1.68 1.59 1.54 1.64 1.67 1.67 1.79 1.91 2.00 2.21 2.36 2.47 2.54 2.42 2.28 2.21 1.96 1.70 1.54 1.51 1.40 1.10
0.44 0.59 0.74 0.88 1.00 1.10 1.21 1.25 1.24 1.29 1.30 1.32 1.36 1.44 1.50 1.53 1.59 1.70 1.62 1.49 1.36 1.31 1.31 1.24 1.30 1.43 1.48 1.66 1.73 1.67 1.73 1.88 2.08 2.24 2.27 2.23 2.12 2.11 2.02 1.86 1.71 1.52 1.20
0.70 0.80 0.90 0.99 1.02 1.15 1.21 1.17 1.15 1.13 1.06 1.00 1.05 1.07 1.12 1.17 1.20 1.22 1.17 1.09 1.04 1.01 0.97 0.97 0.98 1.04 1.13 1.34 1.55 1.54 1.55 1.61 1.69 1.78 2.03 2.12 2.06 2.09 1.94 1.80 1.82 1.63 1.37
0.96 1.11 1.10 1.01 0.91 0.95 1.03 1.01 0.97 0.93 0.85 0.79 0.82 0.85 0.92 0.95 0.93 0.91 0.86 0.84 0.78 0.78 0.76 0.78 0.86 0.92 0.91 1.02 1.15 1.33 1.41 1.46 1.53 1.57 1.72 1.81 1.86 1.84 1.72 1.72 1.74 1.65 1.42
1.02 1.29 1.41 1.29 1.01 0.81 0.83 0.80 0.77 0.80 0.80 0.75 0.77 0.77 0.70 0.65 0.66 0.69 0.63 0.62 0.67 0.71 0.70 0.67 0.68 0.74 0.77 0.87 0.98 1.03 1.14 1.21 1.37 1.54 1.66 1.67 1.71 1.74 1.65 1.61 1.69 1.67 1.48
1.18 1.32 1.38 1.24 1.06 0.79 0.70 0.69 0.66 0.70 0.77 0.70 0.72 0.71 0.61 0.49 0.47 0.47 0.45 0.45 0.49 0.55 0.56 0.59 0.65 0.65 0.67 0.69 0.70 0.75 0.81 0.88 0.99 1.04 1.15 1.37 1.57 1.62 1.61 1.64 1.68 1.69 1.57
0.83 0.86 0.98 0.99 0.92 0.79 0.72 0.77 0.80 0.80 0.72 0.65 0.62 0.58 0.51 0.44 0.43 0.41 0.38 0.40 0.45 0.47 0.49 0.54 0.58 0.58 0.64 0.66 0.66 0.65 0.68 0.77 0.85 0.85 0.85 0.95 1.18 1.34 1.45 1.51 1.54 1.60 1.61
0.61 0.54 0.65 0.79 0.74 0.67 0.71 0.78 0.92 0.92 0.83 0.70 0.60 0.57 0.52 0.49 0.47 0.42 0.41 0.41 0.48 0.59 0.62 0.61 0.64 0.62 0.64 0.64 0.65 0.68 0.69 0.72 0.76 0.79 0.81 0.87 0.97 1.12 1.21 1.31 1.41 1.50 1.62
0.48 0.43 0.42 0.44 0.43 0.45 0.48 0.60 0.86 1.04 1.01 0.91 0.77 0.68 0.61 0.54 0.48 0.44 0.43 0.42 0.45 0.51 0.54 0.63 0.71 0.79 0.83 0.82 0.78 0.77 0.74 0.70 0.71 0.77 0.84 0.86 0.87 0.99 1.20 1.33 1.40 1.43 1.53
0.31 0.26 0.23 0.23 0.24 0.29 0.35 0.46 0.72 0.92 0.93 0.92 0.80 0.66 0.55 0.45 0.43 0.46 0.49 0.46 0.41 0.44 0.45 0.53 0.62 0.72 0.81 0.86 0.86 0.72 0.61 0.62 0.67 0.67 0.68 0.76 0.83 0.86 1.00 1.17 1.40 1.42 1.52
0.23 0.22 0.19 0.16 0.13 0.13 0.18 0.28 0.46 0.62 0.69 0.75 0.71 0.55 0.49 0.44 0.39 0.42 0.48 0.49 0.39 0.38 0.40 0.44 0.42 0.45 0.50 0.66 0.66 0.54 0.45 0.50 0.60 0.67 0.69 0.69 0.70 0.72 0.76 0.80 1.05 1.24 1.36
0.27 0.27 0.26 0.23 0.19 0.16 0.15 0.18 0.25 0.33 0.40 0.45 0.46 0.37 0.35 0.41 0.43 0.45 0.44 0.38 0.31 0.34 0.36 0.32 0.28 0.30 0.34 0.39 0.38 0.43 0.45 0.48 0.52 0.61 0.70 0.74 0.72 0.78 0.86 0.82 0.86 0.95 1.03
0.30 0.26 0.23 0.20 0.17 0.14 0.13 0.14 0.16 0.18 0.21 0.20 0.18 0.15 0.21 0.31 0.32 0.30 0.28 0.23 0.23 0.29 0.36 0.31 0.29 0.33 0.30 0.32 0.37 0.40 0.43 0.56 0.62 0.61 0.62 0.73 0.79 0.84 0.99 0.98 1.06 0.99 0.89
0.13 0.09 0.07 0.05 0.04 0.04 0.04 0.04 0.03 0.02 0.02 0.03 0.03 0.04 0.06 0.07 0.07 0.06 0.07 0.11 0.15 0.20 0.19 0.23 0.37 0.38 0.34 0.42 0.40 0.35 0.42 0.55 0.62 0.58 0.61 0.73 0.83 0.97 1.07 1.11 1.14 1.04 0.94
0.01 0.01 0.02 0.02 0.01 0.01 0.01 0.01 0.00 0.00 0.01 0.01 0.01 0.01 0.01 0.01 0.01 0.01 0.02 0.03 0.06 0.10 0.10 0.14 0.27 0.34 0.36 0.36 0.28 0.28 0.40 0.53 0.61 0.62 0.63 0.85 0.86 0.94 0.99 1.05 1.17 1.19 1.05
0.01 0.01 0.02 0.02 0.02 0.01 0.01 0.00 0.00 0.00 0.01 0.01 0.01 0.01 0.01 0.01 0.02 0.02 0.01 0.01 0.01 0.03 0.06 0.10 0.14 0.15 0.16 0.16 0.17 0.24 0.31 0.38 0.50 0.58 0.62 0.60 0.72 0.74 0.85 0.96 1.04 1.25 1.13
0.01 0.01 0.02 0.02 0.02 0.02 0.01 0.00 0.00 0.01 0.01 0.01 0.01 0.01 0.01 0.01 0.02 0.03 0.02 0.01 0.01 0.02 0.03 0.06 0.10 0.09 0.08 0.07 0.10 0.13 0.17 0.24 0.32 0.40 0.52 0.52 0.60 0.65 0.72 0.74 0.92 1.10 1.07
0.02 0.01 0.01 0.02 0.02 0.02 0.02 0.01 0.01 0.01 0.01 0.01 0.01 0.01 0.01 0.02 0.01 0.01 0.01 0.02 0.01 0.02 0.02 0.04 0.08 0.09 0.10 0.09 0.09 0.11 0.14 0.19 0.23 0.26 0.41 0.49 0.56 0.55 0.55 0.67 0.85 0.91 0.96
0.01 0.01 0.01 0.01 0.02 0.02 0.02 0.02 0.02 0.02 0.02 0.01 0.01 0.01 0.01 0.02 0.01 0.02 0.01 0.01 0.02 0.02 0.02 0.04 0.06 0.11 0.13 0.09 0.09 0.13 0.17 0.20 0.22 0.25 0.38 0.50 0.57 0.55 0.55 0.62 0.75 0.81 0.94
0.01 0.01 0.01 0.01 0.01 0.02 0.02 0.02 0.02 0.02 0.02 0.01 0.02 0.02 0.02 0.02 0.02 0.02 0.01 0.01 0.02 0.02 0.03 0.03 0.05 0.06 0.07 0.07 0.11 0.15 0.19 0.22 0.24 0.32 0.49 0.63 0.65 0.65 0.61 0.65 0.75 0.74 0.72
0.01 0.01 0.01 0.01 0.02 0.01 0.02 0.02 0.01 0.02 0.02 0.02 0.01 0.01 0.02 0.02 0.02 0.02 0.02 0.02 0.02 0.03 0.03 0.03 0.04 0.04 0.06 0.08 0.12 0.17 0.22 0.24 0.34 0.51 0.69 0.81 0.89 0.88 0.80 0.76 0.75 0.69 0.67

GEFSMW_prec_meanprecacc_162.txt.gz
Total_Precipitation_Accumulation
0.22 0.18 0.16 0.17 0.19 0.18 0.19 0.24 0.29 0.32 0.34 0.42 0.53 0.62 0.72 0.90 1.11 1.17 1.22 1.36 1.38 1.40 1.54 1.64 1.66 1.59 1.50 1.54 1.71 2.04 1.94 1.58 1.41 1.45 1.33 1.16 1.09 1.13 1.07 1.09 1.16 1.11 1.10
0.18 0.14 0.12 0.12 0.12 0.10 0.12 0.18 0.27 0.36 0.42 0.48 0.62 0.77 1.00 1.11 1.25 1.40 1.39 1.42 1.47 1.50 1.58 1.79 1.89 1.82 1.78 1.87 1.88 2.08 2.22 1.97 1.75 1.73 1.91 1.69 1.48 1.15 0.93 0.96 1.02 1.07 1.17
0.16 0.12 0.09 0.09 0.10 0.09 0.11 0.18 0.32 0.51 0.72 0.82 1.05 1.33 1.58 1.66 1.58 1.57 1.61 1.60 1.64 1.70 1.67 1.79 1.99 1.95 1.89 1.90 2.07 2.31 2.56 2.50 2.27 2.06 2.16 1.91 1.70 1.56 1.07 0.85 0.92 1.03 1.15
0.22 0.16 0.14 0.11 0.11 0.13 0.23 0.38 0.62 0.92 1.17 1.32 1.52 1.72 1.83 1.87 1.80 1.81 1.80 1.78 1.70 1.63 1.62 1.74 1.94 2.08 2.15 2.18 2.24 2.24 2.51 2.71 2.56 2.46 2.17 1.90 1.77 1.84 1.60 1.12 0.89 0.96 1.03
0.26 0.26 0.27 0.26 0.31 0.41 0.60 0.89 1.15 1.39 1.53 1.58 1.68 1.88 2.04 2.19 2.20 2.08 1.94 1.82 1.78 1.71 1.62 1.67 1.75 1.79 1.86 1.97 2.11 2.19 2.38 2.49 2.63 2.61 2.43 2.21 2.06 1.63 1.59 1.58 1.31 1.08 0.91
0.33 0.41 0.52 0.62 0.74 0.84 1.02 1.24 1.38 1.53 1.52 1.52 1.58 1.71 1.90 2.06 2.08 2.10 2.06 1.93 1.78 1.68 1.59 1.54 1.65 1.67 1.67 1.79 1.91 2.01 2.22 2.37 2.49 2.55 2.43 2.29 2.23 1.98 1.73 1.57 1.52 1.42 1.12
0.44 0.61 0.77 0.90 1.00 1.10 1.21 1.25 1.24 1.29 1.30 1.32 1.36 1.44 1.50 1.54 1.60 1.70 1.62 1.49 1.36 1.31 1.31 1.24 1.30 1.43 1.48 1.66 1.73 1.67 1.73 1.89 2.08 2.25 2.28 2.24 2.13 2.13 2.05 1.89 1.73 1.53 1.21
0.70 0.81 0.91 1.01 1.04 1.16 1.22 1.17 1.15 1.13 1.06 1.00 1.06 1.07 1.12 1.17 1.20 1.22 1.17 1.09 1.04 1.01 0.97 0.97 0.98 1.04 1.13 1.34 1.56 1.54 1.55 1.61 1.69 1.78 2.04 2.13 2.08 2.12 1.97 1.82 1.84 1.65 1.39
0.96 1.11 1.10 1.01 0.92 0.96 1.04 1.02 0.98 0.93 0.85 0.79 0.82 0.85 0.92 0.95 0.93 0.91 0.86 0.84 0.78 0.78 0.76 0.78 0.86 0.92 0.91 1.02 1.15 1.33 1.41 1.47 1.53 1.57 1.73 1.81 1.87 1.86 1.74 1.74 1.78 1.68 1.43
1.02 1.29 1.41 1.29 1.02 0.82 0.84 0.81 0.77 0.80 0.80 0.75 0.77 0.77 0.70 0.65 0.66 0.69 0.63 0.62 0.67 0.71 0.70 0.67 0.68 0.74 0.77 0.87 0.98 1.03 1.14 1.21 1.37 1.54 1.66 1.67 1.71 1.74 1.66 1.63 1.74 1.72 1.51
1.18 1.33 1.38 1.25 1.07 0.79 0.71 0.70 0.67 0.70 0.77 0.70 0.72 0.71 0.61 0.49 0.47 0.47 0.45 0.45 0.49 0.55 0.56 0.59 0.65 0.65 0.67 0.69 0.70 0.75 0.81 0.88 0.99 1.04 1.16 1.37 1.57 1.62 1.62 1.66 1.71 1.74 1.60
0.83 0.86 0.98 1.00 0.93 0.79 0.72 0.77 0.81 0.81 0.72 0.66 0.62 0.58 0.51 0.44 0.43 0.41 0.38 0.40 0.45 0.47 0.49 0.54 0.58 0.58 0.64 0.66 0.66 0.65 0.68 0.77 0.85 0.85 0.86 0.96 1.18 1.34 1.46 1.52 1.56 1.62 1.62
0.61 0.54 0.66 0.80 0.75 0.68 0.71 0.79 0.93 0.93 0.84 0.71 0.60 0.57 0.52 0.49 0.47 0.42 0.41 0.41 0.48 0.59 0.62 0.61 0.64 0.62 0.64 0.64 0.65 0.68 0.69 0.72 0.76 0.79 0.81 0.87 0.97 1.13 1.21 1.32 1.42 1.50 1.62
0.48 0.43 0.42 0.44 0.43 0.45 0.49 0.61 0.86 1.05 1.02 0.91 0.78 0.68 0.61 0.54 0.48 0.44 0.43 0.42 0.45 0.51 0.54 0.63 0.71 0.79 0.83 0.82 0.78 0.77 0.74 0.70 0.71 0.77 0.84 0.86 0.87 0.99 1.20 1.33 1.40 1.43 1.53
0.31 0.26 0.23 0.23 0.24 0.29 0.36 0.46 0.72 0.93 0.94 0.93 0.81 0.67 0.55 0.45 0.43 0.46 0.49 0.46 0.41 0.44 0.45 0.53 0.62 0.72 0.81 0.86 0.86 0.72 0.61 0.62 0.67 0.67 0.68 0.76 0.83 0.86 1.01 1.17 1.40 1.42 1.52
0.24 0.23 0.20 0.17 0.13 0.13 0.19 0.28 0.46 0.62 0.69 0.75 0.71 0.56 0.49 0.44 0.39 0.42 0.48 0.49 0.39 0.38 0.40 0.44 0.42 0.45 0.50 0.66 0.66 0.54 0.45 0.50 0.60 0.67 0.69 0.69 0.70 0.72 0.77 0.81 1.06 1.25 1.36
0.28 0.28 0.27 0.23 0.19 0.16 0.16 0.18 0.25 0.33 0.40 0.46 0.47 0.37 0.35 0.42 0.43 0.45 0.44 0.38 0.31 0.34 0.36 0.32 0.28 0.30 0.34 0.39 0.38 0.43 0.45 0.48 0.52 0.61 0.70 0.74 0.72 0.78 0.87 0.83 0.86 0.96 1.03
0.30 0.27 0.24 0.21 0.18 0.15 0.14 0.15 0.16 0.19 0.21 0.21 0.18 0.15 0.22 0.31 0.32 0.31 0.28 0.23 0.23 0.29 0.36 0.31 0.29 0.33 0.30 0.32 0.37 0.40 0.43 0.56 0.62 0.61 0.62 0.73 0.79 0.84 1.00 0.99 1.06 0.99 0.89
0.13 0.09 0.07 0.06 0.05 0.06 0.05 0.05 0.03 0.03 0.03 0.03 0.03 0.05 0.07 0.08 0.07 0.07 0.08 0.11 0.16 0.20 0.19 0.23 0.37 0.38 0.34 0.42 0.40 0.35 0.42 0.55 0.62 0.58 0.61 0.73 0.83 0.97 1.07 1.12 1.15 1.05 0.95
0.02 0.02 0.03 0.03 0.02 0.02 0.03 0.02 0.02 0.02 0.02 0.02 0.01 0.01 0.02 0.02 0.02 0.02 0.02 0.03 0.06 0.10 0.10 0.14 0.27 0.34 0.36 0.36 0.28 0.28 0.40 0.53 0.61 0.62 0.63 0.85 0.86 0.94 0.99 1.05 1.18 1.19 1.05
0.01 0.02 0.03 0.03 0.03 0.02 0.02 0.01 0.01 0.01 0.02 0.01 0.01 0.01 0.01 0.02 0.03 0.03 0.02 0.01 0.01 0.03 0.06 0.10 0.14 0.15 0.16 0.16 0.17 0.24 0.31 0.38 0.50 0.58 0.62 0.60 0.72 0.74 0.85 0.97 1.05 1.26 1.14
0.01 0.02 0.02 0.02 0.02 0.02 0.02 0.01 0.01 0.01 0.01 0.01 0.01 0.01 0.01 0.02 0.02 0.03 0.02 0.01 0.01 0.02 0.03 0.06 0.10 0.09 0.08 0.07 0.10 0.13 0.17 0.24 0.32 0.40 0.52 0.52 0.60 0.65 0.73 0.75 0.92 1.10 1.07
0.02 0.02 0.02 0.02 0.02 0.02 0.02 0.01 0.01 0.02 0.02 0.01 0.01 0.01 0.01 0.02 0.02 0.02 0.02 0.02 0.02 0.02 0.03 0.04 0.08 0.09 0.10 0.09 0.09 0.11 0.14 0.19 0.23 0.26 0.41 0.49 0.56 0.55 0.55 0.67 0.85 0.91 0.96
0.01 0.01 0.01 0.01 0.02 0.02 0.02 0.02 0.02 0.03 0.02 0.02 0.01 0.01 0.02 0.02 0.02 0.02 0.01 0.02 0.02 0.02 0.03 0.04 0.07 0.11 0.13 0.09 0.09 0.13 0.17 0.20 0.22 0.25 0.38 0.50 0.57 0.55 0.55 0.62 0.75 0.81 0.94
0.01 0.01 0.01 0.01 0.01 0.02 0.02 0.02 0.02 0.02 0.02 0.03 0.02 0.02 0.02 0.03 0.03 0.02 0.02 0.02 0.02 0.03 0.03 0.04 0.06 0.06 0.07 0.07 0.11 0.15 0.19 0.22 0.24 0.32 0.49 0.63 0.65 0.65 0.61 0.65 0.75 0.74 0.72
0.01 0.01 0.01 0.02 0.02 0.01 0.02 0.02 0.02 0.02 0.02 0.03 0.02 0.02 0.02 0.03 0.03 0.03 0.03 0.03 0.03 0.04 0.03 0.04 0.05 0.05 0.06 0.08 0.12 0.17 0.22 0.24 0.34 0.51 0.69 0.81 0.89 0.88 0.80 0.76 0.75 0.69 0.67

GEFSMW_prec_meanprecacc_168.txt.gz
Total_Precipitation_Accumulation
0.24 0.22 0.19 0.18 0.19 0.18 0.19 0.24 0.29 0.32 0.34 0.42 0.53 0.62 0.72 0.90 1.11 1.17 1.22 1.36 1.38 1.40 1.55 1.65 1.68 1.61 1.52 1.57 1.75 2.09 1.98 1.62 1.45 1.47 1.35 1.19 1.12 1.15 1.10 1.12 1.20 1.15 1.13
0.19 0.15 0.14 0.14 0.13 0.11 0.12 0.18 0.27 0.36 0.42 0.48 0.62 0.77 1.00 1.11 1.26 1.41 1.39 1.42 1.47 1.50 1.58 1.79 1.90 1.84 1.81 1.91 1.93 2.14 2.28 2.02 1.81 1.78 1.95 1.74 1.52 1.19 0.96 1.00 1.06 1.10 1.19
0.17 0.12 0.11 0.11 0.11 0.09 0.11 0.18 0.32 0.51 0.72 0.82 1.05 1.33 1.58 1.66 1.59 1.58 1.62 1.61 1.64 1.70 1.68 1.80 2.00 1.96 1.91 1.95 2.13 2.38 2.64 2.57 2.33 2.11 2.22 1.97 1.75 1.61 1.12 0.89 0.95 1.05 1.18
0.23 0.17 0.15 0.13 0.12 0.13 0.23 0.38 0.62 0.92 1.17 1.32 1.52 1.72 1.83 1.87 1.80 1.82 1.80 1.78 1.70 1.63 1.63 1.75 1.95 2.09 2.16 2.21 2.27 2.28 2.58 2.78 2.62 2.50 2.21 1.93 1.80 1.88 1.63 1.16 0.93 0.99 1.06
0.27 0.27 0.28 0.27 0.32 0.42 0.61 0.89 1.15 1.39 1.53 1.58 1.68 1.88 2.04 2.19 2.20 2.09 1.94 1.82 1.79 1.72 1.63 1.68 1.76 1.80 1.87 1.99 2.12 2.20 2.40 2.53 2.67 2.65 2.48 2.24 2.08 1.65 1.62 1.61 1.34 1.10 0.92
0.34 0.42 0.53 0.63 0.76 0.86 1.03 1.24 1.39 1.53 1.52 1.52 1.58 1.71 1.90 2.06 2.08 2.10 2.07 1.93 1.79 1.69 1.59 1.55 1.65 1.68 1.68 1.79 1.91 2.01 2.23 2.39 2.52 2.59 2.47 2.33 2.26 2.01 1.76 1.58 1.54 1.43 1.14
0.45 0.62 0.78 0.92 1.02 1.13 1.23 1.26 1.25 1.29 1.30 1.32 1.36 1.44 1.50 1.54 1.60 1.70 1.63 1.50 1.37 1.31 1.31 1.24 1.31 1.44 1.49 1.66 1.74 1.68 1.73 1.89 2.10 2.29 2.31 2.28 2.18 2.15 2.07 1.91 1.75 1.55 1.23
0.71 0.82 0.92 1.01 1.05 1.18 1.23 1.18 1.15 1.13 1.06 1.00 1.06 1.07 1.12 1.17 1.20 1.22 1.18 1.09 1.04 1.01 0.97 0.97 0.98 1.05 1.13 1.34 1.56 1.54 1.55 1.61 1.70 1.80 2.06 2.15 2.10 2.14 1.97 1.84 1.86 1.67 1.41
0.97 1.13 1.12 1.02 0.93 0.97 1.05 1.03 0.98 0.93 0.85 0.79 0.82 0.85 0.92 0.95 0.93 0.91 0.86 0.84 0.78 0.79 0.76 0.78 0.86 0.92 0.92 1.02 1.15 1.33 1.41 1.47 1.55 1.58 1.74 1.82 1.89 1.88 1.75 1.76 1.82 1.69 1.44
1.03 1.30 1.43 1.30 1.02 0.83 0.85 0.82 0.78 0.81 0.80 0.76 0.77 0.77 0.70 0.65 0.66 0.69 0.63 0.62 0.67 0.71 0.70 0.67 0.68 0.74 0.77 0.87 0.98 1.04 1.14 1.21 1.37 1.54 1.67 1.69 1.72 1.75 1.68 1.66 1.78 1.75 1.53
1.19 1.34 1.39 1.25 1.07 0.79 0.72 0.71 0.67 0.71 0.77 0.71 0.72 0.72 0.61 0.49 0.47 0.47 0.45 0.45 0.49 0.55 0.56 0.59 0.65 0.65 0.67 0.69 0.70 0.75 0.81 0.88 0.99 1.04 1.17 1.38 1.57 1.62 1.63 1.68 1.74 1.77 1.63
0.84 0.87 0.98 1.00 0.93 0.79 0.72 0.78 0.82 0.81 0.73 0.66 0.62 0.58 0.51 0.44 0.43 0.41 0.38 0.40 0.45 0.47 0.49 0.54 0.58 0.58 0.64 0.66 0.66 0.66 0.68 0.77 0.85 0.85 0.86 0.97 1.18 1.34 1.47 1.56 1.59 1.65 1.63
0.62 0.55 0.66 0.80 0.75 0.68 0.71 0.79 0.93 0.93 0.84 0.72 0.61 0.57 0.53 0.49 0.47 0.42 0.41 0.41 0.48 0.59 0.62 0.61 0.64 0.62 0.64 0.64 0.65 0.68 0.69 0.72 0.76 0.79 0.81 0.87 0.97 1.13 1.22 1.33 1.44 1.52 1.63
0.49 0.43 0.42 0.44 0.43 0.45 0.49 0.61 0.87 1.05 1.02 0.92 0.78 0.69 0.61 0.54 0.48 0.44 0.43 0.42 0.45 0.51 0.54 0.63 0.71 0.79 0.83 0.82 0.78 0.77 0.75 0.70 0.72 0.78 0.85 0.87 0.87 0.99 1.21 1.34 1.41 1.43 1.53
0.31 0.26 0.23 0.23 0.24 0.29 0.36 0.46 0.73 0.93 0.94 0.94 0.81 0.67 0.56 0.45 0.43 0.46 0.49 0.46 0.41 0.44 0.45 0.53 0.62 0.72 0.81 0.86 0.86 0.72 0.61 0.62 0.67 0.68 0.69 0.76 0.84 0.86 1.02 1.19 1.41 1.42 1.52
0.24 0.23 0.20 0.17 0.14 0.14 0.19 0.28 0.47 0.63 0.69 0.76 0.72 0.56 0.50 0.44 0.40 0.42 0.48 0.49 0.39 0.38 0.40 0.44 0.42 0.45 0.50 0.66 0.66 0.54 0.45 0.50 0.60 0.67 0.69 0.69 0.70 0.73 0.77 0.82 1.06 1.25 1.36
0.28 0.29 0.27 0.24 0.21 0.17 0.16 0.18 0.25 0.34 0.41 0.46 0.47 0.37 0.35 0.42 0.43 0.45 0.44 0.38 0.31 0.34 0.36 0.32 0.28 0.30 0.34 0.39 0.38 0.43 0.45 0.48 0.52 0.61 0.70 0.74 0.72 0.78 0.87 0.83 0.87 0.96 1.03
0.31 0.27 0.24 0.22 0.19 0.16 0.15 0.15 0.17 0.20 0.22 0.22 0.18 0.15 0.22 0.32 0.33 0.31 0.28 0.24 0.23 0.29 0.36 0.31 0.29 0.33 0.30 0.32 0.37 0.40 0.43 0.56 0.62 0.61 0.62 0.73 0.79 0.84 1.00 0.99 1.06 0.99 0.89
0.13 0.09 0.08 0.07 0.06 0.06 0.06 0.05 0.04 0.04 0.04 0.04 0.04 0.05 0.07 0.08 0.07 0.07 0.08 0.12 0.16 0.20 0.19 0.23 0.37 0.38 0.34 0.42 0.40 0.35 0.42 0.55 0.62 0.58 0.61 0.73 0.83 0.97 1.08 1.13 1.16 1.05 0.95
0.02 0.03 0.04 0.04 0.03 0.03 0.04 0.03 0.02 0.03 0.02 0.02 0.02 0.02 0.03 0.03 0.02 0.03 0.02 0.04 0.07 0.10 0.11 0.14 0.27 0.34 0.36 0.36 0.28 0.28 0.40 0.53 0.61 0.62 0.63 0.85 0.86 0.94 1.00 1.06 1.18 1.20 1.06
0.01 0.03 0.03 0.04 0.03 0.03 0.02 0.02 0.01 0.02 0.03 0.03 0.02 0.01 0.02 0.02 0.03 0.04 0.03 0.02 0.02 0.03 0.06 0.10 0.14 0.15 0.16 0.16 0.17 0.24 0.31 0.38 0.50 0.58 0.62 0.60 0.72 0.75 0.85 0.97 1.05 1.26 1.14
0.02 0.03 0.03 0.03 0.04 0.04 0.02 0.02 0.01 0.02 0.02 0.02 0.02 0.02 0.02 0.02 0.02 0.05 0.04 0.03 0.02 0.02 0.03 0.06 0.10 0.09 0.08 0.07 0.10 0.13 0.17 0.24 0.32 0.40 0.52 0.52 0.60 0.65 0.73 0.75 0.92 1.10 1.08
0.02 0.02 0.02 0.03 0.03 0.04 0.04 0.03 0.02 0.03 0.04 0.04 0.03 0.02 0.02 0.02 0.02 0.03 0.03 0.03 0.03 0.02 0.03 0.05 0.08 0.09 0.10 0.09 0.09 0.11 0.14 0.19 0.23 0.26 0.41 0.49 0.56 0.55 0.55 0.67 0.85 0.91 0.96
0.01 0.01 0.01 0.02 0.02 0.03 0.04 0.04 0.04 0.06 0.05 0.04 0.04 0.04 0.04 0.03 0.03 0.03 0.03 0.03 0.02 0.02 0.03 0.04 0.07 0.11 0.13 0.09 0.09 0.13 0.17 0.20 0.22 0.25 0.38 0.50 0.57 0.55 0.55 0.62 0.75 0.81 0.94
0.01 0.01 0.01 0.01 0.01 0.02 0.03 0.04 0.04 0.05 0.06 0.05 0.05 0.04 0.05 0.05 0.05 0.04 0.04 0.03 0.03 0.03 0.03 0.04 0.06 0.06 0.07 0.08 0.12 0.15 0.20 0.23 0.24 0.33 0.50 0.63 0.65 0.65 0.61 0.65 0.75 0.74 0.72
0.01 0.01 0.01 0.02 0.02 0.02 0.02 0.03 0.03 0.04 0.05 0.05 0.05 0.04 0.04 0.05 0.05 0.05 0.05 0.04 0.04 0.04 0.04 0.04 0.05 0.05 0.07 0.09 0.14 0.18 0.23 0.25 0.35 0.52 0.69 0.81 0.89 0.88 0.80 0.76 0.75 0.69 0.67

GEFSMW_prec_meanprecacc_174.txt.gz
Total_Precipitation_Accumulation
0.28 0.25 0.22 0.20 0.19 0.18 0.19 0.24 0.29 0.32 0.34 0.42 0.53 0.62 0.72 0.90 1.11 1.17 1.22 1.36 1.39 1.41 1.55 1.66 1.69 1.62 1.53 1.58 1.75 2.10 1.98 1.62 1.46 1.48 1.36 1.20 1.14 1.17 1.13 1.15 1.24 1.18 1.14
0.22 0.18 0.16 0.15 0.14 0.11 0.12 0.18 0.27 0.36 0.42 0.48 0.62 0.77 1.00 1.11 1.26 1.41 1.39 1.42 1.47 1.51 1.59 1.80 1.91 1.84 1.81 1.92 1.94 2.16 2.29 2.03 1.81 1.79 1.96 1.75 1.54 1.21 0.98 1.03 1.09 1.12 1.20
0.18 0.13 0.11 0.13 0.12 0.10 0.11 0.18 0.32 0.51 0.72 0.82 1.05 1.33 1.58 1.66 1.59 1.58 1.62 1.61 1.64 1.70 1.68 1.80 2.01 1.97 1.92 1.96 2.14 2.41 2.68 2.58 2.33 2.12 2.23 1.98 1.75 1.63 1.14 0.92 0.98 1.07 1.19
0.23 0.17 0.16 0.16 0.14 0.15 0.23 0.38 0.62 0.92 1.17 1.32 1.52 1.72 1.84 1.88 1.81 1.82 1.80 1.78 1.70 1.64 1.63 1.75 1.96 2.10 2.17 2.22 2.28 2.29 2.60 2.80 2.63 2.52 2.22 1.94 1.81 1.90 1.65 1.18 0.95 1.01 1.07
0.27 0.27 0.29 0.29 0.34 0.43 0.62 0.89 1.15 1.39 1.53 1.59 1.68 1.88 2.04 2.19 2.21 2.09 1.94 1.83 1.79 1.72 1.63 1.68 1.76 1.80 1.88 1.99 2.12 2.21 2.41 2.55 2.69 2.67 2.48 2.24 2.09 1.66 1.63 1.62 1.37 1.13 0.94
0.35 0.43 0.54 0.65 0.77 0.87 1.04 1.24 1.39 1.53 1.52 1.52 1.58 1.71 1.90 2.06 2.09 2.10 2.07 1.94 1.80 1.70 1.61 1.55 1.65 1.68 1.68 1.81 1.92 2.02 2.24 2.40 2.52 2.59 2.48 2.34 2.27 2.02 1.76 1.59 1.56 1.45 1.15
0.46 0.65 0.80 0.93 1.04 1.15 1.23 1.26 1.25 1.29 1.31 1.32 1.36 1.44 1.50 1.54 1.60 1.71 1.63 1.50 1.37 1.32 1.32 1.24 1.31 1.44 1.50 1.67 1.74 1.69 1.74 1.90 2.10 2.29 2.31 2.28 2.19 2.16 2.07 1.91 1.75 1.55 1.23
0.72 0.84 0.93 1.03 1.07 1.20 1.24 1.19 1.16 1.14 1.06 1.01 1.06 1.07 1.12 1.17 1.20 1.22 1.18 1.10 1.05 1.01 0.97 0.97 0.99 1.05 1.13 1.35 1.56 1.54 1.55 1.62 1.71 1.81 2.06 2.15 2.11 2.14 1.97 1.84 1.87 1.67 1.41
0.99 1.15 1.14 1.03 0.95 0.99 1.06 1.04 0.99 0.93 0.85 0.79 0.82 0.85 0.92 0.95 0.93 0.91 0.86 0.84 0.78 0.79 0.76 0.78 0.87 0.92 0.92 1.02 1.15 1.34 1.41 1.48 1.55 1.58 1.74 1.83 1.89 1.89 1.75 1.77 1.82 1.70 1.45
1.05 1.32 1.45 1.32 1.03 0.84 0.87 0.83 0.80 0.81 0.80 0.76 0.77 0.77 0.70 0.65 0.66 0.69 0.63 0.62 0.67 0.71 0.70 0.67 0.68 0.74 0.77 0.87 0.98 1.04 1.14 1.22 1.37 1.54 1.67 1.69 1.73 1.76 1.68 1.66 1.79 1.77 1.54
1.21 1.37 1.41 1.27 1.08 0.80 0.73 0.72 0.69 0.72 0.78 0.71 0.72 0.72 0.62 0.49 0.47 0.47 0.45 0.45 0.49 0.55 0.56 0.59 0.65 0.65 0.67 0.69 0.70 0.75 0.81 0.88 0.99 1.05 1.18 1.38 1.57 1.63 1.63 1.68 1.75 1.79 1.64
0.87 0.90 1.00 1.01 0.94 0.80 0.73 0.79 0.83 0.82 0.73 0.67 0.63 0.59 0.51 0.44 0.43 0.41 0.38 0.40 0.45 0.47 0.49 0.54 0.58 0.58 0.64 0.66 0.66 0.66 0.68 0.77 0.85 0.86 0.87 0.97 1.18 1.35 1.48 1.57 1.60 1.66 1.65
0.64 0.58 0.68 0.80 0.75 0.68 0.72 0.80 0.94 0.94 0.85 0.72 0.62 0.57 0.53 0.49 0.47 0.42 0.41 0.41 0.48 0.59 0.62 0.61 0.64 0.62 0.64 0.64 0.65 0.68 0.70 0.72 0.77 0.80 0.82 0.88 0.97 1.13 1.22 1.33 1.44 1.52 1.64
0.50 0.45 0.43 0.45 0.44 0.46 0.49 0.61 0.87 1.06 1.03 0.93 0.79 0.69 0.61 0.54 0.48 0.44 0.43 0.42 0.45 0.51 0.54 0.63 0.71 0.79 0.83 0.82 0.78 0.77 0.75 0.70 0.72 0.79 0.86 0.88 0.88 0.99 1.21 1.34 1.41 1.44 1.54
0.33 0.27 0.24 0.23 0.25 0.29 0.36 0.47 0.74 0.94 0.95 0.94 0.82 0.68 0.56 0.46 0.43 0.47 0.49 0.46 0.41 0.44 0.45 0.53 0.62 0.72 0.81 0.86 0.86 0.72 0.61 0.62 0.67 0.68 0.69 0.77 0.84 0.87 1.02 1.19 1.41 1.43 1.53
0.26 0.25 0.21 0.18 0.14 0.14 0.19 0.29 0.48 0.65 0.71 0.77 0.73 0.57 0.51 0.45 0.40 0.42 0.48 0.49 0.39 0.38 0.40 0.44 0.42 0.45 0.50 0.66 0.66 0.54 0.45 0.50 0.60 0.68 0.70 0.69 0.70 0.73 0.78 0.82 1.06 1.25 1.36
0.29 0.30 0.29 0.25 0.22 0.18 0.17 0.19 0.26 0.36 0.43 0.47 0.48 0.38 0.36 0.44 0.44 0.45 0.44 0.38 0.32 0.34 0.36 0.32 0.28 0.30 0.34 0.39 0.38 0.43 0.45 0.48 0.52 0.61 0.70 0.74 0.72 0.78 0.87 0.84 0.87 0.96 1.03
0.32 0.28 0.25 0.23 0.20 0.17 0.16 0.16 0.18 0.21 0.23 0.23 0.20 0.16 0.23 0.33 0.34 0.31 0.28 0.24 0.24 0.29 0.37 0.32 0.29 0.33 0.30 0.32 0.37 0.40 0.43 0.56 0.62 0.61 0.62 0.73 0.79 0.84 1.00 0.99 1.06 1.00 0.89
0.14 0.10 0.08 0.08 0.07 0.07 0.07 0.06 0.05 0.05 0.05 0.05 0.05 0.06 0.08 0.08 0.08 0.07 0.09 0.12 0.17 0.21 0.19 0.23 0.38 0.38 0.34 0.42 0.40 0.35 0.42 0.55 0.62 0.58 0.61 0.73 0.83 0.97 1.08 1.13 1.16 1.05 0.95
0.02 0.03 0.04 0.05 0.05 0.04 0.05 0.04 0.04 0.04 0.03 0.04 0.03 0.03 0.04 0.05 0.04 0.03 0.04 0.05 0.08 0.11 0.11 0.15 0.28 0.35 0.36 0.36 0.28 0.28 0.40 0.53 0.61 0.62 0.63 0.85 0.86 0.94 1.00 1.06 1.18 1.20 1.06
0.02 0.03 0.04 0.04 0.04 0.04 0.03 0.03 0.03 0.03 0.04 0.04 0.03 0.03 0.03 0.05 0.06 0.07 0.05 0.04 0.03 0.04 0.07 0.12 0.15 0.16 0.17 0.16 0.17 0.24 0.31 0.38 0.50 0.58 0.62 0.60 0.72 0.75 0.85 0.97 1.05 1.26 1.14
0.02 0.03 0.03 0.04 0.04 0.05 0.04 0.03 0.03 0.04 0.05 0.05 0.04 0.03 0.03 0.04 0.05 0.10 0.09 0.06 0.05 0.04 0.05 0.07 0.11 0.10 0.08 0.08 0.10 0.13 0.17 0.24 0.32 0.40 0.52 0.52 0.60 0.65 0.73 0.75 0.92 1.10 1.08
0.02 0.02 0.02 0.03 0.04 0.05 0.06 0.04 0.04 0.05 0.05 0.05 0.05 0.04 0.03 0.04 0.04 0.06 0.07 0.08 0.05 0.04 0.05 0.06 0.08 0.09 0.11 0.09 0.09 0.11 0.14 0.19 0.23 0.26 0.41 0.49 0.56 0.55 0.55 0.67 0.85 0.92 0.96
0.01 0.01 0.01 0.02 0.03 0.04 0.06 0.06 0.06 0.08 0.07 0.06 0.05 0.05 0.05 0.05 0.04 0.04 0.05 0.06 0.06 0.05 0.05 0.06 0.08 0.12 0.13 0.10 0.09 0.13 0.17 0.20 0.22 0.25 0.38 0.50 0.57 0.56 0.55 0.62 0.75 0.81 0.94
0.01 0.01 0.01 0.02 0.02 0.03 0.05 0.06 0.06 0.08 0.09 0.08 0.08 0.08 0.08 0.07 0.06 0.06 0.05 0.05 0.06 0.07 0.05 0.05 0.07 0.07 0.08 0.08 0.12 0.16 0.20 0.23 0.24 0.33 0.50 0.64 0.65 0.65 0.62 0.65 0.76 0.74 0.72
0.01 0.01 0.01 0.02 0.02 0.02 0.03 0.04 0.04 0.06 0.08 0.09 0.09 0.08 0.09 0.11 0.11 0.09 0.07 0.06 0.06 0.07 0.06 0.06 0.06 0.06 0.07 0.10 0.14 0.19 0.23 0.25 0.35 0.52 0.70 0.81 0.89 0.88 0.80 0.76 0.75 0.69 0.67

GEFSMW_prec_meanprecacc_180.txt.gz
Total_Precipitation_Accumulation
0.30 0.28 0.24 0.22 0.21 0.20 0.20 0.24 0.29 0.32 0.34 0.42 0.53 0.62 0.72 0.90 1.11 1.17 1.22 1.36 1.39 1.42 1.55 1.66 1.69 1.62 1.53 1.58 1.75 2.10 1.98 1.62 1.46 1.49 1.37 1.21 1.15 1.19 1.15 1.18 1.26 1.20 1.17
0.23 0.20 0.18 0.17 0.15 0.12 0.13 0.18 0.27 0.36 0.42 0.48 0.62 0.77 1.00 1.11 1.26 1.41 1.39 1.42 1.47 1.51 1.59 1.80 1.91 1.84 1.81 1.92 1.94 2.16 2.29 2.03 1.81 1.80 1.97 1.75 1.55 1.23 1.00 1.05 1.11 1.13 1.21
0.19 0.14 0.13 0.14 0.13 0.10 0.11 0.18 0.32 0.51 0.72 0.82 1.05 1.33 1.58 1.66 1.59 1.58 1.62 1.61 1.64 1.70 1.68 1.80 2.01 1.97 1.92 1.96 2.14 2.42 2.68 2.58 2.33 2.13 2.24 1.99 1.76 1.64 1.16 0.94 1.00 1.08 1.20
0.25 0.18 0.17 0.16 0.15 0.15 0.23 0.38 0.62 0.92 1.17 1.32 1.52 1.72 1.84 1.88 1.81 1.82 1.80 1.78 1.70 1.64 1.63 1.75 1.96 2.10 2.17 2.22 2.28 2.29 2.62 2.81 2.64 2.52 2.22 1.95 1.81 1.91 1.67 1.20 0.98 1.03 1.08
0.28 0.28 0.30 0.29 0.34 0.44 0.62 0.90 1.15 1.39 1.53 1.59 1.68 1.88 2.04 2.19 2.21 2.09 1.94 1.83 1.80 1.73 1.64 1.68 1.76 1.81 1.88 2.00 2.13 2.21 2.42 2.56 2.69 2.67 2.48 2.25 2.09 1.67 1.65 1.65 1.40 1.15 0.95
0.36 0.44 0.55 0.66 0.78 0.87 1.04 1.25 1.39 1.53 1.53 1.53 1.58 1.71 1.90 2.07 2.09 2.10 2.07 1.94 1.81 1.71 1.62 1.56 1.65 1.68 1.69 1.81 1.93 2.03 2.25 2.42 2.53 2.59 2.48 2.35 2.28 2.03 1.79 1.61 1.58 1.47 1.17
0.47 0.66 0.80 0.93 1.05 1.15 1.24 1.27 1.26 1.30 1.31 1.33 1.37 1.44 1.50 1.54 1.60 1.71 1.63 1.50 1.38 1.33 1.33 1.25 1.31 1.45 1.50 1.68 1.75 1.69 1.74 1.91 2.11 2.29 2.32 2.29 2.19 2.17 2.09 1.93 1.77 1.57 1.24
0.73 0.84 0.94 1.03 1.07 1.20 1.25 1.19 1.16 1.14 1.07 1.01 1.06 1.08 1.12 1.17 1.20 1.22 1.18 1.10 1.05 1.02 0.98 0.98 1.00 1.07 1.15 1.37 1.57 1.54 1.56 1.63 1.71 1.81 2.06 2.15 2.11 2.14 1.98 1.85 1.88 1.68 1.42
0.99 1.15 1.14 1.04 0.96 1.00 1.07 1.05 1.00 0.94 0.86 0.80 0.83 0.86 0.92 0.95 0.93 0.91 0.86 0.84 0.78 0.79 0.76 0.79 0.88 0.93 0.93 1.03 1.16 1.34 1.42 1.48 1.56 1.58 1.74 1.83 1.89 1.89 1.75 1.77 1.83 1.71 1.45
1.06 1.33 1.45 1.33 1.05 0.86 0.88 0.85 0.81 0.82 0.80 0.76 0.78 0.78 0.70 0.65 0.66 0.69 0.63 0.62 0.67 0.71 0.70 0.68 0.69 0.75 0.77 0.87 0.98 1.04 1.15 1.22 1.38 1.55 1.68 1.69 1.73 1.77 1.68 1.66 1.79 1.78 1.54
1.21 1.37 1.42 1.29 1.10 0.82 0.75 0.74 0.70 0.73 0.78 0.71 0.73 0.72 0.62 0.49 0.47 0.47 0.45 0.45 0.49 0.55 0.56 0.59 0.65 0.65 0.67 0.69 0.70 0.75 0.81 0.89 0.99 1.07 1.20 1.40 1.58 1.64 1.64 1.69 1.76 1.79 1.65
0.87 0.90 1.01 1.02 0.94 0.81 0.74 0.80 0.84 0.83 0.75 0.68 0.63 0.59 0.52 0.44 0.43 0.41 0.38 0.40 0.45 0.47 0.49 0.54 0.58 0.58 0.64 0.66 0.66 0.66 0.68 0.77 0.85 0.86 0.88 0.98 1.20 1.36 1.50 1.58 1.61 1.67 1.66
0.64 0.58 0.69 0.81 0.76 0.69 0.73 0.81 0.95 0.95 0.86 0.74 0.63 0.58 0.54 0.50 0.47 0.42 0.41 0.41 0.48 0.59 0.62 0.61 0.64 0.62 0.64 0.64 0.65 0.68 0.70 0.72 0.77 0.80 0.82 0.88 0.97 1.14 1.23 1.34 1.45 1.53 1.65
0.51 0.46 0.44 0.45 0.44 0.46 0.50 0.62 0.89 1.07 1.04 0.94 0.80 0.70 0.62 0.55 0.49 0.44 0.43 0.42 0.45 0.51 0.54 0.63 0.71 0.79 0.83 0.82 0.78 0.77 0.75 0.70 0.72 0.79 0.86 0.88 0.88 1.00 1.21 1.34 1.41 1.45 1.56
0.33 0.28 0.25 0.24 0.26 0.30 0.37 0.47 0.75 0.95 0.96 0.95 0.83 0.70 0.58 0.47 0.44 0.47 0.49 0.46 0.42 0.44 0.45 0.53 0.62 0.72 0.81 0.86 0.86 0.72 0.61 0.62 0.67 0.68 0.69 0.77 0.84 0.87 1.02 1.19 1.42 1.43 1.55
0.27 0.26 0.22 0.19 0.15 0.15 0.19 0.29 0.49 0.65 0.72 0.78 0.74 0.59 0.52 0.46 0.41 0.42 0.49 0.49 0.39 0.38 0.40 0.44 0.42 0.45 0.50 0.66 0.66 0.55 0.45 0.50 0.60 0.68 0.70 0.70 0.71 0.74 0.78 0.82 1.07 1.25 1.37
0.29 0.31 0.30 0.26 0.22 0.19 0.18 0.20 0.27 0.37 0.44 0.48 0.49 0.39 0.37 0.45 0.45 0.46 0.45 0.38 0.32 0.34 0.36 0.32 0.28 0.30 0.34 0.39 0.38 0.44 0.45 0.48 0.52 0.61 0.70 0.75 0.73 0.78 0.87 0.84 0.87 0.96 1.03
0.32 0.29 0.26 0.24 0.21 0.17 0.16 0.17 0.18 0.22 0.25 0.24 0.21 0.17 0.24 0.34 0.35 0.32 0.29 0.24 0.24 0.29 0.37 0.32 0.30 0.33 0.30 0.32 0.37 0.40 0.43 0.56 0.62 0.61 0.62 0.73 0.79 0.85 1.00 0.99 1.06 1.00 0.89
0.14 0.11 0.09 0.09 0.08 0.08 0.07 0.07 0.05 0.06 0.06 0.06 0.06 0.07 0.08 0.09 0.09 0.08 0.09 0.12 0.17 0.21 0.20 0.24 0.39 0.39 0.35 0.43 0.41 0.35 0.42 0.55 0.62 0.58 0.61 0.73 0.83 0.97 1.08 1.13 1.16 1.05 0.95
0.03 0.03 0.05 0.06 0.05 0.05 0.05 0.04 0.04 0.04 0.04 0.04 0.04 0.05 0.04 0.06 0.05 0.05 0.05 0.06 0.08 0.12 0.12 0.16 0.29 0.36 0.37 0.37 0.28 0.28 0.41 0.53 0.61 0.62 0.64 0.85 0.86 0.94 1.00 1.06 1.18 1.20 1.06
0.02 0.03 0.04 0.05 0.04 0.04 0.04 0.03 0.03 0.04 0.05 0.05 0.05 0.04 0.04 0.06 0.08 0.09 0.07 0.05 0.04 0.05 0.08 0.13 0.16 0.16 0.17 0.17 0.18 0.25 0.31 0.38 0.50 0.58 0.63 0.60 0.72 0.75 0.85 0.97 1.05 1.26 1.14
0.03 0.04 0.04 0.04 0.05 0.05 0.04 0.04 0.04 0.05 0.06 0.06 0.05 0.04 0.04 0.05 0.06 0.12 0.11 0.08 0.07 0.05 0.06 0.09 0.12 0.10 0.09 0.08 0.11 0.14 0.18 0.25 0.32 0.41 0.52 0.52 0.61 0.66 0.73 0.75 0.93 1.11 1.08
0.02 0.03 0.04 0.05 0.05 0.06 0.07 0.05 0.06 0.06 0.07 0.07 0.06 0.06 0.05 0.06 0.06 0.07 0.10 0.09 0.07 0.06 0.07 0.07 0.10 0.10 0.11 0.10 0.11 0.12 0.15 0.20 0.23 0.26 0.41 0.49 0.56 0.55 0.56 0.68 0.86 0.92 0.97
0.02 0.01 0.02 0.04 0.05 0.05 0.07 0.08 0.07 0.09 0.09 0.08 0.07 0.07 0.07 0.07 0.05 0.05 0.07 0.08 0.08 0.07 0.07 0.08 0.11 0.14 0.15 0.11 0.10 0.15 0.19 0.21 0.22 0.25 0.38 0.50 0.57 0.56 0.56 0.63 0.76 0.82 0.94
0.02 0.01 0.01 0.02 0.03 0.04 0.06 0.07 0.08 0.10 0.10 0.09 0.10 0.09 0.09 0.08 0.08 0.07 0.07 0.07 0.09 0.10 0.09 0.11 0.14 0.13 0.12 0.12 0.14 0.17 0.21 0.24 0.25 0.34 0.51 0.64 0.66 0.65 0.62 0.66 0.76 0.74 0.72
0.01 0.02 0.01 0.02 0.02 0.02 0.03 0.04 0.05 0.07 0.09 0.10 0.10 0.09 0.11 0.13 0.13 0.11 0.09 0.08 0.09 0.12 0.12 0.12 0.13 0.13 0.12 0.13 0.16 0.20 0.23 0.26 0.35 0.52 0.70 0.81 0.89 0.88 0.81 0.77 0.76 0.69 0.68

GEFSMW_prec_meanprecacc_186.txt.gz
Total_Precipitation_Accumulation
0.32 0.29 0.25 0.24 0.23 0.20 0.20 0.24 0.29 0.32 0.34 0.42 0.53 0.62 0.72 0.90 1.11 1.17 1.23 1.37 1.40 1.42 1.55 1.66 1.69 1.62 1.53 1.59 1.76 2.11 2.00 1.64 1.48 1.50 1.37 1.22 1.16 1.22 1.17 1.20 1.29 1.23 1.19
0.24 0.20 0.19 0.18 0.16 0.13 0.13 0.18 0.27 0.36 0.42 0.48 0.62 0.77 1.00 1.11 1.26 1.41 1.40 1.42 1.48 1.52 1.59 1.80 1.91 1.85 1.82 1.92 1.94 2.17 2.30 2.04 1.83 1.82 1.99 1.77 1.56 1.24 1.02 1.06 1.12 1.15 1.22
0.20 0.14 0.13 0.15 0.14 0.10 0.12 0.18 0.32 0.51 0.72 0.83 1.06 1.33 1.58 1.66 1.59 1.58 1.62 1.61 1.65 1.71 1.68 1.81 2.01 1.97 1.92 1.96 2.15 2.43 2.70 2.60 2.35 2.14 2.27 2.02 1.78 1.66 1.17 0.96 1.01 1.09 1.21
0.25 0.19 0.17 0.17 0.16 0.16 0.23 0.39 0.62 0.92 1.17 1.32 1.52 1.73 1.84 1.88 1.81 1.82 1.81 1.79 1.71 1.64 1.63 1.76 1.97 2.11 2.18 2.23 2.29 2.30 2.63 2.84 2.67 2.54 2.24 1.96 1.82 1.93 1.70 1.22 1.00 1.05 1.09
0.29 0.29 0.30 0.30 0.35 0.45 0.63 0.90 1.15 1.39 1.54 1.59 1.69 1.88 2.04 2.19 2.21 2.09 1.94 1.83 1.80 1.73 1.64 1.69 1.77 1.81 1.89 2.01 2.14 2.22 2.43 2.58 2.72 2.70 2.50 2.25 2.10 1.68 1.66 1.66 1.42 1.17 0.96
0.36 0.44 0.56 0.66 0.78 0.88 1.05 1.25 1.39 1.54 1.53 1.53 1.58 1.72 1.90 2.07 2.09 2.10 2.07 1.94 1.81 1.71 1.62 1.56 1.66 1.68 1.69 1.82 1.93 2.03 2.25 2.43 2.54 2.61 2.49 2.36 2.30 2.05 1.81 1.63 1.62 1.48 1.17
0.47 0.66 0.80 0.94 1.05 1.15 1.24 1.27 1.26 1.30 1.32 1.33 1.37 1.44 1.50 1.54 1.60 1.71 1.63 1.50 1.39 1.33 1.33 1.25 1.31 1.45 1.50 1.69 1.76 1.70 1.74 1.92 2.13 2.30 2.33 2.30 2.21 2.18 2.10 1.95 1.81 1.59 1.25
0.73 0.84 0.94 1.03 1.08 1.20 1.25 1.19 1.17 1.15 1.08 1.02 1.07 1.08 1.12 1.17 1.21 1.22 1.18 1.10 1.05 1.02 0.98 0.98 1.00 1.07 1.16 1.38 1.58 1.55 1.56 1.63 1.73 1.82 2.06 2.16 2.11 2.14 1.99 1.86 1.89 1.70 1.43
0.99 1.15 1.14 1.04 0.96 1.01 1.07 1.05 1.01 0.95 0.87 0.81 0.84 0.86 0.92 0.95 0.93 0.91 0.87 0.84 0.78 0.79 0.76 0.79 0.88 0.94 0.93 1.04 1.17 1.34 1.42 1.48 1.56 1.59 1.74 1.83 1.90 1.89 1.75 1.78 1.84 1.72 1.46
1.06 1.33 1.45 1.33 1.05 0.87 0.89 0.85 0.81 0.83 0.82 0.77 0.78 0.78 0.70 0.65 0.66 0.69 0.64 0.62 0.67 0.71 0.70 0.68 0.69 0.75 0.77 0.87 0.98 1.04 1.15 1.22 1.38 1.56 1.68 1.70 1.73 1.77 1.68 1.66 1.80 1.79 1.56
1.22 1.37 1.42 1.29 1.10 0.83 0.75 0.74 0.70 0.74 0.79 0.72 0.73 0.73 0.62 0.50 0.47 0.47 0.45 0.45 0.49 0.55 0.56 0.59 0.65 0.65 0.67 0.69 0.71 0.76 0.82 0.89 0.99 1.07 1.20 1.41 1.59 1.64 1.64 1.69 1.76 1.81 1.66
0.88 0.90 1.01 1.02 0.95 0.81 0.75 0.81 0.84 0.84 0.76 0.69 0.64 0.60 0.53 0.45 0.44 0.42 0.38 0.40 0.45 0.47 0.49 0.54 0.58 0.58 0.64 0.66 0.66 0.66 0.68 0.77 0.85 0.86 0.88 0.99 1.21 1.37 1.50 1.58 1.61 1.68 1.67
0.65 0.59 0.69 0.82 0.77 0.70 0.74 0.82 0.96 0.97 0.88 0.76 0.64 0.59 0.55 0.51 0.48 0.43 0.41 0.41 0.48 0.59 0.62 0.61 0.64 0.62 0.64 0.64 0.65 0.68 0.70 0.72 0.77 0.80 0.82 0.89 0.98 1.14 1.23 1.34 1.45 1.53 1.66
0.51 0.46 0.45 0.46 0.46 0.48 0.51 0.64 0.90 1.09 1.06 0.96 0.81 0.71 0.63 0.56 0.50 0.44 0.43 0.42 0.45 0.51 0.54 0.63 0.71 0.79 0.83 0.82 0.78 0.77 0.75 0.70 0.72 0.79 0.86 0.88 0.88 1.00 1.21 1.34 1.42 1.45 1.57
0.33 0.28 0.25 0.26 0.27 0.31 0.38 0.48 0.76 0.97 0.98 0.97 0.84 0.70 0.58 0.48 0.45 0.48 0.50 0.46 0.42 0.44 0.45 0.53 0.62 0.72 0.81 0.86 0.86 0.72 0.61 0.62 0.67 0.68 0.69 0.77 0.84 0.87 1.02 1.19 1.42 1.45 1.56
0.27 0.26 0.22 0.20 0.16 0.16 0.20 0.30 0.49 0.66 0.73 0.79 0.75 0.59 0.53 0.47 0.42 0.43 0.49 0.50 0.40 0.38 0.40 0.44 0.42 0.45 0.50 0.66 0.66 0.55 0.45 0.50 0.60 0.68 0.70 0.70 0.71 0.74 0.78 0.82 1.07 1.26 1.38
0.29 0.31 0.30 0.26 0.23 0.19 0.19 0.20 0.27 0.37 0.45 0.50 0.50 0.40 0.38 0.46 0.46 0.46 0.45 0.39 0.32 0.34 0.36 0.32 0.28 0.30 0.34 0.39 0.38 0.44 0.45 0.48 0.53 0.61 0.70 0.75 0.73 0.78 0.88 0.84 0.87 0.97 1.03
0.32 0.29 0.26 0.24 0.21 0.18 0.17 0.18 0.19 0.22 0.25 0.24 0.22 0.17 0.24 0.35 0.36 0.32 0.29 0.25 0.24 0.30 0.37 0.32 0.30 0.33 0.30 0.32 0.37 0.41 0.43 0.56 0.62 0.61 0.62 0.73 0.79 0.85 1.01 1.00 1.07 1.00 0.90
0.14 0.11 0.09 0.09 0.08 0.08 0.08 0.07 0.05 0.06 0.06 0.06 0.06 0.07 0.09 0.10 0.10 0.09 0.09 0.13 0.17 0.21 0.20 0.24 0.39 0.39 0.36 0.43 0.41 0.35 0.42 0.55 0.62 0.58 0.62 0.73 0.83 0.97 1.08 1.13 1.16 1.05 0.95
0.03 0.03 0.05 0.06 0.06 0.05 0.06 0.05 0.04 0.04 0.04 0.05 0.05 0.05 0.05 0.06 0.06 0.05 0.05 0.06 0.09 0.12 0.13 0.17 0.30 0.37 0.38 0.38 0.29 0.29 0.41 0.53 0.61 0.63 0.64 0.85 0.86 0.94 1.00 1.06 1.18 1.20 1.06
0.02 0.04 0.04 0.05 0.05 0.04 0.04 0.03 0.03 0.04 0.06 0.05 0.05 0.04 0.04 0.06 0.09 0.10 0.08 0.06 0.05 0.06 0.08 0.13 0.16 0.17 0.18 0.18 0.19 0.26 0.32 0.39 0.51 0.59 0.63 0.61 0.73 0.75 0.85 0.98 1.05 1.26 1.15
0.03 0.05 0.05 0.05 0.05 0.05 0.04 0.04 0.04 0.05 0.07 0.06 0.05 0.04 0.05 0.05 0.07 0.13 0.12 0.10 0.09 0.07 0.06 0.09 0.13 0.11 0.10 0.10 0.12 0.16 0.19 0.26 0.33 0.41 0.53 0.53 0.62 0.67 0.74 0.75 0.93 1.11 1.08
0.03 0.04 0.05 0.06 0.06 0.06 0.07 0.06 0.06 0.07 0.08 0.07 0.06 0.06 0.06 0.06 0.06 0.08 0.10 0.11 0.09 0.08 0.08 0.09 0.11 0.12 0.13 0.12 0.12 0.14 0.17 0.21 0.24 0.26 0.42 0.50 0.57 0.56 0.56 0.68 0.87 0.93 0.97
0.02 0.02 0.03 0.05 0.08 0.10 0.11 0.11 0.11 0.12 0.12 0.10 0.08 0.07 0.08 0.08 0.06 0.06 0.08 0.10 0.11 0.10 0.11 0.11 0.14 0.16 0.17 0.13 0.12 0.16 0.20 0.23 0.24 0.26 0.39 0.51 0.57 0.56 0.57 0.64 0.77 0.82 0.94
0.02 0.02 0.01 0.02 0.04 0.08 0.10 0.12 0.12 0.15 0.15 0.13 0.13 0.11 0.10 0.09 0.09 0.09 0.08 0.09 0.11 0.13 0.13 0.15 0.18 0.15 0.14 0.13 0.16 0.19 0.22 0.25 0.26 0.35 0.51 0.64 0.66 0.66 0.62 0.66 0.77 0.75 0.72
0.02 0.02 0.01 0.02 0.02 0.03 0.04 0.06 0.07 0.09 0.11 0.13 0.13 0.11 0.12 0.14 0.14 0.13 0.11 0.10 0.10 0.14 0.14 0.14 0.15 0.15 0.14 0.15 0.18 0.22 0.25 0.27 0.36 0.53 0.70 0.81 0.89 0.89 0.81 0.77 0.76 0.70 0.68

GEFSMW_prec_meanprecacc_192.txt.gz
Total_Precipitation_Accumulation
0.33 0.30 0.26 0.25 0.24 0.21 0.21 0.25 0.30 0.33 0.35 0.43 0.53 0.63 0.73 0.91 1.11 1.17 1.24 1.39 1.40 1.43 1.56 1.66 1.69 1.63 1.55 1.61 1.77 2.13 2.02 1.66 1.50 1.53 1.39 1.24 1.18 1.23 1.19 1.23 1.32 1.25 1.21
0.24 0.21 0.20 0.19 0.17 0.13 0.14 0.19 0.27 0.36 0.43 0.48 0.62 0.77 1.00 1.12 1.26 1.41 1.41 1.43 1.49 1.52 1.59 1.80 1.92 1.85 1.83 1.93 1.96 2.19 2.34 2.07 1.87 1.87 2.03 1.80 1.58 1.25 1.02 1.07 1.14 1.17 1.24
0.21 0.15 0.14 0.16 0.14 0.11 0.12 0.18 0.32 0.52 0.72 0.83 1.06 1.33 1.59 1.67 1.60 1.59 1.64 1.62 1.65 1.72 1.69 1.81 2.01 1.98 1.94 1.99 2.17 2.46 2.74 2.65 2.39 2.19 2.33 2.08 1.82 1.69 1.19 0.96 1.02 1.11 1.22
0.25 0.20 0.18 0.18 0.16 0.16 0.24 0.40 0.62 0.92 1.18 1.33 1.53 1.74 1.85 1.89 1.82 1.83 1.81 1.79 1.71 1.64 1.65 1.78 1.98 2.13 2.20 2.26 2.31 2.33 2.67 2.89 2.71 2.58 2.28 2.00 1.85 1.96 1.72 1.23 1.00 1.06 1.10
0.29 0.29 0.31 0.32 0.36 0.45 0.63 0.91 1.16 1.40 1.54 1.60 1.69 1.89 2.05 2.20 2.21 2.10 1.95 1.83 1.80 1.74 1.65 1.70 1.78 1.83 1.92 2.04 2.16 2.24 2.46 2.63 2.76 2.74 2.54 2.29 2.13 1.71 1.69 1.68 1.43 1.18 0.97
0.36 0.44 0.57 0.68 0.79 0.88 1.06 1.26 1.40 1.54 1.54 1.54 1.58 1.72 1.91 2.07 2.09 2.10 2.07 1.94 1.81 1.72 1.62 1.56 1.66 1.69 1.70 1.83 1.94 2.04 2.28 2.46 2.57 2.64 2.53 2.41 2.34 2.09 1.84 1.66 1.63 1.49 1.18
0.47 0.66 0.81 0.95 1.05 1.16 1.25 1.28 1.27 1.31 1.32 1.34 1.38 1.44 1.51 1.54 1.60 1.71 1.64 1.51 1.39 1.34 1.34 1.26 1.32 1.45 1.50 1.69 1.76 1.70 1.75 1.94 2.15 2.34 2.36 2.33 2.23 2.20 2.13 1.98 1.82 1.60 1.26
0.73 0.84 0.94 1.03 1.08 1.21 1.25 1.20 1.17 1.16 1.09 1.03 1.07 1.08 1.12 1.18 1.21 1.22 1.18 1.10 1.05 1.02 0.98 0.98 1.00 1.07 1.16 1.38 1.59 1.55 1.57 1.64 1.74 1.84 2.08 2.18 2.12 2.15 2.00 1.88 1.91 1.71 1.44
0.99 1.15 1.14 1.04 0.96 1.01 1.08 1.06 1.01 0.96 0.88 0.82 0.85 0.87 0.93 0.96 0.94 0.92 0.87 0.84 0.78 0.79 0.76 0.79 0.88 0.94 0.93 1.04 1.17 1.34 1.42 1.49 1.57 1.60 1.75 1.85 1.91 1.89 1.76 1.78 1.85 1.74 1.48
1.06 1.33 1.46 1.33 1.05 0.87 0.89 0.85 0.82 0.84 0.82 0.78 0.79 0.79 0.71 0.65 0.67 0.69 0.64 0.62 0.67 0.71 0.70 0.68 0.69 0.75 0.77 0.87 0.98 1.04 1.15 1.22 1.38 1.56 1.69 1.71 1.74 1.77 1.69 1.67 1.81 1.79 1.57
1.22 1.37 1.42 1.29 1.10 0.83 0.75 0.75 0.71 0.74 0.80 0.73 0.74 0.73 0.63 0.50 0.47 0.47 0.45 0.45 0.49 0.55 0.56 0.59 0.65 0.65 0.67 0.69 0.71 0.76 0.82 0.89 0.99 1.07 1.20 1.41 1.59 1.65 1.65 1.71 1.77 1.82 1.68
0.88 0.91 1.02 1.02 0.95 0.81 0.75 0.81 0.85 0.85 0.77 0.69 0.65 0.61 0.53 0.45 0.44 0.42 0.38 0.40 0.45 0.47 0.49 0.54 0.58 0.58 0.64 0.66 0.66 0.66 0.68 0.77 0.85 0.86 0.88 0.99 1.21 1.38 1.51 1.60 1.62 1.69 1.68
0.65 0.59 0.69 0.82 0.77 0.71 0.74 0.82 0.96 0.97 0.89 0.76 0.64 0.60 0.56 0.52 0.49 0.43 0.42 0.41 0.48 0.59 0.62 0.61 0.64 0.62 0.64 0.64 0.65 0.68 0.70 0.72 0.77 0.80 0.82 0.89 0.98 1.14 1.24 1.35 1.46 1.54 1.67
0.51 0.46 0.45 0.47 0.47 0.48 0.52 0.64 0.90 1.09 1.07 0.96 0.82 0.72 0.64 0.58 0.51 0.45 0.44 0.42 0.45 0.51 0.54 0.63 0.71 0.79 0.83 0.82 0.79 0.78 0.75 0.70 0.72 0.79 0.86 0.88 0.88 1.00 1.21 1.34 1.42 1.46 1.57
0.34 0.29 0.26 0.27 0.28 0.31 0.38 0.49 0.77 0.97 0.98 0.98 0.85 0.71 0.59 0.50 0.46 0.48 0.50 0.47 0.42 0.44 0.45 0.53 0.62 0.72 0.81 0.86 0.87 0.73 0.62 0.62 0.67 0.68 0.69 0.77 0.84 0.87 1.03 1.19 1.42 1.45 1.57
0.27 0.26 0.23 0.21 0.17 0.16 0.20 0.30 0.50 0.66 0.74 0.80 0.76 0.61 0.54 0.48 0.43 0.44 0.49 0.50 0.40 0.38 0.40 0.44 0.42 0.45 0.50 0.66 0.66 0.55 0.45 0.50 0.60 0.68 0.70 0.70 0.71 0.74 0.78 0.82 1.07 1.26 1.39
0.29 0.31 0.30 0.27 0.24 0.20 0.19 0.21 0.27 0.38 0.45 0.50 0.50 0.41 0.40 0.47 0.47 0.47 0.46 0.40 0.33 0.35 0.37 0.32 0.28 0.30 0.34 0.39 0.38 0.44 0.46 0.48 0.53 0.61 0.70 0.75 0.73 0.78 0.88 0.84 0.87 0.97 1.03
0.32 0.29 0.27 0.25 0.22 0.19 0.18 0.18 0.19 0.22 0.26 0.25 0.22 0.18 0.25 0.36 0.37 0.32 0.30 0.26 0.26 0.31 0.38 0.33 0.30 0.34 0.30 0.32 0.37 0.41 0.43 0.56 0.62 0.62 0.62 0.74 0.79 0.85 1.01 1.00 1.07 1.00 0.90
0.14 0.11 0.09 0.09 0.09 0.09 0.08 0.08 0.06 0.06 0.07 0.07 0.07 0.08 0.09 0.10 0.10 0.09 0.10 0.14 0.19 0.24 0.22 0.25 0.40 0.40 0.36 0.43 0.41 0.36 0.43 0.55 0.62 0.58 0.62 0.73 0.83 0.97 1.08 1.13 1.16 1.05 0.95
0.03 0.04 0.05 0.06 0.06 0.05 0.06 0.05 0.05 0.05 0.05 0.05 0.05 0.05 0.05 0.07 0.06 0.05 0.06 0.08 0.12 0.15 0.15 0.18 0.31 0.37 0.38 0.39 0.30 0.30 0.42 0.54 0.62 0.63 0.64 0.85 0.86 0.95 1.00 1.06 1.18 1.20 1.06
0.03 0.04 0.05 0.05 0.05 0.04 0.04 0.04 0.04 0.05 0.06 0.06 0.05 0.04 0.04 0.06 0.09 0.10 0.08 0.08 0.07 0.08 0.10 0.14 0.17 0.18 0.19 0.18 0.20 0.27 0.33 0.39 0.51 0.59 0.64 0.61 0.74 0.76 0.86 0.98 1.06 1.27 1.15
0.03 0.05 0.05 0.05 0.05 0.05 0.04 0.04 0.04 0.06 0.07 0.07 0.06 0.05 0.05 0.05 0.07 0.13 0.12 0.11 0.10 0.08 0.08 0.11 0.15 0.13 0.11 0.10 0.13 0.16 0.20 0.27 0.34 0.42 0.54 0.54 0.63 0.68 0.74 0.76 0.93 1.11 1.08
0.03 0.04 0.06 0.06 0.06 0.07 0.07 0.06 0.06 0.07 0.08 0.08 0.07 0.06 0.06 0.06 0.06 0.08 0.11 0.11 0.10 0.09 0.09 0.10 0.13 0.14 0.14 0.13 0.13 0.15 0.18 0.22 0.25 0.28 0.43 0.51 0.58 0.57 0.57 0.68 0.87 0.93 0.98
0.02 0.02 0.03 0.06 0.09 0.10 0.11 0.12 0.12 0.13 0.13 0.11 0.09 0.08 0.08 0.09 0.07 0.07 0.09 0.11 0.12 0.12 0.12 0.12 0.15 0.18 0.19 0.14 0.14 0.18 0.22 0.25 0.26 0.28 0.40 0.52 0.58 0.57 0.57 0.64 0.77 0.83 0.95
0.03 0.02 0.02 0.03 0.05 0.08 0.10 0.12 0.13 0.16 0.16 0.16 0.15 0.13 0.12 0.10 0.10 0.10 0.09 0.10 0.12 0.15 0.14 0.17 0.19 0.18 0.17 0.15 0.17 0.20 0.24 0.26 0.27 0.36 0.52 0.65 0.66 0.66 0.63 0.67 0.77 0.75 0.73
0.02 0.02 0.02 0.02 0.03 0.03 0.04 0.06 0.07 0.10 0.13 0.16 0.16 0.13 0.14 0.16 0.16 0.14 0.12 0.11 0.12 0.15 0.16 0.15 0.17 0.16 0.16 0.16 0.19 0.23 0.26 0.28 0.37 0.54 0.71 0.82 0.90 0.89 0.83 0.79 0.77 0.71 0.69

GEFSMW_prec_meanprecacc_198.txt.gz
Total_Precipitation_Accumulation
0.33 0.30 0.27 0.25 0.24 0.22 0.22 0.26 0.30 0.33 0.35 0.43 0.54 0.63 0.73 0.91 1.12 1.18 1.25 1.39 1.41 1.43 1.56 1.66 1.69 1.63 1.55 1.61 1.78 2.14 2.03 1.67 1.51 1.55 1.41 1.25 1.20 1.26 1.21 1.25 1.34 1.27 1.22
0.25 0.22 0.21 0.20 0.18 0.14 0.14 0.19 0.28 0.37 0.43 0.49 0.62 0.77 1.01 1.12 1.26 1.42 1.41 1.44 1.49 1.53 1.60 1.81 1.92 1.86 1.84 1.94 1.97 2.20 2.35 2.08 1.88 1.88 2.04 1.81 1.59 1.26 1.03 1.08 1.16 1.18 1.25
0.21 0.16 0.15 0.16 0.15 0.11 0.13 0.19 0.33 0.52 0.73 0.84 1.06 1.33 1.59 1.67 1.60 1.59 1.64 1.63 1.66 1.72 1.70 1.81 2.01 1.98 1.94 1.99 2.17 2.46 2.75 2.66 2.40 2.20 2.34 2.09 1.82 1.69 1.19 0.96 1.02 1.12 1.24
0.26 0.20 0.19 0.18 0.17 0.17 0.25 0.41 0.64 0.94 1.19 1.34 1.53 1.74 1.85 1.89 1.82 1.83 1.81 1.80 1.71 1.65 1.65 1.78 1.98 2.13 2.21 2.26 2.32 2.33 2.68 2.90 2.72 2.58 2.29 2.00 1.86 1.97 1.73 1.24 1.00 1.07 1.13
0.29 0.29 0.32 0.32 0.37 0.46 0.64 0.92 1.17 1.41 1.56 1.61 1.70 1.90 2.05 2.20 2.22 2.10 1.95 1.83 1.80 1.74 1.66 1.71 1.78 1.83 1.92 2.04 2.16 2.24 2.47 2.63 2.76 2.74 2.55 2.29 2.13 1.72 1.69 1.69 1.44 1.19 0.98
0.37 0.45 0.57 0.69 0.80 0.89 1.07 1.27 1.41 1.55 1.55 1.55 1.60 1.73 1.92 2.08 2.10 2.11 2.08 1.94 1.81 1.72 1.63 1.57 1.66 1.69 1.70 1.84 1.95 2.04 2.28 2.46 2.57 2.64 2.54 2.42 2.36 2.11 1.85 1.68 1.64 1.50 1.18
0.47 0.66 0.82 0.95 1.06 1.16 1.26 1.28 1.28 1.33 1.34 1.35 1.39 1.46 1.53 1.55 1.61 1.71 1.64 1.51 1.39 1.35 1.34 1.26 1.32 1.45 1.51 1.70 1.77 1.71 1.76 1.95 2.16 2.34 2.36 2.34 2.25 2.21 2.14 1.99 1.83 1.60 1.26
0.73 0.85 0.94 1.04 1.09 1.22 1.26 1.21 1.18 1.17 1.11 1.05 1.09 1.11 1.15 1.20 1.22 1.23 1.18 1.10 1.06 1.02 0.99 0.98 1.00 1.07 1.16 1.38 1.59 1.57 1.58 1.65 1.75 1.84 2.08 2.19 2.13 2.16 2.00 1.88 1.91 1.71 1.44
1.01 1.16 1.15 1.05 0.97 1.03 1.09 1.07 1.02 0.97 0.89 0.83 0.86 0.89 0.95 0.98 0.95 0.92 0.87 0.85 0.79 0.79 0.76 0.79 0.88 0.94 0.94 1.04 1.17 1.35 1.42 1.49 1.57 1.60 1.76 1.86 1.92 1.90 1.77 1.79 1.85 1.74 1.48
1.08 1.34 1.47 1.34 1.06 0.89 0.91 0.87 0.83 0.85 0.83 0.79 0.81 0.81 0.73 0.67 0.67 0.70 0.64 0.63 0.67 0.71 0.70 0.68 0.69 0.75 0.78 0.87 0.98 1.04 1.15 1.23 1.38 1.56 1.70 1.72 1.74 1.78 1.70 1.68 1.81 1.80 1.57
1.26 1.39 1.43 1.31 1.12 0.85 0.77 0.76 0.72 0.75 0.81 0.73 0.75 0.75 0.65 0.52 0.49 0.48 0.45 0.45 0.49 0.55 0.56 0.59 0.65 0.65 0.67 0.69 0.71 0.77 0.83 0.89 0.99 1.07 1.20 1.41 1.59 1.65 1.66 1.71 1.77 1.82 1.68
0.93 0.94 1.04 1.05 0.98 0.84 0.77 0.82 0.86 0.85 0.77 0.70 0.65 0.62 0.54 0.47 0.46 0.43 0.38 0.40 0.45 0.47 0.49 0.54 0.58 0.58 0.64 0.66 0.66 0.66 0.69 0.78 0.85 0.86 0.88 0.99 1.21 1.38 1.51 1.60 1.62 1.69 1.68
0.68 0.61 0.71 0.84 0.79 0.72 0.76 0.84 0.98 0.98 0.89 0.76 0.65 0.60 0.56 0.53 0.51 0.45 0.42 0.41 0.48 0.59 0.62 0.61 0.64 0.62 0.64 0.64 0.65 0.68 0.70 0.72 0.77 0.80 0.82 0.89 0.98 1.15 1.24 1.35 1.46 1.54 1.67
0.53 0.47 0.46 0.49 0.48 0.49 0.53 0.66 0.92 1.10 1.07 0.96 0.82 0.72 0.65 0.59 0.52 0.46 0.45 0.42 0.46 0.52 0.55 0.63 0.71 0.79 0.83 0.82 0.79 0.78 0.76 0.71 0.72 0.79 0.86 0.88 0.88 1.00 1.21 1.34 1.42 1.46 1.57
0.35 0.29 0.27 0.28 0.29 0.32 0.40 0.50 0.78 0.98 0.99 0.98 0.85 0.71 0.60 0.51 0.48 0.51 0.52 0.48 0.43 0.45 0.46 0.54 0.63 0.73 0.81 0.87 0.87 0.73 0.62 0.62 0.67 0.68 0.69 0.77 0.84 0.87 1.03 1.19 1.43 1.45 1.57
0.29 0.28 0.24 0.21 0.18 0.17 0.21 0.30 0.50 0.67 0.74 0.80 0.76 0.61 0.54 0.49 0.44 0.45 0.51 0.52 0.42 0.40 0.41 0.45 0.43 0.46 0.50 0.67 0.67 0.56 0.45 0.51 0.61 0.68 0.70 0.70 0.71 0.74 0.78 0.82 1.07 1.26 1.39
0.32 0.33 0.32 0.28 0.24 0.21 0.20 0.21 0.28 0.38 0.45 0.50 0.50 0.42 0.41 0.48 0.47 0.48 0.47 0.42 0.35 0.36 0.38 0.33 0.29 0.31 0.35 0.40 0.39 0.45 0.46 0.48 0.53 0.62 0.71 0.75 0.73 0.79 0.88 0.84 0.87 0.97 1.04
0.35 0.31 0.28 0.26 0.23 0.19 0.18 0.19 0.20 0.23 0.26 0.25 0.22 0.18 0.26 0.37 0.39 0.35 0.32 0.28 0.29 0.32 0.39 0.34 0.31 0.34 0.31 0.34 0.38 0.42 0.44 0.57 0.63 0.62 0.63 0.74 0.80 0.85 1.01 1.00 1.07 1.00 0.90
0.16 0.13 0.11 0.11 0.10 0.09 0.09 0.09 0.06 0.07 0.07 0.07 0.07 0.08 0.09 0.11 0.12 0.11 0.12 0.17 0.22 0.27 0.24 0.28 0.42 0.42 0.37 0.45 0.43 0.37 0.44 0.56 0.63 0.59 0.62 0.74 0.84 0.98 1.09 1.14 1.16 1.06 0.96
0.03 0.05 0.07 0.08 0.07 0.06 0.07 0.06 0.05 0.05 0.05 0.05 0.06 0.06 0.06 0.07 0.06 0.06 0.07 0.10 0.14 0.18 0.19 0.22 0.36 0.42 0.42 0.42 0.32 0.31 0.42 0.55 0.63 0.64 0.65 0.86 0.87 0.95 1.01 1.07 1.19 1.20 1.07
0.04 0.05 0.07 0.07 0.06 0.05 0.05 0.04 0.04 0.05 0.07 0.07 0.06 0.05 0.05 0.06 0.09 0.11 0.09 0.09 0.09 0.10 0.13 0.18 0.23 0.23 0.22 0.22 0.23 0.28 0.33 0.40 0.52 0.61 0.65 0.63 0.75 0.77 0.87 0.99 1.07 1.28 1.16
0.05 0.06 0.07 0.06 0.06 0.06 0.05 0.04 0.04 0.06 0.08 0.07 0.07 0.06 0.06 0.06 0.07 0.13 0.13 0.12 0.11 0.09 0.09 0.14 0.19 0.19 0.15 0.13 0.16 0.19 0.23 0.30 0.37 0.44 0.56 0.56 0.64 0.69 0.76 0.77 0.95 1.13 1.09
0.04 0.06 0.08 0.08 0.08 0.08 0.08 0.07 0.07 0.08 0.09 0.09 0.08 0.08 0.07 0.07 0.06 0.08 0.11 0.12 0.10 0.10 0.10 0.11 0.14 0.17 0.18 0.15 0.17 0.19 0.22 0.26 0.28 0.30 0.44 0.52 0.60 0.59 0.58 0.70 0.88 0.94 0.98
0.04 0.05 0.05 0.08 0.11 0.12 0.12 0.12 0.13 0.14 0.14 0.12 0.11 0.10 0.10 0.10 0.09 0.09 0.11 0.13 0.14 0.13 0.13 0.14 0.16 0.19 0.21 0.17 0.17 0.22 0.26 0.28 0.27 0.29 0.43 0.55 0.61 0.59 0.58 0.65 0.78 0.83 0.96
0.08 0.05 0.05 0.05 0.08 0.11 0.12 0.13 0.13 0.16 0.17 0.16 0.16 0.15 0.14 0.14 0.14 0.14 0.13 0.13 0.16 0.18 0.16 0.19 0.22 0.20 0.19 0.18 0.19 0.21 0.25 0.27 0.28 0.37 0.53 0.66 0.67 0.67 0.64 0.68 0.78 0.76 0.73
0.06 0.06 0.06 0.05 0.05 0.05 0.06 0.07 0.08 0.10 0.13 0.17 0.17 0.14 0.15 0.18 0.19 0.17 0.15 0.14 0.14 0.17 0.18 0.17 0.18 0.19 0.18 0.17 0.20 0.24 0.27 0.29 0.38 0.54 0.71 0.82 0.90 0.90 0.83 0.79 0.78 0.71 0.69

GEFSMW_prec_meanprecacc_204.txt.gz
Total_Precipitation_Accumulation
0.35 0.31 0.27 0.26 0.26 0.24 0.23 0.27 0.31 0.35 0.36 0.44 0.54 0.63 0.74 0.92 1.12 1.18 1.25 1.40 1.42 1.44 1.56 1.66 1.69 1.63 1.55 1.61 1.78 2.15 2.04 1.68 1.53 1.56 1.42 1.26 1.20 1.28 1.25 1.30 1.38 1.31 1.26
0.26 0.23 0.22 0.20 0.19 0.16 0.16 0.21 0.29 0.38 0.43 0.49 0.63 0.78 1.01 1.13 1.27 1.42 1.42 1.45 1.51 1.54 1.60 1.81 1.92 1.86 1.84 1.94 1.97 2.22 2.36 2.09 1.89 1.89 2.05 1.82 1.59 1.27 1.04 1.10 1.18 1.20 1.27
0.22 0.17 0.16 0.18 0.17 0.14 0.15 0.21 0.34 0.54 0.74 0.84 1.07 1.33 1.59 1.67 1.61 1.60 1.65 1.64 1.66 1.73 1.70 1.82 2.01 1.98 1.94 1.99 2.17 2.47 2.76 2.67 2.41 2.22 2.36 2.10 1.83 1.69 1.20 0.97 1.03 1.13 1.24
0.26 0.21 0.21 0.20 0.18 0.19 0.27 0.42 0.65 0.96 1.21 1.35 1.53 1.74 1.85 1.89 1.83 1.84 1.82 1.80 1.72 1.65 1.66 1.79 1.99 2.13 2.21 2.26 2.32 2.34 2.69 2.92 2.74 2.59 2.30 2.01 1.87 1.97 1.73 1.24 1.01 1.08 1.13
0.30 0.30 0.33 0.34 0.37 0.47 0.65 0.93 1.18 1.42 1.58 1.63 1.71 1.90 2.05 2.21 2.23 2.12 1.96 1.84 1.81 1.75 1.66 1.71 1.79 1.83 1.92 2.04 2.16 2.24 2.47 2.64 2.77 2.75 2.55 2.30 2.14 1.72 1.69 1.69 1.44 1.19 0.99
0.38 0.46 0.59 0.69 0.80 0.90 1.07 1.28 1.42 1.56 1.56 1.56 1.61 1.73 1.92 2.08 2.10 2.12 2.08 1.95 1.82 1.72 1.63 1.57 1.66 1.69 1.70 1.84 1.95 2.04 2.28 2.46 2.58 2.64 2.54 2.43 2.37 2.11 1.87 1.69 1.65 1.50 1.18
0.49 0.68 0.83 0.96 1.07 1.17 1.26 1.29 1.28 1.33 1.34 1.36 1.40 1.47 1.53 1.56 1.62 1.72 1.64 1.51 1.40 1.35 1.35 1.27 1.33 1.45 1.51 1.70 1.77 1.71 1.76 1.95 2.17 2.35 2.37 2.35 2.26 2.22 2.15 2.00 1.83 1.61 1.27
0.75 0.86 0.97 1.06 1.10 1.22 1.27 1.21 1.19 1.18 1.11 1.05 1.10 1.11 1.15 1.20 1.23 1.24 1.19 1.11 1.06 1.03 1.00 0.99 1.01 1.08 1.16 1.38 1.60 1.58 1.59 1.66 1.77 1.86 2.10 2.20 2.15 2.17 2.00 1.89 1.91 1.72 1.45
1.01 1.18 1.18 1.08 0.99 1.04 1.10 1.08 1.03 0.98 0.90 0.84 0.87 0.90 0.96 0.98 0.95 0.92 0.87 0.85 0.79 0.80 0.77 0.80 0.89 0.95 0.94 1.04 1.17 1.35 1.43 1.50 1.58 1.61 1.76 1.87 1.93 1.91 1.77 1.79 1.86 1.74 1.48
1.10 1.36 1.49 1.36 1.08 0.90 0.93 0.89 0.85 0.87 0.85 0.80 0.83 0.83 0.75 0.68 0.68 0.70 0.64 0.63 0.67 0.71 0.71 0.68 0.70 0.76 0.78 0.87 0.98 1.05 1.15 1.23 1.39 1.56 1.70 1.72 1.75 1.78 1.70 1.68 1.81 1.80 1.57
1.29 1.43 1.47 1.33 1.14 0.87 0.79 0.77 0.74 0.77 0.82 0.74 0.76 0.76 0.66 0.53 0.49 0.48 0.46 0.46 0.49 0.55 0.56 0.59 0.65 0.66 0.67 0.69 0.71 0.77 0.83 0.89 1.00 1.07 1.21 1.41 1.59 1.66 1.66 1.71 1.77 1.82 1.68
0.96 0.97 1.07 1.08 1.00 0.86 0.79 0.84 0.88 0.87 0.79 0.70 0.66 0.63 0.56 0.48 0.47 0.44 0.39 0.41 0.46 0.48 0.49 0.55 0.58 0.58 0.64 0.66 0.66 0.66 0.69 0.78 0.86 0.86 0.88 0.99 1.21 1.38 1.51 1.60 1.62 1.69 1.68
0.69 0.63 0.73 0.87 0.80 0.74 0.78 0.86 1.00 1.00 0.90 0.77 0.66 0.62 0.58 0.55 0.52 0.46 0.43 0.42 0.49 0.59 0.62 0.62 0.65 0.62 0.64 0.64 0.65 0.68 0.70 0.72 0.77 0.81 0.82 0.89 0.98 1.15 1.24 1.35 1.46 1.54 1.67
0.54 0.48 0.48 0.51 0.50 0.51 0.54 0.67 0.94 1.12 1.08 0.97 0.82 0.73 0.66 0.61 0.53 0.48 0.46 0.43 0.46 0.53 0.56 0.64 0.72 0.79 0.84 0.82 0.79 0.78 0.76 0.71 0.72 0.79 0.86 0.88 0.88 1.00 1.21 1.34 1.42 1.46 1.57
0.36 0.31 0.29 0.30 0.31 0.34 0.41 0.51 0.80 1.00 1.00 0.99 0.85 0.71 0.61 0.53 0.49 0.52 0.53 0.48 0.43 0.45 0.46 0.55 0.64 0.73 0.82 0.87 0.88 0.74 0.63 0.63 0.68 0.69 0.70 0.78 0.85 0.87 1.03 1.19 1.43 1.45 1.57
0.30 0.29 0.25 0.23 0.20 0.19 0.22 0.32 0.52 0.69 0.76 0.81 0.77 0.62 0.55 0.49 0.44 0.46 0.52 0.53 0.42 0.40 0.42 0.46 0.44 0.47 0.51 0.68 0.69 0.57 0.46 0.51 0.61 0.68 0.70 0.70 0.72 0.74 0.79 0.82 1.07 1.27 1.39
0.32 0.34 0.33 0.29 0.26 0.22 0.21 0.22 0.29 0.39 0.46 0.51 0.52 0.43 0.41 0.48 0.47 0.48 0.47 0.42 0.35 0.37 0.39 0.34 0.30 0.32 0.36 0.42 0.41 0.47 0.47 0.49 0.54 0.62 0.71 0.76 0.74 0.79 0.88 0.85 0.88 0.97 1.04
0.35 0.32 0.29 0.27 0.24 0.21 0.20 0.20 0.21 0.23 0.26 0.26 0.24 0.20 0.27 0.38 0.39 0.35 0.33 0.29 0.30 0.34 0.41 0.35 0.32 0.36 0.34 0.35 0.40 0.44 0.45 0.57 0.64 0.63 0.63 0.75 0.81 0.87 1.02 1.01 1.07 1.00 0.90
0.16 0.13 0.12 0.11 0.11 0.10 0.10 0.10 0.07 0.07 0.08 0.07 0.07 0.09 0.10 0.11 0.12 0.11 0.13 0.18 0.24 0.28 0.26 0.29 0.44 0.44 0.41 0.48 0.46 0.39 0.45 0.57 0.65 0.60 0.63 0.74 0.84 0.99 1.10 1.14 1.16 1.06 0.96
0.04 0.05 0.08 0.08 0.08 0.07 0.08 0.06 0.06 0.05 0.05 0.06 0.06 0.07 0.06 0.07 0.07 0.07 0.08 0.11 0.15 0.20 0.21 0.24 0.38 0.44 0.46 0.47 0.36 0.34 0.44 0.56 0.64 0.65 0.65 0.87 0.88 0.96 1.01 1.07 1.19 1.21 1.07
0.04 0.05 0.07 0.07 0.07 0.07 0.07 0.06 0.06 0.07 0.08 0.08 0.07 0.06 0.05 0.07 0.10 0.12 0.10 0.11 0.10 0.11 0.15 0.20 0.24 0.25 0.25 0.25 0.25 0.30 0.35 0.42 0.54 0.62 0.66 0.63 0.75 0.78 0.88 0.99 1.07 1.28 1.16
0.05 0.07 0.07 0.07 0.07 0.08 0.07 0.07 0.06 0.08 0.10 0.09 0.08 0.07 0.07 0.07 0.08 0.15 0.15 0.13 0.13 0.10 0.11 0.16 0.22 0.21 0.17 0.15 0.17 0.21 0.25 0.32 0.38 0.46 0.57 0.56 0.65 0.69 0.76 0.78 0.95 1.13 1.10
0.05 0.06 0.08 0.09 0.09 0.09 0.09 0.08 0.09 0.10 0.11 0.11 0.10 0.10 0.09 0.10 0.09 0.10 0.13 0.14 0.12 0.11 0.12 0.14 0.17 0.19 0.20 0.17 0.19 0.21 0.25 0.28 0.29 0.31 0.46 0.53 0.60 0.59 0.58 0.70 0.89 0.95 0.99
0.05 0.05 0.06 0.08 0.12 0.13 0.14 0.13 0.13 0.15 0.15 0.14 0.14 0.12 0.13 0.13 0.13 0.13 0.15 0.16 0.17 0.17 0.17 0.17 0.19 0.22 0.23 0.19 0.19 0.24 0.28 0.29 0.28 0.30 0.44 0.56 0.62 0.60 0.59 0.66 0.78 0.84 0.96
0.08 0.06 0.05 0.06 0.09 0.12 0.13 0.15 0.15 0.17 0.19 0.19 0.18 0.18 0.17 0.17 0.18 0.18 0.18 0.18 0.20 0.23 0.22 0.23 0.25 0.24 0.22 0.21 0.22 0.24 0.28 0.30 0.30 0.38 0.54 0.67 0.68 0.68 0.65 0.69 0.79 0.77 0.74
0.07 0.07 0.06 0.06 0.06 0.06 0.07 0.09 0.11 0.13 0.16 0.20 0.19 0.17 0.18 0.21 0.21 0.20 0.18 0.17 0.18 0.22 0.22 0.21 0.22 0.22 0.20 0.19 0.22 0.26 0.29 0.31 0.40 0.55 0.72 0.83 0.92 0.91 0.84 0.80 0.79 0.72 0.70

GEFSMW_prec_meanprecacc_210.txt.gz
Total_Precipitation_Accumulation
0.37 0.33 0.29 0.30 0.28 0.26 0.24 0.28 0.34 0.36 0.38 0.45 0.55 0.65 0.75 0.93 1.14 1.20 1.27 1.41 1.43 1.44 1.57 1.68 1.71 1.64 1.56 1.62 1.79 2.16 2.04 1.69 1.53 1.57 1.42 1.27 1.21 1.29 1.27 1.36 1.45 1.38 1.31
0.27 0.24 0.23 0.22 0.21 0.18 0.17 0.22 0.31 0.39 0.44 0.50 0.64 0.78 1.02 1.14 1.28 1.43 1.42 1.45 1.51 1.54 1.60 1.82 1.93 1.86 1.85 1.95 1.99 2.23 2.38 2.10 1.90 1.91 2.06 1.83 1.61 1.28 1.05 1.14 1.23 1.26 1.31
0.23 0.18 0.17 0.18 0.17 0.15 0.18 0.23 0.36 0.56 0.75 0.85 1.08 1.34 1.59 1.68 1.61 1.61 1.66 1.64 1.66 1.73 1.71 1.82 2.02 1.99 1.95 2.01 2.20 2.49 2.78 2.69 2.42 2.23 2.38 2.13 1.86 1.70 1.21 0.98 1.05 1.16 1.29
0.28 0.22 0.21 0.20 0.18 0.20 0.29 0.45 0.67 0.97 1.22 1.36 1.54 1.75 1.86 1.89 1.83 1.85 1.83 1.81 1.72 1.66 1.66 1.79 1.99 2.14 2.22 2.28 2.34 2.35 2.69 2.92 2.75 2.61 2.31 2.02 1.87 1.97 1.74 1.25 1.02 1.09 1.16
0.31 0.31 0.33 0.34 0.38 0.47 0.65 0.94 1.19 1.43 1.59 1.64 1.72 1.91 2.06 2.21 2.23 2.12 1.97 1.85 1.82 1.75 1.67 1.72 1.79 1.83 1.93 2.06 2.17 2.25 2.48 2.65 2.78 2.75 2.56 2.30 2.14 1.72 1.70 1.70 1.46 1.20 0.99
0.39 0.46 0.59 0.70 0.81 0.90 1.08 1.28 1.42 1.56 1.56 1.57 1.62 1.74 1.92 2.08 2.11 2.13 2.09 1.96 1.83 1.73 1.63 1.58 1.67 1.69 1.70 1.84 1.95 2.05 2.30 2.47 2.59 2.65 2.55 2.44 2.38 2.13 1.87 1.70 1.66 1.50 1.19
0.50 0.68 0.83 0.97 1.08 1.18 1.27 1.29 1.29 1.33 1.35 1.37 1.40 1.47 1.53 1.56 1.63 1.73 1.65 1.52 1.41 1.36 1.36 1.28 1.33 1.45 1.51 1.70 1.77 1.71 1.77 1.96 2.18 2.35 2.37 2.35 2.27 2.23 2.16 2.01 1.84 1.61 1.27
0.75 0.87 0.98 1.07 1.11 1.23 1.28 1.22 1.19 1.18 1.11 1.06 1.10 1.12 1.15 1.20 1.23 1.24 1.19 1.11 1.07 1.04 1.01 1.00 1.01 1.08 1.16 1.38 1.60 1.58 1.59 1.67 1.77 1.86 2.10 2.21 2.16 2.18 2.01 1.89 1.92 1.72 1.45
1.02 1.19 1.19 1.09 1.00 1.05 1.12 1.09 1.04 0.98 0.90 0.84 0.87 0.90 0.96 0.98 0.96 0.93 0.88 0.86 0.80 0.80 0.78 0.80 0.90 0.95 0.94 1.04 1.18 1.36 1.44 1.51 1.59 1.61 1.77 1.87 1.94 1.91 1.77 1.79 1.86 1.75 1.49
1.10 1.37 1.50 1.37 1.10 0.92 0.94 0.90 0.86 0.88 0.85 0.81 0.83 0.83 0.75 0.68 0.68 0.70 0.65 0.63 0.67 0.71 0.71 0.68 0.70 0.77 0.79 0.88 0.99 1.05 1.16 1.23 1.39 1.56 1.70 1.73 1.77 1.79 1.70 1.68 1.81 1.80 1.58
1.29 1.43 1.47 1.34 1.15 0.88 0.80 0.78 0.75 0.78 0.82 0.75 0.77 0.77 0.67 0.54 0.50 0.49 0.46 0.46 0.50 0.56 0.57 0.59 0.66 0.66 0.67 0.69 0.71 0.77 0.83 0.90 1.00 1.07 1.21 1.42 1.60 1.66 1.66 1.71 1.78 1.82 1.68
0.96 0.97 1.08 1.08 1.01 0.87 0.80 0.85 0.88 0.88 0.80 0.72 0.67 0.64 0.57 0.49 0.48 0.44 0.40 0.42 0.46 0.49 0.50 0.55 0.59 0.58 0.64 0.66 0.67 0.67 0.69 0.79 0.87 0.87 0.88 0.99 1.21 1.38 1.52 1.60 1.63 1.69 1.68
0.70 0.64 0.74 0.88 0.82 0.76 0.79 0.87 1.01 1.00 0.91 0.78 0.67 0.63 0.59 0.55 0.52 0.46 0.44 0.43 0.50 0.60 0.63 0.62 0.65 0.62 0.64 0.64 0.65 0.69 0.70 0.73 0.78 0.81 0.83 0.89 0.98 1.15 1.25 1.35 1.46 1.54 1.67
0.55 0.49 0.49 0.52 0.52 0.53 0.56 0.69 0.95 1.13 1.09 0.97 0.83 0.73 0.67 0.61 0.54 0.48 0.46 0.43 0.47 0.53 0.56 0.64 0.72 0.79 0.84 0.82 0.79 0.78 0.76 0.71 0.73 0.79 0.86 0.88 0.89 1.02 1.23 1.35 1.42 1.46 1.57
0.36 0.31 0.29 0.31 0.32 0.37 0.44 0.53 0.82 1.02 1.02 1.00 0.86 0.72 0.61 0.53 0.50 0.53 0.54 0.48 0.44 0.46 0.47 0.55 0.64 0.74 0.82 0.87 0.88 0.74 0.63 0.64 0.69 0.69 0.71 0.78 0.85 0.88 1.03 1.20 1.43 1.45 1.57
0.30 0.29 0.26 0.23 0.20 0.20 0.26 0.35 0.54 0.71 0.77 0.82 0.78 0.62 0.55 0.49 0.44 0.47 0.53 0.53 0.43 0.40 0.42 0.46 0.45 0.47 0.51 0.68 0.69 0.57 0.47 0.52 0.62 0.69 0.71 0.71 0.72 0.75 0.79 0.83 1.07 1.27 1.39
0.33 0.34 0.33 0.29 0.26 0.23 0.23 0.25 0.31 0.40 0.48 0.52 0.53 0.44 0.41 0.48 0.48 0.48 0.48 0.43 0.36 0.38 0.39 0.34 0.31 0.33 0.37 0.42 0.41 0.47 0.47 0.50 0.54 0.62 0.72 0.76 0.74 0.80 0.89 0.85 0.88 0.97 1.04
0.35 0.32 0.29 0.27 0.25 0.22 0.21 0.21 0.22 0.25 0.28 0.27 0.25 0.21 0.28 0.39 0.39 0.35 0.33 0.30 0.30 0.34 0.41 0.35 0.33 0.37 0.35 0.36 0.41 0.45 0.45 0.58 0.64 0.64 0.64 0.75 0.82 0.87 1.03 1.01 1.08 1.01 0.91
0.16 0.14 0.12 0.11 0.11 0.11 0.11 0.11 0.08 0.09 0.10 0.09 0.09 0.10 0.11 0.12 0.13 0.11 0.13 0.18 0.24 0.29 0.26 0.30 0.45 0.45 0.42 0.50 0.47 0.39 0.45 0.57 0.65 0.61 0.64 0.75 0.85 1.01 1.11 1.14 1.17 1.06 0.97
0.04 0.06 0.08 0.09 0.08 0.08 0.08 0.07 0.07 0.07 0.07 0.07 0.08 0.08 0.07 0.08 0.07 0.07 0.08 0.11 0.15 0.20 0.21 0.25 0.38 0.45 0.48 0.50 0.37 0.35 0.44 0.57 0.65 0.66 0.67 0.89 0.89 0.97 1.02 1.07 1.19 1.21 1.08
0.04 0.06 0.07 0.07 0.07 0.07 0.07 0.07 0.06 0.08 0.10 0.10 0.09 0.07 0.07 0.08 0.11 0.13 0.11 0.11 0.11 0.12 0.16 0.21 0.26 0.26 0.27 0.27 0.28 0.32 0.36 0.43 0.55 0.63 0.67 0.64 0.76 0.78 0.88 0.99 1.07 1.28 1.17
0.05 0.07 0.07 0.07 0.07 0.08 0.07 0.08 0.07 0.09 0.12 0.11 0.10 0.09 0.09 0.09 0.11 0.17 0.17 0.15 0.14 0.12 0.12 0.17 0.23 0.22 0.19 0.17 0.19 0.22 0.26 0.33 0.39 0.47 0.58 0.57 0.65 0.70 0.76 0.78 0.95 1.13 1.10
0.05 0.07 0.08 0.09 0.09 0.09 0.10 0.09 0.10 0.11 0.12 0.12 0.11 0.11 0.12 0.12 0.12 0.13 0.16 0.17 0.15 0.14 0.14 0.16 0.19 0.21 0.22 0.20 0.22 0.24 0.27 0.30 0.30 0.32 0.47 0.53 0.61 0.59 0.58 0.70 0.89 0.95 0.99
0.05 0.05 0.06 0.09 0.12 0.13 0.14 0.14 0.15 0.16 0.15 0.15 0.15 0.13 0.14 0.15 0.15 0.15 0.17 0.19 0.20 0.20 0.20 0.21 0.23 0.25 0.26 0.22 0.22 0.27 0.30 0.31 0.29 0.31 0.45 0.57 0.63 0.60 0.59 0.66 0.79 0.84 0.97
0.08 0.06 0.06 0.07 0.10 0.13 0.15 0.16 0.17 0.19 0.20 0.20 0.19 0.19 0.18 0.19 0.20 0.20 0.21 0.20 0.22 0.25 0.24 0.26 0.29 0.27 0.25 0.23 0.24 0.27 0.31 0.32 0.33 0.41 0.56 0.69 0.70 0.70 0.67 0.70 0.80 0.77 0.75
0.07 0.07 0.07 0.07 0.07 0.08 0.08 0.10 0.12 0.15 0.17 0.21 0.22 0.19 0.21 0.23 0.23 0.22 0.20 0.19 0.20 0.24 0.24 0.23 0.25 0.26 0.24 0.22 0.25 0.29 0.32 0.33 0.42 0.58 0.75 0.86 0.94 0.94 0.87 0.82 0.80 0.72 0.70

GEFSMW_prec_meanprecacc_216.txt.gz
Total_Precipitation_Accumulation
0.38 0.33 0.30 0.32 0.30 0.27 0.25 0.29 0.35 0.38 0.39 0.46 0.57 0.67 0.77 0.95 1.15 1.21 1.28 1.42 1.44 1.44 1.57 1.69 1.73 1.66 1.58 1.64 1.81 2.17 2.06 1.70 1.54 1.59 1.45 1.29 1.26 1.35 1.33 1.44 1.53 1.44 1.37
0.29 0.24 0.25 0.26 0.23 0.21 0.20 0.24 0.33 0.42 0.47 0.52 0.66 0.80 1.03 1.14 1.29 1.44 1.43 1.45 1.51 1.54 1.61 1.83 1.96 1.88 1.87 1.97 2.01 2.25 2.40 2.12 1.92 1.94 2.11 1.87 1.65 1.31 1.08 1.18 1.29 1.33 1.38
0.27 0.19 0.19 0.22 0.20 0.18 0.20 0.25 0.38 0.59 0.78 0.86 1.08 1.35 1.61 1.68 1.62 1.62 1.67 1.65 1.67 1.74 1.71 1.83 2.03 2.01 1.97 2.03 2.22 2.52 2.81 2.72 2.44 2.25 2.42 2.18 1.90 1.72 1.22 1.00 1.06 1.19 1.34
0.33 0.24 0.23 0.22 0.20 0.22 0.30 0.47 0.69 0.99 1.23 1.37 1.55 1.76 1.87 1.91 1.84 1.85 1.84 1.82 1.73 1.66 1.66 1.79 2.00 2.14 2.23 2.30 2.37 2.37 2.72 2.96 2.79 2.63 2.33 2.04 1.88 1.99 1.76 1.29 1.04 1.11 1.18
0.36 0.33 0.34 0.35 0.39 0.48 0.67 0.96 1.21 1.44 1.60 1.65 1.73 1.91 2.06 2.22 2.24 2.13 1.98 1.86 1.83 1.76 1.67 1.73 1.80 1.84 1.94 2.07 2.19 2.27 2.50 2.68 2.82 2.78 2.58 2.31 2.15 1.73 1.72 1.75 1.48 1.21 1.00
0.42 0.48 0.60 0.71 0.82 0.91 1.08 1.29 1.43 1.57 1.57 1.57 1.62 1.75 1.93 2.09 2.12 2.14 2.12 1.98 1.85 1.74 1.64 1.59 1.67 1.69 1.70 1.85 1.96 2.07 2.31 2.49 2.60 2.66 2.56 2.45 2.40 2.14 1.89 1.71 1.68 1.52 1.20
0.51 0.69 0.84 0.97 1.09 1.18 1.27 1.30 1.30 1.34 1.36 1.37 1.41 1.47 1.54 1.58 1.64 1.75 1.68 1.55 1.44 1.38 1.37 1.28 1.33 1.46 1.52 1.70 1.78 1.72 1.78 1.97 2.19 2.36 2.38 2.37 2.28 2.24 2.18 2.02 1.85 1.63 1.28
0.76 0.88 0.98 1.07 1.11 1.23 1.28 1.23 1.20 1.19 1.12 1.06 1.11 1.12 1.16 1.21 1.23 1.25 1.21 1.13 1.09 1.06 1.03 1.02 1.02 1.09 1.17 1.39 1.61 1.59 1.60 1.67 1.78 1.86 2.10 2.21 2.16 2.19 2.01 1.90 1.94 1.74 1.47
1.02 1.19 1.19 1.09 1.00 1.05 1.12 1.09 1.05 1.00 0.91 0.85 0.88 0.91 0.96 0.98 0.96 0.94 0.88 0.87 0.81 0.81 0.79 0.82 0.90 0.96 0.95 1.04 1.18 1.37 1.44 1.51 1.59 1.61 1.77 1.88 1.95 1.92 1.77 1.80 1.88 1.77 1.51
1.10 1.37 1.50 1.37 1.10 0.92 0.95 0.90 0.87 0.89 0.87 0.82 0.84 0.84 0.76 0.69 0.68 0.71 0.65 0.64 0.69 0.72 0.72 0.69 0.71 0.78 0.80 0.88 0.99 1.05 1.16 1.24 1.40 1.57 1.70 1.73 1.77 1.80 1.70 1.69 1.83 1.81 1.59
1.30 1.43 1.47 1.34 1.16 0.88 0.81 0.79 0.76 0.78 0.84 0.77 0.79 0.80 0.68 0.55 0.50 0.49 0.47 0.46 0.50 0.57 0.57 0.59 0.66 0.67 0.69 0.70 0.72 0.77 0.83 0.90 1.00 1.07 1.21 1.42 1.61 1.67 1.66 1.72 1.78 1.83 1.69
0.97 0.98 1.08 1.09 1.01 0.88 0.80 0.85 0.89 0.89 0.81 0.73 0.71 0.69 0.60 0.51 0.49 0.45 0.41 0.42 0.47 0.50 0.50 0.55 0.59 0.58 0.64 0.67 0.67 0.67 0.69 0.79 0.88 0.88 0.89 1.00 1.23 1.40 1.53 1.61 1.63 1.71 1.70
0.71 0.64 0.74 0.89 0.82 0.76 0.79 0.87 1.01 1.01 0.93 0.80 0.71 0.68 0.62 0.59 0.54 0.47 0.44 0.43 0.50 0.61 0.64 0.63 0.66 0.63 0.65 0.64 0.66 0.69 0.71 0.73 0.79 0.82 0.83 0.90 1.00 1.17 1.26 1.36 1.47 1.56 1.68
0.55 0.49 0.49 0.53 0.52 0.53 0.56 0.69 0.96 1.14 1.11 1.00 0.85 0.75 0.69 0.64 0.56 0.50 0.48 0.45 0.48 0.54 0.57 0.65 0.72 0.80 0.85 0.83 0.79 0.78 0.77 0.72 0.73 0.79 0.87 0.89 0.90 1.03 1.24 1.36 1.44 1.47 1.58
0.36 0.31 0.30 0.31 0.33 0.37 0.44 0.54 0.82 1.03 1.04 1.02 0.88 0.74 0.63 0.55 0.52 0.54 0.55 0.50 0.45 0.46 0.47 0.56 0.65 0.74 0.83 0.88 0.89 0.75 0.64 0.65 0.69 0.70 0.71 0.79 0.86 0.89 1.04 1.20 1.44 1.46 1.58
0.30 0.29 0.26 0.24 0.21 0.21 0.27 0.35 0.54 0.71 0.79 0.85 0.80 0.64 0.57 0.51 0.45 0.47 0.53 0.54 0.44 0.42 0.44 0.47 0.45 0.48 0.52 0.70 0.71 0.59 0.49 0.53 0.62 0.69 0.71 0.71 0.73 0.75 0.80 0.83 1.08 1.28 1.40
0.33 0.35 0.33 0.30 0.26 0.23 0.23 0.25 0.31 0.41 0.49 0.54 0.55 0.45 0.42 0.50 0.49 0.49 0.49 0.44 0.37 0.39 0.41 0.35 0.31 0.33 0.37 0.43 0.42 0.48 0.49 0.50 0.54 0.63 0.72 0.77 0.75 0.80 0.89 0.86 0.89 0.98 1.05
0.35 0.32 0.30 0.27 0.25 0.22 0.21 0.22 0.22 0.25 0.29 0.28 0.26 0.22 0.29 0.40 0.40 0.36 0.33 0.30 0.30 0.35 0.42 0.36 0.33 0.37 0.35 0.37 0.41 0.45 0.46 0.59 0.65 0.64 0.64 0.75 0.82 0.89 1.05 1.03 1.08 1.01 0.91
0.16 0.14 0.12 0.11 0.11 0.11 0.11 0.11 0.08 0.09 0.10 0.10 0.10 0.11 0.12 0.13 0.13 0.12 0.14 0.19 0.25 0.30 0.27 0.31 0.45 0.45 0.42 0.50 0.47 0.40 0.46 0.59 0.66 0.61 0.64 0.76 0.86 1.03 1.14 1.16 1.17 1.07 0.97
0.04 0.06 0.08 0.09 0.08 0.08 0.08 0.07 0.07 0.07 0.07 0.08 0.09 0.09 0.09 0.09 0.08 0.08 0.09 0.12 0.16 0.21 0.23 0.26 0.39 0.46 0.49 0.50 0.38 0.35 0.46 0.59 0.67 0.67 0.67 0.89 0.90 0.98 1.03 1.08 1.20 1.22 1.09
0.04 0.06 0.07 0.07 0.08 0.07 0.07 0.07 0.06 0.08 0.11 0.11 0.10 0.08 0.08 0.09 0.12 0.14 0.12 0.13 0.13 0.13 0.17 0.23 0.27 0.28 0.29 0.29 0.29 0.32 0.37 0.46 0.57 0.64 0.67 0.65 0.77 0.79 0.89 1.00 1.08 1.29 1.17
0.05 0.07 0.07 0.07 0.08 0.08 0.08 0.08 0.07 0.09 0.12 0.12 0.11 0.10 0.11 0.11 0.12 0.18 0.19 0.18 0.18 0.15 0.16 0.21 0.27 0.26 0.22 0.19 0.21 0.23 0.27 0.35 0.41 0.48 0.59 0.58 0.66 0.70 0.77 0.79 0.96 1.14 1.10
0.05 0.07 0.08 0.09 0.09 0.09 0.10 0.10 0.10 0.12 0.13 0.13 0.12 0.12 0.13 0.14 0.14 0.15 0.17 0.20 0.20 0.20 0.20 0.21 0.23 0.24 0.25 0.23 0.25 0.26 0.29 0.32 0.31 0.33 0.48 0.55 0.62 0.60 0.59 0.71 0.90 0.96 1.00
0.05 0.05 0.06 0.09 0.12 0.14 0.14 0.15 0.16 0.17 0.17 0.16 0.15 0.14 0.15 0.17 0.17 0.18 0.20 0.22 0.25 0.25 0.24 0.24 0.26 0.28 0.28 0.24 0.24 0.28 0.32 0.32 0.30 0.32 0.46 0.58 0.64 0.62 0.60 0.67 0.80 0.85 0.98
0.08 0.06 0.06 0.07 0.10 0.13 0.15 0.17 0.18 0.20 0.21 0.21 0.21 0.20 0.20 0.21 0.22 0.23 0.24 0.23 0.25 0.28 0.27 0.28 0.30 0.29 0.27 0.25 0.27 0.30 0.33 0.34 0.34 0.42 0.58 0.71 0.72 0.72 0.69 0.73 0.82 0.80 0.77
0.07 0.07 0.07 0.07 0.07 0.08 0.09 0.11 0.13 0.16 0.19 0.23 0.23 0.21 0.24 0.26 0.26 0.25 0.22 0.23 0.24 0.28 0.27 0.26 0.28 0.29 0.26 0.25 0.28 0.33 0.36 0.35 0.44 0.60 0.77 0.89 0.97 0.97 0.90 0.86 0.84 0.77 0.74

GEFSMW_prec_meanprecacc_222.txt.gz
Total_Precipitation_Accumulation
0.42 0.36 0.32 0.35 0.33 0.29 0.26 0.29 0.36 0.40 0.41 0.48 0.59 0.69 0.79 0.97 1.18 1.23 1.30 1.45 1.45 1.46 1.58 1.70 1.74 1.67 1.59 1.65 1.82 2.18 2.07 1.71 1.55 1.60 1.47 1.31 1.27 1.36 1.36 1.49 1.57 1.47 1.39
0.34 0.28 0.27 0.28 0.26 0.24 0.22 0.25 0.34 0.44 0.49 0.53 0.66 0.81 1.03 1.15 1.31 1.47 1.46 1.49 1.53 1.57 1.63 1.84 1.96 1.90 1.88 1.97 2.01 2.26 2.41 2.13 1.94 1.96 2.13 1.89 1.66 1.32 1.10 1.20 1.32 1.37 1.40
0.30 0.22 0.22 0.26 0.23 0.22 0.24 0.27 0.40 0.60 0.79 0.87 1.09 1.36 1.62 1.69 1.63 1.64 1.70 1.68 1.70 1.76 1.72 1.84 2.03 2.02 1.99 2.03 2.22 2.53 2.83 2.73 2.47 2.28 2.44 2.20 1.91 1.74 1.25 1.03 1.09 1.23 1.36
0.37 0.28 0.26 0.28 0.25 0.26 0.34 0.50 0.72 1.01 1.25 1.38 1.56 1.77 1.88 1.92 1.85 1.87 1.86 1.84 1.75 1.67 1.67 1.80 2.00 2.15 2.24 2.31 2.38 2.38 2.73 2.97 2.81 2.65 2.34 2.04 1.89 2.00 1.78 1.32 1.06 1.12 1.20
0.40 0.40 0.39 0.43 0.44 0.53 0.71 1.00 1.25 1.47 1.61 1.66 1.74 1.92 2.07 2.23 2.25 2.15 2.00 1.88 1.84 1.77 1.68 1.73 1.80 1.85 1.94 2.09 2.21 2.28 2.51 2.69 2.83 2.79 2.58 2.31 2.15 1.74 1.73 1.76 1.50 1.22 1.01
0.44 0.52 0.65 0.76 0.86 0.95 1.12 1.33 1.46 1.60 1.60 1.59 1.63 1.75 1.93 2.10 2.14 2.16 2.13 1.99 1.86 1.75 1.65 1.59 1.68 1.70 1.71 1.86 1.98 2.08 2.32 2.50 2.61 2.66 2.56 2.45 2.40 2.14 1.89 1.71 1.68 1.53 1.21
0.52 0.71 0.87 1.00 1.12 1.22 1.31 1.33 1.31 1.36 1.41 1.40 1.42 1.48 1.55 1.59 1.65 1.76 1.69 1.56 1.45 1.39 1.37 1.29 1.34 1.47 1.52 1.71 1.79 1.73 1.79 1.98 2.19 2.36 2.39 2.37 2.28 2.25 2.18 2.02 1.85 1.63 1.29
0.78 0.90 1.00 1.10 1.13 1.26 1.30 1.24 1.21 1.20 1.14 1.10 1.13 1.13 1.17 1.22 1.25 1.26 1.22 1.14 1.10 1.07 1.04 1.03 1.04 1.11 1.18 1.40 1.62 1.60 1.61 1.68 1.78 1.87 2.11 2.22 2.17 2.20 2.02 1.91 1.94 1.74 1.47
1.04 1.21 1.20 1.10 1.03 1.08 1.14 1.11 1.06 1.00 0.93 0.87 0.91 0.92 0.98 1.00 0.97 0.95 0.90 0.89 0.83 0.82 0.80 0.83 0.93 0.99 0.97 1.06 1.21 1.39 1.46 1.52 1.60 1.61 1.77 1.88 1.95 1.92 1.78 1.81 1.89 1.78 1.52
1.11 1.38 1.51 1.38 1.11 0.94 0.97 0.93 0.89 0.91 0.89 0.84 0.87 0.86 0.78 0.71 0.70 0.73 0.67 0.66 0.71 0.74 0.74 0.71 0.73 0.80 0.82 0.91 1.02 1.07 1.18 1.25 1.40 1.57 1.71 1.73 1.77 1.80 1.71 1.70 1.83 1.82 1.60
1.30 1.44 1.48 1.34 1.16 0.89 0.83 0.81 0.78 0.81 0.85 0.79 0.82 0.83 0.72 0.58 0.54 0.52 0.49 0.50 0.53 0.58 0.59 0.61 0.68 0.69 0.72 0.73 0.74 0.79 0.84 0.91 1.01 1.08 1.22 1.43 1.62 1.67 1.67 1.73 1.79 1.84 1.70
0.97 0.98 1.08 1.09 1.02 0.88 0.81 0.86 0.90 0.90 0.82 0.75 0.74 0.74 0.65 0.55 0.56 0.51 0.43 0.46 0.50 0.52 0.53 0.58 0.61 0.61 0.67 0.70 0.69 0.68 0.70 0.80 0.88 0.89 0.90 1.01 1.24 1.41 1.54 1.62 1.64 1.72 1.70
0.71 0.64 0.75 0.89 0.83 0.77 0.80 0.88 1.02 1.02 0.94 0.82 0.73 0.72 0.68 0.64 0.65 0.55 0.47 0.46 0.53 0.63 0.65 0.66 0.68 0.64 0.67 0.67 0.67 0.70 0.72 0.74 0.80 0.83 0.85 0.91 1.01 1.18 1.27 1.38 1.49 1.57 1.68
0.56 0.50 0.49 0.53 0.53 0.54 0.57 0.70 0.96 1.15 1.12 1.01 0.88 0.79 0.73 0.70 0.65 0.55 0.51 0.47 0.49 0.55 0.58 0.67 0.74 0.81 0.86 0.84 0.80 0.79 0.78 0.73 0.74 0.81 0.88 0.90 0.91 1.04 1.26 1.38 1.45 1.49 1.59
0.37 0.32 0.31 0.32 0.34 0.38 0.45 0.55 0.83 1.04 1.06 1.05 0.91 0.77 0.67 0.60 0.56 0.58 0.58 0.51 0.46 0.47 0.48 0.56 0.66 0.76 0.85 0.90 0.90 0.76 0.65 0.65 0.70 0.71 0.72 0.80 0.87 0.90 1.05 1.22 1.45 1.48 1.60
0.30 0.30 0.27 0.25 0.22 0.21 0.28 0.36 0.55 0.73 0.81 0.87 0.82 0.66 0.61 0.55 0.49 0.50 0.56 0.56 0.45 0.43 0.44 0.48 0.46 0.49 0.54 0.71 0.72 0.60 0.50 0.54 0.63 0.70 0.72 0.72 0.73 0.76 0.80 0.84 1.09 1.28 1.41
0.33 0.35 0.33 0.30 0.27 0.24 0.24 0.26 0.32 0.42 0.50 0.55 0.57 0.46 0.44 0.52 0.52 0.52 0.52 0.46 0.38 0.41 0.42 0.36 0.32 0.34 0.39 0.44 0.43 0.49 0.50 0.51 0.55 0.63 0.73 0.77 0.76 0.81 0.90 0.86 0.90 0.99 1.07
0.35 0.33 0.30 0.27 0.25 0.22 0.22 0.23 0.23 0.26 0.29 0.28 0.26 0.22 0.29 0.40 0.42 0.38 0.36 0.32 0.32 0.37 0.44 0.36 0.34 0.38 0.36 0.38 0.42 0.46 0.47 0.60 0.65 0.65 0.65 0.76 0.83 0.89 1.05 1.03 1.09 1.02 0.93
0.16 0.14 0.12 0.11 0.11 0.11 0.12 0.11 0.09 0.10 0.10 0.10 0.10 0.12 0.12 0.14 0.14 0.13 0.16 0.21 0.27 0.32 0.29 0.32 0.46 0.46 0.43 0.51 0.48 0.41 0.47 0.60 0.67 0.62 0.65 0.76 0.86 1.03 1.14 1.16 1.17 1.07 0.97
0.04 0.06 0.08 0.09 0.08 0.08 0.08 0.07 0.07 0.07 0.08 0.08 0.10 0.10 0.10 0.10 0.10 0.10 0.10 0.14 0.18 0.23 0.24 0.28 0.41 0.46 0.50 0.51 0.39 0.37 0.47 0.60 0.68 0.68 0.67 0.89 0.90 0.98 1.03 1.08 1.20 1.22 1.09
0.04 0.06 0.07 0.08 0.08 0.07 0.08 0.07 0.07 0.08 0.12 0.12 0.11 0.09 0.10 0.11 0.13 0.16 0.14 0.14 0.14 0.15 0.19 0.24 0.29 0.29 0.29 0.30 0.30 0.33 0.39 0.47 0.59 0.64 0.67 0.65 0.78 0.79 0.89 1.01 1.08 1.29 1.18
0.05 0.07 0.08 0.07 0.08 0.09 0.09 0.09 0.08 0.10 0.13 0.12 0.12 0.11 0.12 0.13 0.13 0.19 0.20 0.19 0.20 0.17 0.18 0.23 0.30 0.29 0.24 0.21 0.23 0.25 0.30 0.38 0.43 0.49 0.59 0.59 0.67 0.71 0.78 0.80 0.97 1.15 1.11
0.05 0.07 0.09 0.10 0.10 0.10 0.11 0.10 0.11 0.12 0.13 0.13 0.12 0.13 0.14 0.15 0.15 0.16 0.19 0.21 0.22 0.23 0.24 0.25 0.28 0.28 0.29 0.27 0.29 0.31 0.33 0.35 0.33 0.34 0.49 0.56 0.63 0.61 0.60 0.73 0.92 0.97 1.01
0.05 0.05 0.06 0.09 0.13 0.14 0.15 0.16 0.17 0.18 0.17 0.16 0.16 0.15 0.16 0.18 0.18 0.20 0.22 0.24 0.27 0.28 0.28 0.28 0.31 0.33 0.34 0.29 0.28 0.32 0.35 0.33 0.32 0.33 0.47 0.60 0.65 0.63 0.61 0.69 0.81 0.87 0.99
0.09 0.06 0.06 0.07 0.10 0.14 0.16 0.19 0.19 0.20 0.22 0.21 0.21 0.21 0.21 0.21 0.23 0.25 0.27 0.27 0.28 0.30 0.29 0.30 0.33 0.32 0.29 0.28 0.31 0.33 0.36 0.36 0.36 0.45 0.60 0.72 0.74 0.74 0.71 0.74 0.84 0.81 0.79
0.07 0.07 0.08 0.07 0.08 0.09 0.10 0.12 0.14 0.16 0.19 0.23 0.24 0.22 0.25 0.28 0.28 0.27 0.24 0.25 0.27 0.30 0.29 0.28 0.31 0.31 0.29 0.28 0.32 0.37 0.39 0.38 0.47 0.63 0.80 0.90 0.98 0.98 0.91 0.88 0.86 0.79 0.77

GEFSMW_prec_meanprecacc_228.txt.gz
Total_Precipitation_Accumulation
0.44 0.38 0.34 0.39 0.36 0.32 0.29 0.31 0.38 0.41 0.42 0.49 0.60 0.70 0.79 0.97 1.18 1.24 1.31 1.46 1.47 1.48 1.60 1.71 1.75 1.68 1.60 1.67 1.84 2.20 2.08 1.72 1.56 1.61 1.48 1.33 1.30 1.38 1.37 1.50 1.58 1.49 1.42
0.36 0.31 0.29 0.30 0.29 0.28 0.25 0.27 0.36 0.46 0.50 0.54 0.67 0.82 1.05 1.16 1.32 1.48 1.46 1.50 1.55 1.59 1.65 1.85 1.97 1.90 1.89 1.98 2.02 2.27 2.42 2.13 1.94 1.98 2.14 1.90 1.68 1.36 1.13 1.22 1.35 1.40 1.43
0.31 0.24 0.25 0.27 0.25 0.25 0.28 0.29 0.41 0.63 0.81 0.89 1.10 1.38 1.63 1.70 1.64 1.64 1.70 1.68 1.71 1.78 1.75 1.85 2.04 2.03 2.00 2.04 2.23 2.54 2.84 2.74 2.47 2.29 2.45 2.20 1.93 1.79 1.29 1.06 1.13 1.27 1.40
0.38 0.29 0.27 0.29 0.26 0.27 0.36 0.52 0.74 1.03 1.27 1.39 1.56 1.78 1.89 1.92 1.86 1.88 1.87 1.85 1.76 1.69 1.69 1.81 2.01 2.16 2.26 2.34 2.40 2.40 2.75 2.99 2.82 2.66 2.35 2.05 1.90 2.02 1.83 1.36 1.11 1.17 1.24
0.41 0.41 0.40 0.45 0.45 0.54 0.73 1.02 1.27 1.48 1.62 1.67 1.74 1.93 2.07 2.23 2.26 2.15 2.01 1.90 1.86 1.79 1.69 1.74 1.81 1.86 1.96 2.10 2.24 2.30 2.53 2.71 2.85 2.81 2.60 2.32 2.16 1.74 1.75 1.80 1.55 1.27 1.05
0.46 0.56 0.67 0.79 0.89 0.98 1.16 1.36 1.48 1.61 1.60 1.60 1.64 1.76 1.94 2.11 2.14 2.17 2.14 2.00 1.88 1.77 1.66 1.61 1.69 1.72 1.73 1.87 1.99 2.09 2.34 2.52 2.63 2.69 2.58 2.47 2.41 2.15 1.90 1.72 1.69 1.54 1.23
0.54 0.74 0.89 1.04 1.15 1.25 1.35 1.37 1.34 1.38 1.41 1.40 1.42 1.48 1.55 1.59 1.65 1.76 1.70 1.57 1.46 1.41 1.39 1.30 1.36 1.50 1.54 1.73 1.80 1.75 1.81 1.99 2.20 2.37 2.40 2.39 2.30 2.26 2.19 2.03 1.85 1.63 1.29
0.81 0.93 1.02 1.13 1.17 1.29 1.34 1.28 1.23 1.22 1.15 1.10 1.13 1.13 1.17 1.22 1.25 1.27 1.22 1.15 1.11 1.08 1.05 1.04 1.05 1.13 1.20 1.42 1.64 1.63 1.63 1.70 1.79 1.88 2.12 2.24 2.18 2.21 2.03 1.92 1.94 1.75 1.47
1.06 1.23 1.22 1.13 1.06 1.11 1.18 1.14 1.08 1.01 0.93 0.87 0.91 0.93 0.99 1.01 0.98 0.95 0.90 0.90 0.83 0.83 0.81 0.85 0.94 1.00 0.99 1.09 1.24 1.42 1.49 1.55 1.62 1.63 1.78 1.89 1.96 1.93 1.79 1.82 1.89 1.78 1.52
1.12 1.39 1.52 1.40 1.13 0.97 0.99 0.94 0.91 0.92 0.89 0.85 0.87 0.86 0.79 0.72 0.71 0.73 0.67 0.67 0.72 0.75 0.75 0.72 0.73 0.81 0.84 0.93 1.05 1.10 1.21 1.29 1.44 1.60 1.74 1.75 1.78 1.81 1.72 1.71 1.84 1.82 1.61
1.31 1.45 1.48 1.35 1.18 0.91 0.84 0.82 0.79 0.82 0.86 0.80 0.83 0.84 0.73 0.60 0.56 0.53 0.49 0.51 0.54 0.59 0.59 0.62 0.68 0.70 0.73 0.75 0.76 0.80 0.87 0.94 1.04 1.11 1.25 1.46 1.64 1.69 1.69 1.74 1.80 1.84 1.70
0.98 0.98 1.08 1.09 1.02 0.90 0.83 0.88 0.91 0.91 0.83 0.76 0.75 0.75 0.67 0.57 0.58 0.52 0.44 0.47 0.52 0.54 0.54 0.58 0.62 0.62 0.68 0.71 0.70 0.69 0.72 0.82 0.91 0.92 0.93 1.03 1.27 1.44 1.56 1.63 1.65 1.72 1.70
0.72 0.64 0.75 0.89 0.84 0.78 0.81 0.89 1.03 1.04 0.95 0.83 0.74 0.74 0.69 0.67 0.69 0.58 0.49 0.48 0.55 0.66 0.67 0.67 0.69 0.65 0.68 0.68 0.68 0.71 0.73 0.75 0.82 0.85 0.86 0.92 1.02 1.19 1.28 1.38 1.49 1.57 1.68
0.56 0.50 0.50 0.54 0.54 0.55 0.58 0.71 0.97 1.17 1.13 1.02 0.89 0.81 0.75 0.74 0.72 0.60 0.54 0.50 0.54 0.59 0.59 0.67 0.74 0.82 0.87 0.85 0.81 0.79 0.78 0.73 0.75 0.82 0.89 0.91 0.92 1.05 1.26 1.38 1.45 1.49 1.60
0.37 0.32 0.31 0.33 0.34 0.39 0.46 0.56 0.85 1.06 1.07 1.06 0.93 0.80 0.70 0.65 0.62 0.61 0.62 0.56 0.51 0.50 0.49 0.57 0.66 0.76 0.85 0.90 0.90 0.76 0.65 0.66 0.71 0.71 0.72 0.80 0.87 0.91 1.06 1.22 1.46 1.48 1.60
0.30 0.30 0.28 0.25 0.22 0.22 0.28 0.37 0.56 0.74 0.83 0.88 0.84 0.70 0.66 0.58 0.51 0.56 0.64 0.62 0.50 0.45 0.46 0.49 0.46 0.49 0.54 0.72 0.72 0.60 0.50 0.54 0.63 0.70 0.72 0.72 0.74 0.77 0.81 0.84 1.09 1.29 1.42
0.33 0.35 0.33 0.30 0.27 0.24 0.25 0.27 0.33 0.43 0.51 0.56 0.58 0.47 0.46 0.55 0.57 0.59 0.58 0.51 0.41 0.42 0.43 0.38 0.32 0.34 0.39 0.45 0.44 0.49 0.50 0.52 0.56 0.64 0.73 0.78 0.76 0.82 0.90 0.87 0.90 1.00 1.07
0.35 0.33 0.30 0.27 0.25 0.22 0.22 0.23 0.24 0.27 0.30 0.29 0.27 0.23 0.30 0.42 0.44 0.41 0.39 0.34 0.34 0.39 0.45 0.38 0.35 0.39 0.36 0.38 0.42 0.46 0.47 0.60 0.66 0.65 0.65 0.77 0.83 0.90 1.06 1.04 1.09 1.02 0.93
0.16 0.14 0.12 0.11 0.11 0.11 0.12 0.11 0.09 0.10 0.11 0.11 0.11 0.12 0.13 0.15 0.16 0.14 0.17 0.23 0.29 0.34 0.31 0.33 0.48 0.47 0.44 0.52 0.48 0.41 0.47 0.60 0.68 0.63 0.65 0.77 0.87 1.04 1.15 1.17 1.18 1.07 0.98
0.04 0.06 0.08 0.09 0.08 0.08 0.09 0.07 0.07 0.08 0.08 0.09 0.10 0.11 0.10 0.11 0.10 0.11 0.12 0.15 0.19 0.25 0.26 0.29 0.42 0.47 0.51 0.53 0.41 0.38 0.48 0.61 0.69 0.69 0.68 0.90 0.91 1.00 1.05 1.10 1.22 1.23 1.10
0.04 0.06 0.07 0.08 0.08 0.07 0.08 0.07 0.07 0.08 0.12 0.12 0.11 0.10 0.10 0.12 0.15 0.18 0.16 0.17 0.16 0.18 0.20 0.24 0.29 0.30 0.30 0.31 0.32 0.35 0.40 0.50 0.61 0.66 0.69 0.67 0.80 0.81 0.91 1.02 1.09 1.31 1.19
0.05 0.07 0.08 0.07 0.08 0.09 0.09 0.09 0.08 0.10 0.13 0.13 0.12 0.11 0.13 0.14 0.16 0.22 0.23 0.22 0.21 0.19 0.19 0.24 0.30 0.30 0.26 0.22 0.24 0.27 0.32 0.41 0.46 0.51 0.61 0.60 0.69 0.73 0.79 0.81 0.98 1.16 1.12
0.05 0.07 0.09 0.10 0.10 0.10 0.11 0.11 0.11 0.13 0.14 0.13 0.13 0.14 0.15 0.17 0.17 0.19 0.20 0.23 0.23 0.24 0.24 0.26 0.29 0.29 0.30 0.28 0.30 0.32 0.35 0.38 0.36 0.36 0.51 0.57 0.65 0.63 0.62 0.74 0.93 0.98 1.02
0.05 0.05 0.06 0.09 0.13 0.15 0.15 0.17 0.18 0.19 0.18 0.17 0.16 0.16 0.17 0.20 0.22 0.23 0.24 0.26 0.29 0.29 0.29 0.29 0.31 0.34 0.34 0.30 0.29 0.33 0.36 0.35 0.33 0.35 0.49 0.61 0.67 0.64 0.63 0.70 0.82 0.88 1.01
0.09 0.06 0.06 0.07 0.10 0.14 0.16 0.19 0.20 0.21 0.22 0.22 0.22 0.21 0.21 0.22 0.25 0.27 0.29 0.29 0.30 0.32 0.31 0.31 0.33 0.32 0.30 0.29 0.32 0.35 0.37 0.37 0.38 0.46 0.61 0.73 0.75 0.75 0.72 0.76 0.85 0.83 0.81
0.07 0.07 0.08 0.07 0.08 0.09 0.10 0.13 0.15 0.17 0.19 0.24 0.24 0.22 0.25 0.29 0.29 0.28 0.25 0.27 0.29 0.31 0.30 0.29 0.32 0.32 0.30 0.30 0.33 0.38 0.41 0.40 0.49 0.65 0.81 0.91 0.99 0.99 0.93 0.89 0.88 0.81 0.79

GEFSMW_prec_meanprecacc_234.txt.gz
Total_Precipitation_Accumulation
0.45 0.39 0.35 0.42 0.40 0.34 0.30 0.34 0.40 0.43 0.43 0.50 0.61 0.71 0.80 0.98 1.19 1.24 1.32 1.46 1.47 1.49 1.62 1.73 1.77 1.70 1.62 1.70 1.88 2.25 2.12 1.75 1.59 1.63 1.49 1.33 1.32 1.40 1.38 1.51 1.60 1.51 1.44
0.36 0.31 0.30 0.33 0.33 0.29 0.27 0.29 0.38 0.47 0.51 0.54 0.68 0.83 1.05 1.16 1.32 1.48 1.47 1.50 1.55 1.59 1.67 1.87 1.99 1.92 1.91 2.00 2.05 2.31 2.46 2.16 1.97 2.00 2.17 1.92 1.71 1.38 1.14 1.24 1.37 1.43 1.46
0.31 0.24 0.26 0.28 0.28 0.27 0.30 0.31 0.42 0.63 0.81 0.89 1.10 1.39 1.64 1.71 1.64 1.65 1.70 1.69 1.71 1.78 1.75 1.86 2.05 2.04 2.02 2.06 2.25 2.57 2.88 2.78 2.50 2.31 2.48 2.23 1.96 1.84 1.34 1.10 1.16 1.30 1.42
0.38 0.29 0.27 0.30 0.28 0.30 0.40 0.55 0.75 1.04 1.27 1.40 1.57 1.79 1.90 1.93 1.86 1.88 1.88 1.86 1.76 1.69 1.69 1.82 2.01 2.16 2.27 2.35 2.41 2.42 2.78 3.04 2.85 2.69 2.37 2.06 1.93 2.08 1.91 1.44 1.15 1.20 1.26
0.41 0.42 0.41 0.45 0.47 0.56 0.75 1.05 1.29 1.49 1.63 1.68 1.75 1.93 2.07 2.23 2.26 2.15 2.01 1.90 1.86 1.79 1.70 1.74 1.82 1.87 1.97 2.11 2.24 2.31 2.55 2.73 2.87 2.83 2.62 2.34 2.19 1.80 1.82 1.88 1.61 1.31 1.09
0.46 0.56 0.67 0.79 0.89 0.99 1.17 1.37 1.49 1.62 1.61 1.61 1.65 1.76 1.94 2.11 2.14 2.17 2.14 2.01 1.88 1.77 1.66 1.61 1.70 1.72 1.73 1.88 2.00 2.10 2.36 2.53 2.66 2.72 2.61 2.50 2.45 2.19 1.95 1.78 1.75 1.58 1.26
0.55 0.75 0.89 1.05 1.16 1.26 1.36 1.38 1.35 1.38 1.42 1.41 1.42 1.49 1.55 1.59 1.65 1.77 1.71 1.57 1.46 1.41 1.39 1.31 1.36 1.50 1.55 1.73 1.82 1.76 1.82 2.00 2.23 2.40 2.44 2.43 2.33 2.30 2.23 2.06 1.87 1.64 1.31
0.81 0.93 1.03 1.14 1.18 1.30 1.35 1.30 1.25 1.22 1.15 1.11 1.14 1.14 1.17 1.22 1.25 1.27 1.22 1.15 1.11 1.08 1.05 1.04 1.06 1.13 1.20 1.43 1.66 1.64 1.65 1.71 1.81 1.90 2.16 2.29 2.23 2.25 2.06 1.94 1.97 1.76 1.48
1.07 1.24 1.23 1.14 1.07 1.12 1.19 1.16 1.09 1.03 0.94 0.88 0.91 0.93 0.99 1.01 0.98 0.96 0.90 0.90 0.84 0.84 0.82 0.85 0.95 1.01 0.99 1.10 1.25 1.43 1.49 1.56 1.63 1.65 1.82 1.94 2.04 2.01 1.83 1.85 1.92 1.80 1.53
1.14 1.41 1.53 1.41 1.14 0.97 1.00 0.96 0.92 0.93 0.90 0.86 0.88 0.87 0.79 0.72 0.72 0.74 0.68 0.67 0.72 0.75 0.75 0.72 0.74 0.82 0.85 0.95 1.07 1.12 1.22 1.30 1.46 1.63 1.77 1.79 1.83 1.88 1.77 1.74 1.86 1.84 1.63
1.33 1.47 1.49 1.36 1.18 0.91 0.85 0.83 0.80 0.83 0.87 0.80 0.84 0.85 0.74 0.60 0.56 0.53 0.50 0.51 0.54 0.59 0.60 0.62 0.69 0.72 0.75 0.77 0.77 0.82 0.89 0.96 1.06 1.15 1.29 1.49 1.67 1.75 1.75 1.78 1.83 1.87 1.74
0.99 0.99 1.09 1.10 1.03 0.90 0.83 0.88 0.92 0.92 0.83 0.76 0.76 0.77 0.70 0.59 0.59 0.53 0.45 0.47 0.52 0.54 0.54 0.59 0.62 0.63 0.69 0.72 0.71 0.70 0.73 0.83 0.92 0.94 0.96 1.07 1.30 1.47 1.60 1.66 1.68 1.75 1.73
0.72 0.65 0.75 0.90 0.84 0.78 0.81 0.90 1.04 1.04 0.96 0.84 0.76 0.77 0.72 0.69 0.71 0.60 0.50 0.49 0.56 0.67 0.67 0.67 0.69 0.66 0.69 0.69 0.69 0.72 0.74 0.76 0.83 0.86 0.88 0.96 1.07 1.24 1.32 1.40 1.50 1.58 1.69
0.56 0.51 0.50 0.54 0.54 0.55 0.58 0.71 0.97 1.17 1.14 1.04 0.92 0.85 0.79 0.77 0.74 0.62 0.54 0.50 0.55 0.59 0.60 0.68 0.75 0.83 0.88 0.86 0.81 0.81 0.79 0.74 0.76 0.83 0.90 0.93 0.96 1.12 1.32 1.41 1.47 1.50 1.60
0.38 0.32 0.31 0.33 0.34 0.39 0.46 0.56 0.85 1.06 1.08 1.08 0.95 0.84 0.75 0.68 0.64 0.63 0.63 0.57 0.52 0.51 0.51 0.58 0.67 0.77 0.87 0.91 0.91 0.78 0.66 0.67 0.72 0.72 0.73 0.81 0.89 0.96 1.12 1.26 1.48 1.50 1.61
0.31 0.30 0.28 0.25 0.22 0.22 0.28 0.37 0.56 0.74 0.83 0.89 0.86 0.73 0.70 0.62 0.54 0.57 0.65 0.64 0.51 0.46 0.47 0.51 0.48 0.51 0.55 0.73 0.73 0.62 0.51 0.55 0.64 0.70 0.73 0.73 0.75 0.79 0.84 0.87 1.12 1.31 1.43
0.33 0.35 0.34 0.30 0.27 0.24 0.25 0.27 0.33 0.43 0.52 0.57 0.59 0.50 0.50 0.59 0.61 0.62 0.61 0.54 0.44 0.44 0.44 0.39 0.34 0.35 0.40 0.46 0.44 0.50 0.51 0.52 0.56 0.64 0.73 0.78 0.77 0.83 0.92 0.88 0.92 1.02 1.09
0.36 0.33 0.30 0.27 0.25 0.22 0.22 0.24 0.24 0.27 0.30 0.30 0.28 0.25 0.33 0.47 0.49 0.45 0.42 0.36 0.36 0.41 0.46 0.39 0.36 0.40 0.38 0.40 0.43 0.47 0.48 0.61 0.66 0.66 0.66 0.77 0.84 0.91 1.08 1.05 1.10 1.03 0.94
0.16 0.14 0.12 0.12 0.11 0.11 0.12 0.12 0.09 0.11 0.12 0.11 0.11 0.14 0.15 0.18 0.19 0.17 0.18 0.24 0.30 0.35 0.32 0.35 0.49 0.48 0.46 0.53 0.49 0.42 0.48 0.61 0.69 0.63 0.66 0.78 0.88 1.05 1.16 1.18 1.19 1.08 0.99
0.04 0.06 0.08 0.09 0.08 0.08 0.09 0.07 0.07 0.08 0.08 0.10 0.10 0.11 0.12 0.13 0.13 0.13 0.14 0.17 0.20 0.26 0.28 0.31 0.43 0.48 0.52 0.55 0.42 0.39 0.48 0.61 0.69 0.69 0.69 0.91 0.92 1.01 1.06 1.11 1.23 1.25 1.11
0.05 0.06 0.07 0.08 0.08 0.08 0.08 0.07 0.07 0.08 0.12 0.13 0.12 0.10 0.11 0.13 0.18 0.22 0.20 0.19 0.18 0.19 0.22 0.26 0.30 0.31 0.32 0.33 0.33 0.36 0.40 0.50 0.61 0.66 0.69 0.67 0.81 0.82 0.92 1.03 1.10 1.32 1.21
0.06 0.07 0.08 0.07 0.08 0.09 0.09 0.09 0.08 0.10 0.13 0.13 0.12 0.12 0.13 0.15 0.17 0.25 0.26 0.23 0.23 0.20 0.20 0.25 0.32 0.31 0.26 0.23 0.24 0.27 0.32 0.42 0.46 0.52 0.61 0.61 0.70 0.73 0.80 0.82 0.99 1.17 1.14
0.05 0.07 0.09 0.10 0.10 0.10 0.11 0.11 0.11 0.13 0.14 0.13 0.13 0.14 0.15 0.17 0.18 0.20 0.23 0.25 0.24 0.25 0.26 0.27 0.30 0.30 0.31 0.29 0.30 0.32 0.35 0.38 0.37 0.36 0.51 0.58 0.66 0.63 0.62 0.75 0.94 1.00 1.03
0.05 0.05 0.06 0.09 0.13 0.15 0.15 0.17 0.18 0.19 0.18 0.17 0.16 0.16 0.17 0.20 0.22 0.25 0.26 0.28 0.30 0.30 0.30 0.31 0.33 0.35 0.35 0.31 0.30 0.33 0.36 0.36 0.34 0.36 0.50 0.62 0.68 0.66 0.63 0.70 0.83 0.88 1.02
0.09 0.06 0.06 0.07 0.10 0.14 0.16 0.19 0.20 0.21 0.22 0.22 0.22 0.21 0.21 0.22 0.26 0.29 0.32 0.30 0.31 0.33 0.32 0.33 0.36 0.34 0.31 0.30 0.33 0.35 0.38 0.39 0.39 0.47 0.62 0.75 0.76 0.77 0.73 0.76 0.86 0.83 0.81
0.08 0.07 0.08 0.07 0.08 0.09 0.10 0.13 0.15 0.17 0.19 0.24 0.24 0.22 0.25 0.29 0.29 0.29 0.28 0.29 0.30 0.33 0.32 0.31 0.34 0.34 0.32 0.32 0.35 0.39 0.42 0.42 0.50 0.66 0.82 0.92 1.00 1.00 0.94 0.89 0.88 0.81 0.79

GEFSMW_prec_meanprecacc_240.txt.gz
Total_Precipitation_Accumulation
0.46 0.39 0.36 0.43 0.42 0.35 0.31 0.35 0.42 0.45 0.46 0.52 0.64 0.74 0.82 1.00 1.20 1.26 1.33 1.47 1.49 1.50 1.63 1.74 1.80 1.74 1.66 1.74 1.91 2.28 2.14 1.78 1.61 1.65 1.51 1.35 1.33 1.41 1.40 1.54 1.62 1.54 1.46
0.37 0.32 0.30 0.33 0.34 0.31 0.29 0.30 0.39 0.49 0.54 0.57 0.70 0.85 1.06 1.18 1.33 1.49 1.48 1.51 1.56 1.60 1.68 1.90 2.02 1.96 1.95 2.03 2.08 2.34 2.49 2.20 2.00 2.03 2.20 1.95 1.74 1.41 1.17 1.27 1.39 1.45 1.48
0.32 0.25 0.26 0.29 0.29 0.28 0.32 0.33 0.43 0.65 0.84 0.92 1.13 1.40 1.65 1.72 1.65 1.66 1.71 1.70 1.72 1.79 1.76 1.88 2.08 2.07 2.06 2.11 2.28 2.60 2.91 2.83 2.54 2.34 2.52 2.27 2.00 1.89 1.38 1.12 1.19 1.32 1.43
0.39 0.29 0.28 0.31 0.28 0.31 0.41 0.58 0.76 1.06 1.30 1.41 1.58 1.80 1.90 1.94 1.87 1.89 1.89 1.87 1.77 1.69 1.69 1.82 2.02 2.18 2.30 2.39 2.45 2.45 2.83 3.09 2.90 2.73 2.40 2.09 1.97 2.13 1.95 1.47 1.19 1.24 1.29
0.42 0.42 0.41 0.46 0.47 0.56 0.76 1.08 1.32 1.52 1.65 1.69 1.76 1.94 2.08 2.24 2.26 2.16 2.02 1.91 1.87 1.79 1.70 1.75 1.82 1.87 1.99 2.14 2.27 2.35 2.59 2.78 2.93 2.89 2.67 2.38 2.24 1.86 1.86 1.91 1.66 1.38 1.16
0.46 0.56 0.68 0.80 0.90 0.99 1.18 1.40 1.52 1.65 1.63 1.62 1.65 1.77 1.94 2.11 2.14 2.17 2.15 2.02 1.89 1.78 1.67 1.61 1.70 1.73 1.74 1.90 2.02 2.13 2.39 2.57 2.71 2.78 2.67 2.56 2.53 2.25 1.98 1.82 1.78 1.63 1.33
0.55 0.75 0.91 1.06 1.17 1.27 1.37 1.40 1.38 1.42 1.44 1.42 1.43 1.49 1.55 1.59 1.66 1.77 1.71 1.58 1.47 1.41 1.39 1.31 1.37 1.50 1.56 1.75 1.84 1.79 1.85 2.04 2.27 2.45 2.48 2.48 2.40 2.34 2.27 2.11 1.91 1.68 1.33
0.82 0.94 1.05 1.16 1.20 1.32 1.36 1.31 1.27 1.25 1.17 1.12 1.14 1.14 1.18 1.23 1.25 1.27 1.23 1.16 1.11 1.08 1.05 1.05 1.06 1.13 1.21 1.43 1.66 1.66 1.67 1.73 1.83 1.92 2.20 2.34 2.29 2.30 2.10 1.99 2.03 1.81 1.53
1.07 1.25 1.25 1.16 1.08 1.13 1.20 1.16 1.10 1.04 0.95 0.89 0.92 0.93 0.99 1.01 0.98 0.96 0.90 0.90 0.84 0.84 0.82 0.85 0.95 1.01 1.00 1.11 1.25 1.44 1.51 1.58 1.65 1.67 1.84 1.99 2.08 2.05 1.86 1.89 1.98 1.87 1.60
1.15 1.42 1.53 1.41 1.15 0.98 1.01 0.97 0.93 0.94 0.92 0.87 0.89 0.88 0.80 0.73 0.72 0.74 0.68 0.67 0.72 0.75 0.75 0.73 0.74 0.82 0.85 0.95 1.08 1.14 1.23 1.32 1.48 1.65 1.79 1.82 1.87 1.92 1.80 1.78 1.91 1.89 1.69
1.36 1.48 1.50 1.37 1.19 0.93 0.86 0.84 0.82 0.84 0.88 0.82 0.85 0.86 0.75 0.61 0.57 0.54 0.50 0.51 0.55 0.59 0.60 0.62 0.69 0.72 0.75 0.77 0.79 0.84 0.91 0.98 1.09 1.16 1.31 1.51 1.69 1.77 1.77 1.81 1.86 1.91 1.78
1.03 1.01 1.10 1.11 1.04 0.91 0.84 0.90 0.94 0.93 0.84 0.77 0.77 0.78 0.71 0.60 0.60 0.53 0.45 0.47 0.53 0.55 0.54 0.59 0.62 0.63 0.70 0.73 0.72 0.71 0.75 0.86 0.94 0.95 0.97 1.08 1.31 1.48 1.61 1.69 1.71 1.78 1.76
0.76 0.68 0.77 0.91 0.86 0.79 0.82 0.91 1.05 1.05 0.97 0.85 0.77 0.78 0.74 0.71 0.72 0.61 0.51 0.49 0.56 0.67 0.68 0.67 0.70 0.67 0.69 0.70 0.70 0.73 0.76 0.78 0.84 0.87 0.89 0.98 1.08 1.25 1.33 1.42 1.53 1.60 1.72
0.59 0.53 0.51 0.55 0.56 0.56 0.59 0.72 0.98 1.17 1.15 1.04 0.93 0.86 0.81 0.78 0.75 0.63 0.55 0.51 0.55 0.60 0.60 0.69 0.76 0.84 0.89 0.87 0.82 0.82 0.82 0.77 0.79 0.85 0.92 0.94 0.97 1.13 1.34 1.43 1.49 1.52 1.63
0.39 0.34 0.32 0.33 0.35 0.39 0.46 0.57 0.85 1.07 1.09 1.08 0.96 0.85 0.77 0.70 0.65 0.64 0.64 0.58 0.52 0.52 0.51 0.59 0.68 0.78 0.88 0.92 0.91 0.79 0.69 0.69 0.74 0.74 0.75 0.82 0.90 0.97 1.16 1.29 1.51 1.52 1.63
0.31 0.31 0.28 0.26 0.22 0.22 0.29 0.37 0.56 0.74 0.84 0.90 0.86 0.73 0.71 0.64 0.56 0.58 0.66 0.65 0.53 0.47 0.48 0.51 0.49 0.52 0.56 0.74 0.75 0.64 0.53 0.57 0.66 0.72 0.74 0.73 0.76 0.80 0.87 0.91 1.15 1.34 1.46
0.33 0.35 0.34 0.31 0.28 0.25 0.25 0.28 0.33 0.44 0.53 0.58 0.60 0.51 0.51 0.61 0.63 0.65 0.63 0.56 0.45 0.45 0.45 0.40 0.35 0.37 0.41 0.48 0.47 0.53 0.52 0.54 0.58 0.66 0.74 0.79 0.77 0.84 0.93 0.91 0.96 1.06 1.12
0.36 0.33 0.30 0.27 0.25 0.23 0.23 0.24 0.25 0.28 0.31 0.30 0.29 0.26 0.34 0.48 0.50 0.47 0.44 0.39 0.38 0.42 0.48 0.40 0.38 0.42 0.40 0.42 0.46 0.50 0.51 0.63 0.69 0.69 0.68 0.78 0.85 0.92 1.09 1.07 1.13 1.08 0.98
0.17 0.14 0.12 0.12 0.11 0.11 0.12 0.12 0.10 0.11 0.12 0.12 0.12 0.14 0.16 0.19 0.20 0.18 0.20 0.27 0.33 0.38 0.34 0.37 0.51 0.50 0.48 0.56 0.52 0.45 0.51 0.64 0.72 0.66 0.68 0.78 0.88 1.06 1.18 1.20 1.21 1.12 1.02
0.05 0.06 0.08 0.09 0.09 0.08 0.09 0.08 0.08 0.08 0.09 0.10 0.11 0.12 0.12 0.14 0.14 0.15 0.16 0.19 0.23 0.28 0.30 0.33 0.46 0.50 0.55 0.57 0.44 0.41 0.51 0.64 0.73 0.72 0.71 0.92 0.93 1.02 1.07 1.12 1.25 1.27 1.13
0.06 0.07 0.07 0.08 0.08 0.08 0.09 0.08 0.07 0.09 0.12 0.13 0.12 0.11 0.11 0.13 0.18 0.23 0.21 0.20 0.20 0.21 0.24 0.27 0.32 0.34 0.35 0.35 0.35 0.37 0.42 0.53 0.66 0.69 0.71 0.68 0.82 0.83 0.93 1.05 1.12 1.34 1.22
0.06 0.08 0.08 0.08 0.09 0.09 0.09 0.09 0.08 0.11 0.14 0.13 0.13 0.12 0.13 0.15 0.18 0.27 0.28 0.24 0.23 0.20 0.21 0.26 0.33 0.34 0.28 0.25 0.26 0.30 0.35 0.46 0.50 0.54 0.63 0.62 0.71 0.75 0.81 0.83 1.01 1.18 1.15
0.05 0.07 0.09 0.10 0.10 0.11 0.11 0.11 0.12 0.13 0.14 0.14 0.13 0.14 0.15 0.18 0.19 0.22 0.24 0.26 0.24 0.25 0.26 0.28 0.31 0.32 0.32 0.30 0.32 0.35 0.38 0.41 0.39 0.38 0.53 0.60 0.67 0.65 0.64 0.76 0.95 1.01 1.04
0.05 0.05 0.06 0.09 0.13 0.15 0.16 0.17 0.18 0.19 0.18 0.17 0.17 0.16 0.17 0.20 0.23 0.26 0.27 0.29 0.30 0.31 0.31 0.31 0.34 0.37 0.37 0.33 0.31 0.35 0.37 0.37 0.36 0.37 0.52 0.64 0.69 0.67 0.65 0.72 0.84 0.89 1.02
0.09 0.06 0.06 0.07 0.11 0.14 0.17 0.19 0.20 0.21 0.23 0.22 0.22 0.22 0.22 0.22 0.26 0.31 0.33 0.31 0.32 0.34 0.32 0.34 0.37 0.36 0.33 0.33 0.34 0.36 0.39 0.40 0.41 0.49 0.65 0.77 0.78 0.79 0.76 0.79 0.88 0.85 0.82
0.08 0.08 0.08 0.08 0.08 0.09 0.10 0.13 0.15 0.17 0.19 0.24 0.24 0.22 0.25 0.29 0.30 0.30 0.29 0.31 0.31 0.34 0.32 0.31 0.34 0.35 0.33 0.34 0.36 0.40 0.43 0.43 0.52 0.68 0.84 0.94 1.02 1.02 0.97 0.93 0.91 0.83 0.80

GEFSMW_prec_meanprecacc_246.txt.gz
Total_Precipitation_Accumulation
0.46 0.39 0.36 0.43 0.43 0.36 0.33 0.37 0.43 0.46 0.47 0.53 0.66 0.76 0.84 1.01 1.21 1.26 1.33 1.47 1.49 1.50 1.63 1.75 1.80 1.74 1.67 1.76 1.93 2.30 2.16 1.80 1.63 1.67 1.54 1.38 1.34 1.43 1.42 1.57 1.65 1.57 1.49
0.37 0.32 0.30 0.34 0.35 0.33 0.31 0.32 0.40 0.50 0.55 0.58 0.72 0.86 1.08 1.20 1.34 1.49 1.49 1.52 1.56 1.60 1.69 1.91 2.02 1.96 1.96 2.05 2.09 2.35 2.50 2.22 2.02 2.04 2.21 1.97 1.76 1.43 1.20 1.29 1.43 1.49 1.52
0.32 0.25 0.27 0.29 0.30 0.30 0.36 0.37 0.46 0.67 0.85 0.93 1.14 1.42 1.67 1.73 1.66 1.66 1.72 1.70 1.73 1.79 1.77 1.89 2.08 2.08 2.07 2.11 2.29 2.61 2.92 2.84 2.55 2.35 2.53 2.28 2.02 1.91 1.40 1.14 1.23 1.37 1.48
0.39 0.30 0.28 0.31 0.29 0.32 0.43 0.60 0.80 1.09 1.32 1.43 1.60 1.82 1.93 1.95 1.88 1.89 1.89 1.87 1.77 1.70 1.70 1.83 2.03 2.18 2.30 2.39 2.46 2.46 2.84 3.11 2.92 2.74 2.41 2.11 1.99 2.15 1.97 1.49 1.21 1.27 1.33
0.42 0.43 0.42 0.47 0.48 0.57 0.78 1.10 1.35 1.55 1.68 1.71 1.78 1.96 2.11 2.26 2.27 2.16 2.02 1.91 1.88 1.80 1.71 1.75 1.82 1.88 1.99 2.14 2.28 2.36 2.60 2.80 2.94 2.91 2.69 2.42 2.27 1.88 1.88 1.93 1.67 1.41 1.20
0.47 0.57 0.69 0.82 0.91 1.00 1.19 1.42 1.56 1.70 1.67 1.64 1.67 1.79 1.97 2.12 2.15 2.18 2.15 2.02 1.89 1.78 1.67 1.62 1.71 1.73 1.74 1.90 2.02 2.14 2.41 2.60 2.73 2.79 2.68 2.58 2.55 2.26 2.00 1.83 1.80 1.65 1.43
0.55 0.76 0.92 1.08 1.19 1.28 1.38 1.42 1.41 1.47 1.48 1.45 1.46 1.52 1.57 1.60 1.67 1.78 1.72 1.58 1.47 1.42 1.40 1.32 1.37 1.51 1.56 1.75 1.84 1.79 1.86 2.05 2.28 2.46 2.49 2.49 2.41 2.36 2.28 2.12 1.92 1.69 1.39
0.82 0.95 1.06 1.17 1.21 1.33 1.38 1.34 1.29 1.28 1.21 1.16 1.17 1.17 1.20 1.24 1.26 1.28 1.24 1.17 1.12 1.09 1.06 1.06 1.07 1.14 1.22 1.44 1.67 1.67 1.68 1.73 1.83 1.93 2.20 2.35 2.30 2.33 2.12 2.01 2.05 1.83 1.54
1.08 1.25 1.26 1.16 1.09 1.14 1.22 1.19 1.14 1.07 0.99 0.92 0.94 0.95 1.01 1.03 0.99 0.97 0.92 0.91 0.85 0.84 0.82 0.85 0.95 1.02 1.01 1.11 1.26 1.45 1.52 1.59 1.66 1.68 1.85 2.00 2.10 2.07 1.88 1.91 2.01 1.90 1.61
1.16 1.43 1.54 1.42 1.15 0.99 1.03 0.99 0.97 0.98 0.96 0.91 0.92 0.91 0.82 0.74 0.73 0.75 0.69 0.68 0.73 0.76 0.76 0.73 0.75 0.83 0.86 0.96 1.09 1.15 1.26 1.35 1.50 1.67 1.80 1.83 1.88 1.93 1.81 1.79 1.92 1.91 1.70
1.36 1.49 1.50 1.37 1.20 0.94 0.89 0.87 0.84 0.85 0.91 0.84 0.87 0.89 0.78 0.64 0.60 0.56 0.52 0.53 0.56 0.60 0.60 0.63 0.70 0.73 0.76 0.78 0.79 0.84 0.92 1.00 1.11 1.18 1.31 1.51 1.70 1.78 1.77 1.81 1.87 1.93 1.80
1.05 1.03 1.12 1.13 1.06 0.93 0.85 0.91 0.95 0.95 0.86 0.78 0.78 0.79 0.73 0.63 0.63 0.56 0.47 0.49 0.54 0.55 0.55 0.59 0.63 0.64 0.70 0.74 0.73 0.72 0.76 0.88 0.95 0.96 0.98 1.09 1.32 1.49 1.62 1.69 1.72 1.80 1.78
0.78 0.70 0.80 0.94 0.89 0.81 0.83 0.92 1.06 1.07 0.98 0.85 0.78 0.79 0.74 0.72 0.74 0.63 0.53 0.52 0.59 0.69 0.69 0.69 0.71 0.68 0.71 0.71 0.71 0.74 0.78 0.81 0.86 0.88 0.90 0.98 1.09 1.26 1.34 1.43 1.54 1.62 1.74
0.62 0.57 0.53 0.57 0.58 0.58 0.61 0.73 0.99 1.18 1.16 1.05 0.94 0.87 0.82 0.79 0.77 0.65 0.58 0.55 0.58 0.62 0.62 0.70 0.77 0.84 0.89 0.87 0.83 0.83 0.83 0.79 0.80 0.86 0.93 0.95 0.98 1.14 1.36 1.44 1.50 1.54 1.64
0.41 0.37 0.33 0.34 0.37 0.41 0.48 0.58 0.86 1.07 1.10 1.09 0.97 0.87 0.78 0.71 0.66 0.65 0.65 0.60 0.55 0.53 0.52 0.60 0.68 0.79 0.88 0.93 0.92 0.80 0.71 0.71 0.75 0.75 0.76 0.83 0.91 0.98 1.17 1.30 1.51 1.53 1.64
0.32 0.32 0.28 0.27 0.24 0.24 0.30 0.38 0.57 0.75 0.85 0.90 0.87 0.74 0.71 0.64 0.56 0.59 0.67 0.66 0.54 0.49 0.49 0.53 0.50 0.52 0.57 0.76 0.76 0.66 0.55 0.58 0.66 0.72 0.74 0.74 0.77 0.81 0.88 0.91 1.16 1.35 1.47
0.33 0.36 0.34 0.31 0.28 0.25 0.26 0.28 0.34 0.44 0.54 0.59 0.61 0.51 0.51 0.62 0.65 0.66 0.64 0.57 0.47 0.47 0.47 0.41 0.37 0.38 0.43 0.50 0.50 0.56 0.54 0.55 0.59 0.66 0.75 0.79 0.78 0.85 0.94 0.92 0.97 1.07 1.14
0.36 0.33 0.30 0.28 0.26 0.23 0.23 0.25 0.25 0.29 0.32 0.31 0.30 0.27 0.35 0.49 0.52 0.49 0.46 0.40 0.40 0.44 0.49 0.42 0.38 0.43 0.42 0.45 0.51 0.53 0.53 0.64 0.70 0.70 0.68 0.78 0.85 0.93 1.10 1.08 1.15 1.09 0.99
0.17 0.14 0.13 0.12 0.11 0.11 0.13 0.13 0.10 0.12 0.13 0.12 0.13 0.16 0.18 0.21 0.22 0.20 0.22 0.28 0.35 0.39 0.35 0.38 0.52 0.51 0.51 0.60 0.55 0.47 0.52 0.65 0.73 0.68 0.69 0.79 0.89 1.07 1.19 1.21 1.22 1.13 1.05
0.05 0.07 0.09 0.09 0.09 0.09 0.10 0.09 0.09 0.09 0.10 0.11 0.12 0.13 0.13 0.15 0.16 0.16 0.17 0.21 0.24 0.29 0.31 0.35 0.48 0.53 0.59 0.60 0.46 0.44 0.53 0.65 0.74 0.74 0.72 0.93 0.93 1.02 1.08 1.14 1.26 1.28 1.15
0.06 0.07 0.08 0.08 0.09 0.09 0.10 0.09 0.08 0.10 0.13 0.14 0.13 0.11 0.12 0.14 0.19 0.24 0.23 0.22 0.21 0.22 0.26 0.31 0.36 0.36 0.37 0.38 0.37 0.40 0.45 0.55 0.67 0.71 0.73 0.69 0.83 0.85 0.95 1.07 1.14 1.37 1.25
0.06 0.09 0.09 0.09 0.10 0.11 0.10 0.10 0.09 0.11 0.14 0.14 0.13 0.12 0.14 0.16 0.19 0.27 0.29 0.26 0.24 0.21 0.22 0.27 0.34 0.35 0.30 0.27 0.29 0.33 0.39 0.50 0.54 0.56 0.64 0.63 0.73 0.77 0.84 0.86 1.04 1.23 1.18
0.06 0.08 0.10 0.11 0.11 0.12 0.12 0.12 0.12 0.14 0.15 0.14 0.14 0.15 0.16 0.18 0.20 0.22 0.25 0.27 0.25 0.25 0.26 0.28 0.32 0.33 0.33 0.32 0.35 0.38 0.42 0.45 0.41 0.39 0.54 0.61 0.69 0.67 0.66 0.79 0.99 1.05 1.08
0.05 0.06 0.07 0.10 0.14 0.16 0.16 0.17 0.19 0.20 0.19 0.18 0.17 0.17 0.18 0.21 0.24 0.26 0.28 0.29 0.31 0.31 0.31 0.31 0.35 0.37 0.37 0.34 0.33 0.36 0.39 0.39 0.38 0.39 0.53 0.65 0.71 0.68 0.67 0.75 0.88 0.94 1.06
0.09 0.07 0.07 0.08 0.11 0.15 0.17 0.20 0.20 0.22 0.23 0.23 0.23 0.22 0.22 0.23 0.27 0.31 0.34 0.32 0.32 0.34 0.33 0.34 0.38 0.37 0.34 0.34 0.35 0.37 0.39 0.41 0.43 0.51 0.66 0.78 0.79 0.80 0.78 0.81 0.91 0.90 0.87
0.08 0.08 0.08 0.08 0.08 0.10 0.11 0.14 0.15 0.17 0.20 0.24 0.25 0.23 0.26 0.30 0.30 0.31 0.30 0.31 0.32 0.34 0.33 0.32 0.35 0.36 0.34 0.35 0.37 0.41 0.44 0.43 0.54 0.70 0.86 0.96 1.03 1.03 0.98 0.95 0.93 0.87 0.84

GEFSMW_prec_meanprecacc_252.txt.gz
Total_Precipitation_Accumulation
0.46 0.39 0.37 0.44 0.43 0.37 0.33 0.37 0.43 0.46 0.47 0.55 0.67 0.76 0.85 1.02 1.22 1.27 1.34 1.48 1.49 1.50 1.64 1.75 1.81 1.76 1.70 1.80 1.97 2.32 2.18 1.82 1.66 1.70 1.57 1.40 1.36 1.44 1.44 1.58 1.67 1.58 1.50
0.37 0.32 0.31 0.34 0.35 0.35 0.33 0.33 0.41 0.51 0.56 0.60 0.73 0.87 1.09 1.21 1.36 1.50 1.50 1.52 1.57 1.61 1.70 1.91 2.02 1.97 1.97 2.07 2.13 2.38 2.53 2.24 2.04 2.07 2.24 1.99 1.78 1.45 1.22 1.32 1.46 1.52 1.55
0.32 0.25 0.27 0.29 0.30 0.31 0.38 0.39 0.47 0.68 0.87 0.95 1.15 1.42 1.67 1.74 1.67 1.68 1.74 1.71 1.73 1.80 1.77 1.89 2.08 2.08 2.07 2.12 2.32 2.64 2.95 2.87 2.58 2.37 2.56 2.30 2.03 1.93 1.43 1.17 1.25 1.40 1.52
0.39 0.30 0.29 0.32 0.29 0.33 0.45 0.62 0.81 1.10 1.33 1.45 1.62 1.83 1.93 1.96 1.89 1.90 1.90 1.88 1.79 1.71 1.71 1.83 2.03 2.19 2.30 2.40 2.47 2.48 2.86 3.14 2.95 2.77 2.44 2.14 2.01 2.17 1.99 1.52 1.25 1.31 1.36
0.43 0.43 0.42 0.47 0.49 0.59 0.80 1.12 1.37 1.57 1.70 1.74 1.79 1.98 2.12 2.27 2.29 2.18 2.03 1.92 1.88 1.81 1.71 1.76 1.83 1.88 1.99 2.14 2.29 2.37 2.61 2.81 2.97 2.93 2.71 2.46 2.30 1.89 1.89 1.94 1.70 1.45 1.24
0.47 0.57 0.70 0.83 0.92 1.01 1.21 1.43 1.58 1.72 1.69 1.66 1.69 1.81 1.99 2.15 2.17 2.20 2.16 2.03 1.90 1.80 1.68 1.63 1.71 1.74 1.74 1.90 2.03 2.14 2.41 2.62 2.76 2.81 2.69 2.58 2.55 2.26 2.00 1.83 1.81 1.67 1.44
0.56 0.76 0.92 1.08 1.19 1.29 1.40 1.43 1.42 1.49 1.51 1.48 1.48 1.54 1.61 1.64 1.69 1.80 1.73 1.60 1.49 1.44 1.41 1.33 1.38 1.51 1.56 1.75 1.84 1.80 1.87 2.06 2.29 2.47 2.50 2.49 2.41 2.36 2.28 2.12 1.93 1.70 1.40
0.83 0.95 1.06 1.17 1.22 1.34 1.40 1.35 1.31 1.30 1.25 1.20 1.20 1.20 1.24 1.29 1.30 1.30 1.25 1.18 1.14 1.11 1.09 1.08 1.08 1.14 1.22 1.44 1.67 1.67 1.68 1.74 1.84 1.94 2.20 2.35 2.31 2.33 2.12 2.01 2.06 1.84 1.54
1.08 1.26 1.26 1.16 1.09 1.15 1.22 1.21 1.16 1.10 1.02 0.96 0.98 0.99 1.05 1.08 1.03 0.99 0.93 0.92 0.86 0.86 0.84 0.88 0.97 1.03 1.01 1.12 1.26 1.45 1.53 1.60 1.67 1.69 1.85 2.00 2.10 2.07 1.89 1.91 2.02 1.91 1.62
1.16 1.43 1.54 1.42 1.16 1.00 1.03 1.01 0.98 1.01 1.00 0.96 0.98 0.95 0.86 0.78 0.75 0.77 0.71 0.69 0.74 0.77 0.78 0.76 0.78 0.84 0.87 0.97 1.10 1.16 1.27 1.36 1.52 1.68 1.81 1.83 1.88 1.93 1.81 1.80 1.93 1.92 1.72
1.37 1.49 1.51 1.38 1.21 0.95 0.90 0.89 0.86 0.89 0.95 0.89 0.91 0.91 0.80 0.66 0.62 0.57 0.53 0.54 0.57 0.61 0.62 0.65 0.73 0.74 0.76 0.78 0.80 0.85 0.93 1.02 1.12 1.19 1.32 1.52 1.71 1.79 1.78 1.82 1.88 1.93 1.81
1.06 1.04 1.13 1.14 1.08 0.95 0.89 0.95 0.99 0.99 0.90 0.81 0.80 0.81 0.74 0.64 0.64 0.57 0.49 0.51 0.56 0.57 0.57 0.62 0.66 0.66 0.72 0.75 0.74 0.73 0.78 0.89 0.97 0.98 1.00 1.10 1.34 1.51 1.64 1.71 1.73 1.81 1.79
0.80 0.71 0.81 0.96 0.91 0.84 0.87 0.96 1.09 1.10 1.00 0.87 0.79 0.80 0.75 0.73 0.75 0.65 0.56 0.55 0.63 0.73 0.74 0.73 0.75 0.71 0.73 0.74 0.74 0.77 0.80 0.83 0.88 0.90 0.91 0.99 1.11 1.27 1.36 1.44 1.55 1.63 1.75
0.64 0.58 0.54 0.59 0.60 0.62 0.63 0.75 1.01 1.22 1.17 1.06 0.95 0.89 0.83 0.81 0.79 0.68 0.61 0.57 0.61 0.65 0.66 0.73 0.80 0.87 0.91 0.88 0.83 0.83 0.83 0.79 0.81 0.87 0.94 0.96 0.98 1.15 1.36 1.45 1.52 1.55 1.66
0.42 0.37 0.35 0.37 0.38 0.43 0.50 0.59 0.88 1.09 1.10 1.10 0.98 0.88 0.79 0.72 0.67 0.65 0.66 0.60 0.55 0.54 0.53 0.62 0.70 0.80 0.90 0.94 0.93 0.81 0.71 0.71 0.75 0.75 0.76 0.84 0.91 0.99 1.18 1.30 1.52 1.55 1.66
0.33 0.32 0.30 0.28 0.25 0.25 0.32 0.40 0.58 0.75 0.85 0.91 0.87 0.74 0.72 0.64 0.57 0.60 0.67 0.66 0.55 0.50 0.50 0.54 0.51 0.54 0.59 0.78 0.79 0.68 0.56 0.59 0.67 0.73 0.74 0.74 0.77 0.81 0.88 0.92 1.16 1.36 1.48
0.34 0.36 0.34 0.32 0.29 0.26 0.26 0.29 0.35 0.45 0.54 0.60 0.61 0.52 0.51 0.62 0.65 0.67 0.65 0.58 0.47 0.48 0.48 0.42 0.38 0.40 0.44 0.52 0.52 0.59 0.56 0.56 0.59 0.67 0.75 0.80 0.78 0.85 0.94 0.92 0.97 1.07 1.14
0.36 0.33 0.30 0.28 0.26 0.23 0.24 0.26 0.26 0.29 0.32 0.32 0.30 0.27 0.36 0.50 0.53 0.50 0.46 0.41 0.41 0.45 0.50 0.43 0.39 0.44 0.43 0.47 0.54 0.57 0.55 0.65 0.71 0.70 0.69 0.79 0.86 0.93 1.10 1.08 1.15 1.09 1.00
0.17 0.15 0.13 0.12 0.12 0.12 0.13 0.13 0.11 0.12 0.13 0.13 0.13 0.16 0.19 0.22 0.24 0.21 0.23 0.30 0.36 0.40 0.36 0.40 0.53 0.53 0.53 0.62 0.57 0.49 0.54 0.66 0.74 0.69 0.70 0.80 0.90 1.08 1.20 1.21 1.22 1.13 1.05
0.05 0.07 0.09 0.09 0.09 0.09 0.11 0.10 0.10 0.10 0.10 0.11 0.13 0.14 0.14 0.17 0.17 0.18 0.19 0.22 0.25 0.31 0.33 0.37 0.50 0.55 0.61 0.62 0.48 0.45 0.55 0.67 0.75 0.75 0.73 0.93 0.94 1.04 1.09 1.14 1.26 1.29 1.16
0.06 0.07 0.08 0.08 0.09 0.09 0.10 0.10 0.09 0.11 0.14 0.15 0.14 0.12 0.13 0.16 0.21 0.25 0.24 0.23 0.22 0.24 0.28 0.32 0.38 0.38 0.39 0.39 0.39 0.41 0.47 0.57 0.70 0.72 0.73 0.70 0.83 0.85 0.96 1.08 1.15 1.37 1.26
0.06 0.09 0.09 0.09 0.11 0.11 0.11 0.11 0.10 0.13 0.16 0.15 0.15 0.14 0.15 0.18 0.21 0.29 0.31 0.27 0.26 0.23 0.23 0.29 0.36 0.37 0.32 0.29 0.30 0.35 0.41 0.52 0.57 0.58 0.65 0.64 0.73 0.78 0.85 0.87 1.05 1.24 1.20
0.06 0.08 0.10 0.12 0.12 0.13 0.14 0.14 0.14 0.15 0.16 0.16 0.15 0.16 0.17 0.19 0.21 0.24 0.26 0.28 0.26 0.27 0.27 0.29 0.33 0.35 0.35 0.33 0.36 0.39 0.44 0.47 0.43 0.40 0.55 0.62 0.70 0.69 0.68 0.80 1.00 1.06 1.09
0.05 0.06 0.07 0.10 0.15 0.17 0.18 0.19 0.20 0.21 0.20 0.19 0.19 0.18 0.20 0.22 0.25 0.27 0.29 0.30 0.32 0.32 0.32 0.32 0.36 0.38 0.38 0.36 0.34 0.37 0.40 0.41 0.40 0.40 0.55 0.67 0.73 0.70 0.69 0.76 0.89 0.95 1.08
0.09 0.07 0.07 0.08 0.12 0.17 0.19 0.21 0.21 0.22 0.23 0.23 0.23 0.23 0.23 0.24 0.28 0.32 0.34 0.32 0.33 0.35 0.33 0.35 0.38 0.38 0.35 0.35 0.36 0.38 0.40 0.42 0.44 0.53 0.68 0.80 0.81 0.82 0.79 0.82 0.92 0.90 0.88
0.08 0.09 0.09 0.09 0.09 0.12 0.13 0.16 0.16 0.18 0.20 0.24 0.25 0.23 0.26 0.30 0.31 0.31 0.30 0.32 0.32 0.35 0.34 0.33 0.35 0.37 0.35 0.36 0.38 0.42 0.45 0.44 0.55 0.72 0.87 0.97 1.04 1.04 0.99 0.96 0.94 0.87 0.85

GEFSMW_prec_meanprecacc_258.txt.gz
Total_Precipitation_Accumulation
0.46 0.39 0.37 0.44 0.43 0.37 0.34 0.38 0.44 0.47 0.48 0.57 0.71 0.80 0.88 1.04 1.24 1.29 1.36 1.50 1.50 1.51 1.64 1.76 1.82 1.79 1.74 1.84 2.04 2.44 2.33 1.97 1.75 1.76 1.63 1.47 1.41 1.48 1.46 1.61 1.69 1.61 1.53
0.37 0.32 0.31 0.34 0.36 0.35 0.33 0.33 0.41 0.52 0.57 0.61 0.74 0.89 1.11 1.23 1.37 1.52 1.51 1.53 1.58 1.62 1.71 1.92 2.04 2.01 2.02 2.12 2.18 2.46 2.63 2.36 2.14 2.14 2.30 2.06 1.84 1.50 1.25 1.34 1.48 1.55 1.57
0.32 0.25 0.27 0.29 0.31 0.32 0.39 0.39 0.48 0.68 0.87 0.95 1.16 1.43 1.68 1.75 1.69 1.69 1.75 1.73 1.75 1.81 1.78 1.90 2.10 2.11 2.11 2.18 2.37 2.69 3.01 2.94 2.64 2.42 2.61 2.35 2.08 1.98 1.47 1.20 1.28 1.43 1.54
0.39 0.30 0.29 0.32 0.29 0.34 0.46 0.63 0.82 1.11 1.34 1.45 1.62 1.84 1.94 1.97 1.90 1.91 1.92 1.91 1.81 1.73 1.72 1.84 2.04 2.20 2.33 2.45 2.52 2.53 2.92 3.20 2.99 2.81 2.47 2.17 2.04 2.19 2.01 1.55 1.29 1.34 1.40
0.43 0.43 0.42 0.47 0.49 0.59 0.80 1.13 1.38 1.59 1.71 1.75 1.80 1.99 2.13 2.28 2.29 2.19 2.05 1.95 1.91 1.84 1.73 1.77 1.83 1.89 2.00 2.17 2.31 2.39 2.64 2.85 3.00 2.96 2.74 2.50 2.34 1.92 1.91 1.97 1.73 1.47 1.27
0.47 0.57 0.70 0.84 0.92 1.01 1.21 1.44 1.59 1.74 1.71 1.67 1.70 1.82 2.00 2.16 2.18 2.22 2.19 2.06 1.93 1.82 1.71 1.64 1.72 1.74 1.75 1.91 2.04 2.15 2.43 2.64 2.77 2.82 2.71 2.61 2.59 2.29 2.02 1.86 1.83 1.69 1.47
0.56 0.76 0.93 1.09 1.19 1.29 1.40 1.44 1.42 1.49 1.52 1.48 1.48 1.55 1.63 1.66 1.70 1.82 1.75 1.63 1.52 1.46 1.44 1.36 1.40 1.52 1.57 1.76 1.85 1.80 1.88 2.07 2.29 2.47 2.51 2.51 2.43 2.37 2.30 2.14 1.95 1.72 1.42
0.83 0.95 1.06 1.18 1.22 1.34 1.40 1.35 1.32 1.31 1.26 1.20 1.21 1.21 1.25 1.32 1.32 1.33 1.28 1.20 1.16 1.14 1.10 1.10 1.11 1.16 1.23 1.45 1.67 1.68 1.68 1.74 1.84 1.94 2.21 2.36 2.32 2.34 2.13 2.03 2.07 1.85 1.56
1.08 1.26 1.26 1.17 1.10 1.15 1.22 1.21 1.16 1.10 1.03 0.97 0.99 1.00 1.06 1.10 1.07 1.02 0.96 0.94 0.87 0.87 0.85 0.89 1.00 1.06 1.04 1.13 1.27 1.46 1.53 1.60 1.68 1.69 1.86 2.01 2.11 2.08 1.90 1.92 2.03 1.93 1.64
1.16 1.44 1.55 1.43 1.17 1.00 1.03 1.01 0.99 1.02 1.01 0.97 0.99 0.96 0.87 0.80 0.79 0.80 0.73 0.71 0.76 0.78 0.78 0.77 0.81 0.89 0.90 0.98 1.10 1.16 1.27 1.36 1.52 1.69 1.82 1.84 1.89 1.94 1.82 1.80 1.94 1.93 1.73
1.38 1.50 1.52 1.39 1.22 0.96 0.90 0.90 0.87 0.89 0.96 0.90 0.93 0.93 0.81 0.68 0.63 0.59 0.54 0.55 0.58 0.62 0.63 0.66 0.75 0.78 0.80 0.81 0.82 0.86 0.94 1.02 1.13 1.20 1.33 1.53 1.72 1.80 1.78 1.82 1.89 1.94 1.82
1.07 1.06 1.15 1.15 1.08 0.96 0.89 0.96 0.99 0.99 0.92 0.84 0.83 0.82 0.75 0.66 0.65 0.58 0.50 0.52 0.58 0.60 0.60 0.65 0.69 0.69 0.75 0.78 0.76 0.76 0.80 0.92 1.00 1.01 1.03 1.13 1.37 1.52 1.65 1.72 1.74 1.82 1.80
0.81 0.73 0.83 0.98 0.92 0.85 0.88 0.97 1.10 1.11 1.02 0.89 0.82 0.81 0.77 0.75 0.77 0.66 0.57 0.56 0.65 0.76 0.76 0.76 0.78 0.74 0.77 0.77 0.77 0.80 0.83 0.86 0.91 0.93 0.93 1.01 1.12 1.28 1.36 1.45 1.56 1.64 1.75
0.64 0.59 0.55 0.62 0.64 0.64 0.65 0.77 1.02 1.23 1.19 1.08 0.96 0.89 0.84 0.83 0.81 0.69 0.62 0.58 0.62 0.66 0.67 0.74 0.81 0.88 0.93 0.90 0.85 0.85 0.85 0.80 0.81 0.88 0.95 0.96 0.99 1.15 1.36 1.46 1.53 1.56 1.67
0.42 0.39 0.36 0.37 0.39 0.44 0.51 0.60 0.90 1.10 1.11 1.11 0.98 0.88 0.80 0.72 0.68 0.66 0.66 0.61 0.56 0.55 0.55 0.62 0.71 0.81 0.91 0.95 0.94 0.82 0.72 0.72 0.76 0.76 0.77 0.84 0.93 1.00 1.18 1.31 1.54 1.56 1.67
0.33 0.33 0.31 0.28 0.26 0.27 0.33 0.41 0.59 0.76 0.86 0.91 0.87 0.75 0.72 0.65 0.57 0.61 0.68 0.67 0.55 0.50 0.51 0.54 0.52 0.55 0.60 0.79 0.80 0.69 0.57 0.60 0.68 0.74 0.76 0.75 0.78 0.81 0.88 0.92 1.17 1.36 1.48
0.34 0.36 0.35 0.32 0.30 0.27 0.27 0.29 0.35 0.45 0.54 0.60 0.62 0.52 0.52 0.63 0.66 0.67 0.66 0.58 0.48 0.49 0.48 0.43 0.38 0.40 0.45 0.53 0.53 0.60 0.58 0.58 0.61 0.68 0.76 0.81 0.79 0.86 0.95 0.92 0.97 1.07 1.14
0.36 0.33 0.31 0.29 0.27 0.25 0.25 0.26 0.26 0.29 0.33 0.32 0.31 0.28 0.37 0.51 0.54 0.50 0.47 0.42 0.41 0.45 0.51 0.43 0.40 0.44 0.43 0.48 0.55 0.58 0.56 0.66 0.72 0.72 0.71 0.81 0.87 0.94 1.11 1.09 1.15 1.09 1.00
0.17 0.15 0.13 0.13 0.12 0.13 0.14 0.14 0.11 0.13 0.14 0.13 0.14 0.17 0.19 0.23 0.24 0.22 0.24 0.30 0.37 0.41 0.37 0.40 0.54 0.54 0.53 0.63 0.58 0.50 0.56 0.68 0.76 0.71 0.72 0.82 0.91 1.09 1.21 1.22 1.23 1.13 1.06
0.05 0.07 0.09 0.09 0.09 0.10 0.12 0.11 0.10 0.10 0.10 0.12 0.13 0.14 0.15 0.18 0.18 0.19 0.20 0.23 0.26 0.32 0.34 0.38 0.52 0.57 0.62 0.63 0.49 0.47 0.56 0.69 0.77 0.76 0.74 0.94 0.95 1.04 1.10 1.15 1.27 1.29 1.17
0.06 0.07 0.08 0.08 0.09 0.09 0.11 0.10 0.09 0.11 0.15 0.16 0.14 0.13 0.14 0.16 0.22 0.26 0.25 0.24 0.23 0.25 0.29 0.33 0.39 0.40 0.40 0.41 0.41 0.43 0.49 0.59 0.71 0.74 0.74 0.71 0.85 0.87 0.97 1.09 1.15 1.38 1.28
0.06 0.09 0.09 0.09 0.11 0.12 0.11 0.12 0.10 0.13 0.17 0.16 0.15 0.15 0.16 0.19 0.22 0.30 0.32 0.28 0.26 0.24 0.25 0.30 0.37 0.39 0.33 0.30 0.32 0.36 0.42 0.54 0.58 0.59 0.66 0.65 0.74 0.78 0.85 0.87 1.06 1.25 1.21
0.06 0.08 0.10 0.12 0.12 0.13 0.14 0.14 0.15 0.16 0.17 0.17 0.17 0.18 0.19 0.21 0.22 0.25 0.27 0.29 0.28 0.28 0.29 0.31 0.35 0.36 0.36 0.35 0.37 0.40 0.45 0.48 0.44 0.42 0.58 0.65 0.73 0.70 0.69 0.81 1.01 1.07 1.09
0.06 0.06 0.08 0.11 0.15 0.17 0.18 0.19 0.20 0.22 0.21 0.20 0.20 0.19 0.21 0.24 0.26 0.28 0.29 0.32 0.34 0.34 0.34 0.35 0.38 0.41 0.41 0.38 0.36 0.38 0.41 0.42 0.41 0.42 0.57 0.70 0.76 0.73 0.70 0.77 0.90 0.96 1.09
0.09 0.07 0.07 0.09 0.13 0.17 0.19 0.21 0.22 0.23 0.24 0.24 0.24 0.24 0.24 0.26 0.29 0.33 0.35 0.33 0.34 0.36 0.34 0.36 0.39 0.39 0.36 0.36 0.38 0.39 0.41 0.43 0.46 0.55 0.71 0.83 0.84 0.85 0.81 0.83 0.93 0.91 0.89
0.08 0.09 0.09 0.09 0.10 0.12 0.13 0.16 0.17 0.19 0.21 0.25 0.26 0.24 0.27 0.31 0.32 0.33 0.32 0.33 0.34 0.36 0.35 0.33 0.36 0.37 0.35 0.36 0.39 0.43 0.46 0.45 0.55 0.73 0.89 1.00 1.07 1.07 1.02 0.98 0.96 0.88 0.86

GEFSMW_prec_meanprecacc_264.txt.gz
Total_Precipitation_Accumulation
0.46 0.40 0.37 0.44 0.44 0.38 0.34 0.38 0.45 0.48 0.51 0.62 0.75 0.84 0.92 1.06 1.25 1.30 1.37 1.51 1.52 1.54 1.66 1.76 1.84 1.81 1.75 1.85 2.06 2.46 2.36 2.01 1.78 1.78 1.65 1.49 1.43 1.49 1.48 1.63 1.71 1.62 1.54
0.37 0.32 0.31 0.34 0.36 0.35 0.33 0.34 0.42 0.53 0.59 0.65 0.78 0.92 1.14 1.26 1.39 1.54 1.54 1.55 1.60 1.65 1.72 1.93 2.05 2.03 2.03 2.12 2.19 2.47 2.67 2.42 2.18 2.16 2.32 2.09 1.87 1.52 1.27 1.36 1.50 1.56 1.59
0.32 0.25 0.27 0.29 0.31 0.32 0.40 0.41 0.51 0.71 0.89 0.96 1.17 1.45 1.71 1.78 1.72 1.72 1.78 1.76 1.77 1.84 1.81 1.91 2.11 2.12 2.13 2.20 2.39 2.71 3.05 3.02 2.73 2.46 2.64 2.39 2.12 2.01 1.50 1.22 1.29 1.44 1.56
0.39 0.30 0.29 0.32 0.29 0.34 0.47 0.64 0.84 1.14 1.36 1.46 1.63 1.85 1.96 2.00 1.92 1.93 1.95 1.94 1.84 1.76 1.76 1.87 2.06 2.22 2.35 2.48 2.55 2.55 2.95 3.27 3.10 2.89 2.51 2.19 2.06 2.21 2.05 1.58 1.30 1.35 1.41
0.43 0.43 0.42 0.47 0.49 0.59 0.80 1.14 1.41 1.60 1.72 1.75 1.81 2.00 2.14 2.29 2.31 2.21 2.07 1.99 1.95 1.88 1.78 1.81 1.86 1.91 2.02 2.19 2.33 2.41 2.66 2.88 3.07 3.05 2.83 2.54 2.36 1.94 1.93 2.00 1.75 1.50 1.29
0.47 0.57 0.70 0.84 0.92 1.01 1.22 1.45 1.61 1.75 1.71 1.68 1.70 1.83 2.01 2.17 2.19 2.23 2.22 2.10 1.98 1.87 1.75 1.67 1.75 1.76 1.77 1.92 2.05 2.17 2.45 2.66 2.80 2.88 2.79 2.69 2.64 2.33 2.05 1.89 1.86 1.72 1.50
0.56 0.76 0.93 1.09 1.20 1.30 1.41 1.45 1.44 1.51 1.53 1.49 1.49 1.56 1.63 1.66 1.71 1.83 1.77 1.66 1.56 1.51 1.48 1.39 1.42 1.54 1.60 1.77 1.86 1.83 1.90 2.09 2.31 2.50 2.55 2.58 2.50 2.43 2.33 2.18 1.99 1.75 1.44
0.83 0.96 1.06 1.18 1.23 1.36 1.41 1.37 1.33 1.33 1.27 1.21 1.22 1.21 1.25 1.33 1.33 1.34 1.30 1.23 1.19 1.17 1.13 1.13 1.12 1.17 1.24 1.46 1.68 1.69 1.70 1.76 1.86 1.95 2.23 2.40 2.36 2.38 2.17 2.07 2.11 1.89 1.59
1.08 1.26 1.26 1.17 1.11 1.17 1.24 1.22 1.17 1.12 1.03 0.98 1.00 1.01 1.07 1.11 1.08 1.03 0.97 0.97 0.90 0.90 0.89 0.93 1.01 1.07 1.05 1.14 1.27 1.46 1.54 1.62 1.69 1.71 1.88 2.03 2.13 2.10 1.93 1.96 2.07 1.97 1.68
1.16 1.44 1.55 1.43 1.19 1.01 1.03 1.01 1.00 1.03 1.02 0.99 1.00 0.97 0.89 0.80 0.79 0.80 0.73 0.73 0.78 0.79 0.81 0.81 0.86 0.92 0.93 1.01 1.11 1.17 1.28 1.38 1.54 1.71 1.83 1.86 1.90 1.95 1.84 1.83 1.96 1.96 1.77
1.38 1.51 1.52 1.39 1.23 0.97 0.90 0.90 0.89 0.92 0.99 0.93 0.95 0.94 0.82 0.68 0.64 0.60 0.55 0.56 0.59 0.64 0.64 0.69 0.79 0.82 0.84 0.86 0.85 0.88 0.96 1.04 1.15 1.22 1.34 1.54 1.73 1.82 1.81 1.85 1.91 1.96 1.84
1.07 1.07 1.15 1.15 1.09 0.97 0.91 0.97 1.00 1.00 0.94 0.87 0.85 0.83 0.76 0.66 0.66 0.60 0.51 0.53 0.59 0.61 0.62 0.66 0.71 0.72 0.79 0.83 0.81 0.79 0.83 0.94 1.03 1.04 1.06 1.16 1.39 1.56 1.68 1.76 1.77 1.84 1.83
0.81 0.74 0.84 0.98 0.92 0.86 0.90 0.98 1.10 1.12 1.03 0.91 0.83 0.82 0.77 0.75 0.78 0.67 0.57 0.57 0.66 0.78 0.80 0.78 0.80 0.76 0.80 0.82 0.80 0.82 0.85 0.88 0.93 0.95 0.96 1.04 1.15 1.31 1.39 1.48 1.58 1.66 1.78
0.64 0.59 0.56 0.63 0.64 0.66 0.67 0.77 1.03 1.24 1.20 1.09 0.97 0.90 0.85 0.84 0.82 0.70 0.62 0.59 0.63 0.68 0.69 0.77 0.83 0.90 0.94 0.92 0.87 0.87 0.87 0.82 0.83 0.90 0.97 0.98 1.01 1.18 1.39 1.48 1.54 1.58 1.69
0.42 0.39 0.36 0.38 0.39 0.45 0.51 0.61 0.90 1.11 1.12 1.11 0.99 0.89 0.81 0.74 0.69 0.67 0.68 0.62 0.56 0.56 0.56 0.64 0.72 0.82 0.92 0.97 0.96 0.83 0.73 0.73 0.78 0.78 0.79 0.86 0.95 1.02 1.21 1.33 1.55 1.57 1.69
0.33 0.33 0.31 0.28 0.26 0.27 0.33 0.41 0.59 0.77 0.86 0.91 0.88 0.75 0.73 0.66 0.58 0.62 0.69 0.68 0.56 0.51 0.51 0.56 0.53 0.56 0.61 0.79 0.81 0.70 0.58 0.62 0.70 0.76 0.78 0.77 0.80 0.84 0.91 0.94 1.17 1.37 1.49
0.34 0.36 0.35 0.32 0.30 0.27 0.28 0.30 0.35 0.46 0.55 0.60 0.62 0.53 0.53 0.63 0.66 0.68 0.66 0.59 0.48 0.50 0.50 0.44 0.40 0.41 0.46 0.53 0.54 0.61 0.59 0.59 0.63 0.71 0.80 0.83 0.80 0.87 0.96 0.94 0.98 1.08 1.14
0.36 0.33 0.31 0.29 0.27 0.25 0.25 0.26 0.27 0.30 0.33 0.33 0.31 0.29 0.37 0.52 0.55 0.52 0.48 0.43 0.43 0.47 0.52 0.45 0.40 0.45 0.44 0.48 0.55 0.59 0.57 0.68 0.74 0.74 0.74 0.84 0.89 0.96 1.12 1.10 1.16 1.10 1.00
0.17 0.15 0.14 0.14 0.13 0.13 0.15 0.15 0.12 0.13 0.14 0.14 0.14 0.18 0.20 0.24 0.26 0.24 0.26 0.32 0.38 0.42 0.38 0.42 0.55 0.54 0.54 0.63 0.58 0.52 0.58 0.70 0.78 0.73 0.74 0.85 0.94 1.11 1.22 1.23 1.24 1.14 1.06
0.05 0.07 0.09 0.10 0.09 0.10 0.12 0.12 0.11 0.10 0.11 0.12 0.13 0.15 0.16 0.19 0.19 0.19 0.21 0.24 0.27 0.33 0.36 0.40 0.53 0.57 0.62 0.63 0.50 0.48 0.59 0.71 0.79 0.78 0.76 0.96 0.97 1.06 1.12 1.18 1.29 1.30 1.17
0.06 0.07 0.08 0.08 0.09 0.10 0.11 0.11 0.10 0.11 0.15 0.16 0.15 0.13 0.14 0.18 0.23 0.27 0.26 0.25 0.24 0.26 0.30 0.35 0.40 0.40 0.40 0.41 0.41 0.44 0.50 0.60 0.72 0.75 0.75 0.71 0.85 0.88 0.98 1.11 1.17 1.40 1.29
0.06 0.09 0.09 0.09 0.11 0.12 0.12 0.12 0.11 0.13 0.17 0.17 0.16 0.15 0.17 0.19 0.23 0.32 0.33 0.29 0.27 0.25 0.26 0.31 0.38 0.39 0.34 0.30 0.32 0.37 0.44 0.56 0.59 0.60 0.67 0.66 0.75 0.79 0.87 0.89 1.07 1.27 1.23
0.06 0.08 0.10 0.12 0.12 0.13 0.14 0.15 0.15 0.16 0.18 0.17 0.17 0.18 0.20 0.22 0.23 0.26 0.29 0.30 0.29 0.29 0.30 0.32 0.36 0.37 0.37 0.35 0.38 0.42 0.47 0.51 0.46 0.44 0.59 0.67 0.74 0.72 0.70 0.83 1.03 1.09 1.11
0.06 0.06 0.08 0.11 0.15 0.17 0.18 0.19 0.21 0.22 0.21 0.20 0.20 0.20 0.22 0.25 0.26 0.29 0.30 0.32 0.35 0.35 0.35 0.36 0.40 0.42 0.42 0.39 0.37 0.40 0.43 0.44 0.43 0.44 0.59 0.72 0.78 0.75 0.72 0.79 0.92 0.97 1.10
0.10 0.07 0.07 0.09 0.13 0.17 0.19 0.22 0.22 0.23 0.24 0.24 0.24 0.24 0.25 0.26 0.30 0.34 0.35 0.34 0.35 0.38 0.35 0.37 0.41 0.40 0.37 0.38 0.40 0.41 0.43 0.44 0.47 0.57 0.73 0.85 0.86 0.87 0.83 0.85 0.94 0.93 0.90
0.08 0.09 0.09 0.09 0.10 0.12 0.13 0.17 0.17 0.19 0.21 0.26 0.26 0.24 0.27 0.31 0.32 0.33 0.33 0.34 0.35 0.37 0.35 0.34 0.37 0.38 0.37 0.38 0.40 0.44 0.47 0.46 0.56 0.74 0.90 1.02 1.09 1.09 1.03 0.99 0.97 0.90 0.87

GEFSMW_prec_meanprecacc_270.txt.gz
Total_Precipitation_Accumulation
0.47 0.40 0.37 0.44 0.44 0.39 0.36 0.40 0.47 0.50 0.52 0.63 0.78 0.87 0.94 1.09 1.27 1.31 1.38 1.52 1.54 1.54 1.66 1.77 1.84 1.81 1.76 1.86 2.06 2.46 2.36 2.01 1.78 1.79 1.67 1.50 1.44 1.50 1.49 1.64 1.72 1.63 1.56
0.37 0.33 0.31 0.34 0.36 0.36 0.35 0.36 0.45 0.55 0.60 0.66 0.80 0.97 1.19 1.27 1.41 1.56 1.56 1.56 1.61 1.66 1.73 1.93 2.06 2.03 2.03 2.13 2.20 2.48 2.67 2.42 2.19 2.17 2.34 2.10 1.88 1.53 1.28 1.37 1.51 1.57 1.60
0.32 0.25 0.27 0.30 0.31 0.33 0.41 0.42 0.53 0.73 0.91 0.97 1.18 1.48 1.73 1.79 1.73 1.74 1.81 1.78 1.79 1.86 1.82 1.92 2.12 2.13 2.14 2.21 2.40 2.72 3.05 3.03 2.73 2.47 2.65 2.40 2.13 2.02 1.51 1.23 1.30 1.45 1.57
0.39 0.30 0.29 0.32 0.30 0.35 0.47 0.66 0.86 1.15 1.37 1.47 1.63 1.86 1.97 2.00 1.93 1.95 1.96 1.96 1.86 1.78 1.77 1.87 2.07 2.23 2.37 2.50 2.56 2.56 2.96 3.28 3.10 2.90 2.52 2.20 2.07 2.22 2.07 1.60 1.32 1.36 1.41
0.43 0.43 0.43 0.48 0.49 0.59 0.81 1.15 1.43 1.62 1.73 1.76 1.82 2.00 2.15 2.30 2.32 2.23 2.09 2.00 1.97 1.91 1.79 1.82 1.88 1.93 2.05 2.22 2.36 2.43 2.68 2.90 3.08 3.06 2.83 2.55 2.37 1.94 1.94 2.02 1.78 1.51 1.30
0.48 0.57 0.70 0.84 0.93 1.02 1.23 1.46 1.62 1.76 1.72 1.68 1.71 1.83 2.01 2.17 2.20 2.24 2.23 2.12 2.01 1.91 1.77 1.69 1.77 1.79 1.80 1.95 2.08 2.20 2.48 2.67 2.81 2.88 2.80 2.70 2.64 2.33 2.06 1.90 1.88 1.74 1.51
0.56 0.77 0.93 1.09 1.20 1.30 1.41 1.46 1.44 1.51 1.53 1.49 1.49 1.56 1.64 1.67 1.72 1.85 1.79 1.67 1.58 1.53 1.51 1.42 1.44 1.56 1.63 1.81 1.90 1.86 1.94 2.11 2.33 2.51 2.57 2.61 2.52 2.45 2.35 2.20 2.00 1.77 1.46
0.84 0.96 1.07 1.18 1.23 1.36 1.42 1.37 1.34 1.33 1.28 1.21 1.22 1.21 1.26 1.33 1.34 1.35 1.31 1.24 1.21 1.19 1.15 1.16 1.15 1.20 1.28 1.50 1.73 1.73 1.74 1.80 1.89 1.97 2.25 2.43 2.41 2.43 2.22 2.11 2.14 1.92 1.62
1.08 1.26 1.27 1.18 1.12 1.18 1.25 1.23 1.18 1.13 1.05 0.98 1.00 1.01 1.07 1.11 1.08 1.03 0.98 0.98 0.91 0.91 0.91 0.96 1.04 1.11 1.10 1.19 1.34 1.52 1.59 1.67 1.74 1.75 1.92 2.07 2.18 2.17 2.00 2.02 2.11 2.00 1.72
1.17 1.44 1.55 1.44 1.20 1.02 1.04 1.02 1.01 1.05 1.04 1.00 1.00 0.97 0.89 0.80 0.79 0.80 0.74 0.74 0.79 0.81 0.82 0.83 0.88 0.96 0.99 1.07 1.18 1.22 1.32 1.41 1.58 1.76 1.89 1.92 1.95 2.02 1.92 1.91 2.02 2.01 1.82
1.38 1.51 1.52 1.39 1.24 0.97 0.91 0.91 0.90 0.94 1.01 0.95 0.96 0.95 0.83 0.69 0.64 0.60 0.56 0.57 0.61 0.66 0.65 0.71 0.81 0.85 0.89 0.92 0.93 0.96 1.01 1.09 1.20 1.27 1.42 1.62 1.80 1.89 1.89 1.93 1.99 2.02 1.89
1.07 1.07 1.15 1.16 1.10 0.98 0.91 0.98 1.01 1.02 0.97 0.90 0.88 0.85 0.78 0.67 0.67 0.61 0.53 0.54 0.60 0.63 0.63 0.68 0.72 0.75 0.82 0.87 0.85 0.84 0.89 1.01 1.10 1.12 1.15 1.25 1.50 1.66 1.77 1.83 1.85 1.92 1.89
0.81 0.74 0.84 0.98 0.93 0.87 0.91 0.99 1.12 1.14 1.06 0.94 0.86 0.85 0.80 0.78 0.80 0.69 0.59 0.58 0.67 0.79 0.81 0.79 0.80 0.77 0.81 0.84 0.82 0.84 0.87 0.90 0.96 0.99 1.01 1.11 1.23 1.38 1.46 1.54 1.64 1.72 1.83
0.64 0.59 0.56 0.63 0.64 0.66 0.68 0.79 1.05 1.27 1.24 1.12 1.00 0.93 0.88 0.87 0.84 0.71 0.64 0.60 0.65 0.69 0.71 0.78 0.84 0.91 0.96 0.94 0.88 0.88 0.88 0.84 0.85 0.91 0.99 1.02 1.05 1.21 1.43 1.52 1.58 1.62 1.73
0.43 0.39 0.37 0.38 0.40 0.45 0.52 0.62 0.91 1.12 1.14 1.13 1.01 0.90 0.82 0.75 0.70 0.68 0.69 0.63 0.57 0.56 0.56 0.66 0.74 0.84 0.94 0.98 0.97 0.85 0.74 0.75 0.79 0.79 0.80 0.88 0.97 1.05 1.25 1.37 1.58 1.60 1.72
0.33 0.34 0.31 0.28 0.26 0.27 0.34 0.42 0.60 0.78 0.88 0.92 0.88 0.75 0.73 0.66 0.59 0.62 0.70 0.69 0.57 0.52 0.52 0.57 0.55 0.58 0.63 0.81 0.82 0.71 0.60 0.63 0.71 0.77 0.78 0.78 0.82 0.87 0.95 0.98 1.21 1.40 1.52
0.34 0.36 0.35 0.33 0.30 0.28 0.29 0.31 0.37 0.48 0.56 0.61 0.63 0.54 0.54 0.64 0.67 0.69 0.67 0.59 0.49 0.50 0.51 0.46 0.41 0.43 0.48 0.55 0.55 0.62 0.60 0.60 0.64 0.71 0.80 0.84 0.81 0.89 0.98 0.97 1.03 1.12 1.17
0.36 0.34 0.31 0.30 0.28 0.25 0.26 0.28 0.30 0.32 0.34 0.34 0.33 0.30 0.39 0.53 0.56 0.53 0.49 0.44 0.44 0.47 0.52 0.45 0.41 0.45 0.45 0.49 0.56 0.60 0.59 0.69 0.76 0.75 0.74 0.84 0.90 0.97 1.13 1.12 1.19 1.12 1.02
0.18 0.15 0.14 0.14 0.13 0.14 0.16 0.16 0.13 0.16 0.16 0.14 0.15 0.19 0.21 0.25 0.27 0.25 0.27 0.33 0.39 0.43 0.39 0.43 0.56 0.54 0.54 0.64 0.59 0.53 0.60 0.72 0.80 0.74 0.75 0.86 0.95 1.12 1.24 1.25 1.26 1.15 1.07
0.06 0.07 0.09 0.10 0.10 0.11 0.13 0.12 0.12 0.12 0.12 0.13 0.14 0.16 0.18 0.20 0.20 0.21 0.23 0.25 0.28 0.34 0.37 0.41 0.54 0.58 0.63 0.64 0.51 0.49 0.61 0.73 0.82 0.80 0.78 0.98 0.99 1.08 1.13 1.19 1.31 1.31 1.19
0.07 0.08 0.09 0.09 0.10 0.10 0.12 0.11 0.10 0.12 0.16 0.17 0.16 0.15 0.16 0.20 0.25 0.28 0.27 0.26 0.25 0.27 0.31 0.36 0.41 0.42 0.42 0.42 0.42 0.46 0.52 0.62 0.74 0.77 0.77 0.73 0.88 0.90 1.00 1.12 1.18 1.41 1.31
0.07 0.09 0.10 0.11 0.13 0.13 0.13 0.13 0.12 0.14 0.18 0.18 0.17 0.17 0.18 0.20 0.24 0.33 0.33 0.29 0.28 0.26 0.27 0.32 0.40 0.41 0.36 0.32 0.34 0.39 0.46 0.58 0.61 0.62 0.69 0.67 0.76 0.81 0.88 0.90 1.08 1.28 1.25
0.06 0.09 0.11 0.13 0.14 0.15 0.16 0.16 0.17 0.17 0.18 0.18 0.19 0.20 0.21 0.23 0.24 0.27 0.30 0.31 0.29 0.30 0.31 0.33 0.38 0.39 0.39 0.38 0.40 0.43 0.49 0.52 0.48 0.45 0.61 0.69 0.76 0.73 0.71 0.84 1.04 1.11 1.13
0.06 0.07 0.08 0.12 0.16 0.19 0.19 0.20 0.22 0.23 0.22 0.21 0.22 0.22 0.23 0.25 0.27 0.29 0.31 0.34 0.36 0.36 0.35 0.36 0.41 0.44 0.44 0.41 0.39 0.41 0.44 0.45 0.45 0.46 0.62 0.76 0.81 0.76 0.73 0.80 0.93 0.99 1.12
0.10 0.08 0.08 0.09 0.13 0.18 0.20 0.23 0.23 0.24 0.25 0.25 0.25 0.26 0.26 0.27 0.31 0.34 0.36 0.35 0.36 0.38 0.36 0.38 0.42 0.41 0.39 0.40 0.42 0.42 0.44 0.45 0.48 0.58 0.75 0.87 0.88 0.88 0.84 0.86 0.96 0.94 0.92
0.09 0.09 0.10 0.10 0.10 0.13 0.14 0.17 0.18 0.20 0.22 0.26 0.27 0.25 0.28 0.32 0.33 0.34 0.34 0.35 0.36 0.39 0.37 0.36 0.38 0.39 0.38 0.40 0.42 0.46 0.49 0.48 0.58 0.75 0.92 1.04 1.10 1.10 1.04 1.01 0.99 0.91 0.89

GEFSMW_prec_meanprecacc_276.txt.gz
Total_Precipitation_Accumulation
0.47 0.41 0.38 0.45 0.45 0.40 0.36 0.41 0.48 0.51 0.52 0.64 0.79 0.89 0.96 1.11 1.29 1.33 1.39 1.53 1.56 1.56 1.67 1.77 1.85 1.82 1.76 1.86 2.07 2.47 2.36 2.01 1.80 1.80 1.69 1.54 1.50 1.54 1.51 1.66 1.74 1.65 1.60
0.37 0.33 0.31 0.35 0.37 0.37 0.35 0.38 0.47 0.57 0.61 0.67 0.81 0.98 1.20 1.29 1.42 1.57 1.57 1.57 1.63 1.68 1.74 1.94 2.06 2.04 2.04 2.14 2.20 2.48 2.68 2.43 2.20 2.19 2.36 2.12 1.91 1.56 1.30 1.38 1.52 1.58 1.62
0.32 0.25 0.27 0.30 0.32 0.34 0.42 0.44 0.55 0.75 0.92 0.98 1.18 1.49 1.74 1.80 1.73 1.75 1.82 1.80 1.81 1.87 1.83 1.92 2.12 2.14 2.14 2.22 2.41 2.73 3.06 3.04 2.75 2.49 2.66 2.41 2.14 2.04 1.53 1.24 1.31 1.46 1.57
0.40 0.31 0.29 0.32 0.30 0.35 0.48 0.67 0.87 1.16 1.38 1.48 1.64 1.87 1.98 2.01 1.93 1.95 1.96 1.97 1.88 1.80 1.79 1.89 2.08 2.25 2.38 2.51 2.58 2.57 2.97 3.30 3.12 2.91 2.53 2.22 2.08 2.23 2.08 1.61 1.33 1.37 1.42
0.43 0.44 0.43 0.48 0.50 0.60 0.81 1.16 1.43 1.63 1.75 1.77 1.82 2.01 2.15 2.30 2.33 2.23 2.09 2.01 2.00 1.93 1.82 1.84 1.90 1.95 2.07 2.24 2.38 2.45 2.70 2.93 3.11 3.09 2.86 2.57 2.39 1.95 1.94 2.03 1.78 1.52 1.30
0.48 0.58 0.71 0.85 0.93 1.02 1.23 1.47 1.62 1.76 1.74 1.69 1.71 1.83 2.02 2.18 2.20 2.25 2.23 2.12 2.03 1.94 1.80 1.72 1.80 1.81 1.83 1.98 2.10 2.22 2.50 2.71 2.84 2.92 2.83 2.73 2.67 2.35 2.07 1.91 1.88 1.74 1.51
0.56 0.77 0.94 1.10 1.20 1.30 1.42 1.46 1.45 1.51 1.54 1.50 1.50 1.57 1.65 1.68 1.73 1.86 1.80 1.68 1.60 1.55 1.53 1.43 1.45 1.58 1.66 1.84 1.92 1.89 1.97 2.14 2.35 2.54 2.59 2.63 2.55 2.47 2.38 2.22 2.01 1.78 1.46
0.84 0.96 1.07 1.18 1.24 1.37 1.42 1.38 1.34 1.34 1.28 1.21 1.22 1.22 1.27 1.34 1.34 1.35 1.32 1.25 1.22 1.20 1.16 1.16 1.15 1.21 1.29 1.52 1.75 1.76 1.78 1.83 1.91 2.00 2.29 2.47 2.44 2.46 2.24 2.14 2.16 1.94 1.63
1.09 1.27 1.27 1.18 1.13 1.18 1.26 1.23 1.18 1.13 1.05 0.98 1.00 1.02 1.08 1.11 1.08 1.03 0.98 0.99 0.92 0.92 0.92 0.96 1.05 1.11 1.11 1.21 1.35 1.54 1.62 1.70 1.76 1.77 1.94 2.11 2.21 2.19 2.01 2.04 2.14 2.03 1.74
1.17 1.44 1.55 1.44 1.20 1.02 1.05 1.03 1.02 1.06 1.05 1.01 1.01 0.98 0.90 0.81 0.80 0.81 0.74 0.74 0.80 0.82 0.83 0.83 0.89 0.97 1.00 1.09 1.20 1.24 1.34 1.43 1.60 1.77 1.90 1.93 1.97 2.04 1.95 1.93 2.04 2.04 1.85
1.39 1.51 1.53 1.40 1.24 0.98 0.91 0.91 0.90 0.95 1.02 0.96 0.97 0.96 0.84 0.70 0.66 0.61 0.57 0.57 0.61 0.66 0.66 0.72 0.82 0.86 0.89 0.93 0.94 0.98 1.03 1.10 1.21 1.29 1.44 1.64 1.83 1.93 1.94 1.98 2.03 2.06 1.93
1.08 1.07 1.15 1.16 1.10 0.98 0.92 0.98 1.02 1.03 0.98 0.92 0.89 0.87 0.79 0.69 0.68 0.62 0.54 0.56 0.61 0.64 0.64 0.70 0.75 0.76 0.84 0.87 0.86 0.86 0.90 1.02 1.11 1.13 1.17 1.28 1.54 1.70 1.82 1.90 1.93 1.99 1.95
0.82 0.75 0.84 0.99 0.93 0.88 0.91 0.99 1.12 1.15 1.07 0.96 0.88 0.86 0.82 0.79 0.82 0.70 0.61 0.60 0.69 0.81 0.83 0.81 0.82 0.78 0.82 0.85 0.83 0.85 0.88 0.91 0.97 1.00 1.02 1.12 1.26 1.41 1.50 1.60 1.73 1.81 1.92
0.65 0.60 0.56 0.63 0.65 0.67 0.68 0.79 1.05 1.28 1.25 1.13 1.01 0.94 0.89 0.88 0.85 0.73 0.65 0.62 0.66 0.70 0.72 0.80 0.85 0.92 0.97 0.95 0.90 0.89 0.89 0.85 0.86 0.92 1.00 1.03 1.06 1.24 1.46 1.56 1.64 1.70 1.81
0.44 0.40 0.37 0.38 0.40 0.46 0.53 0.63 0.92 1.14 1.16 1.14 1.02 0.91 0.83 0.76 0.71 0.69 0.70 0.64 0.59 0.57 0.57 0.66 0.75 0.85 0.95 0.99 0.99 0.86 0.75 0.76 0.80 0.80 0.81 0.89 0.98 1.08 1.29 1.40 1.63 1.68 1.81
0.34 0.35 0.32 0.29 0.27 0.28 0.35 0.43 0.62 0.80 0.89 0.93 0.89 0.76 0.75 0.67 0.60 0.63 0.71 0.71 0.59 0.53 0.53 0.58 0.56 0.59 0.64 0.82 0.83 0.72 0.60 0.64 0.72 0.78 0.79 0.79 0.83 0.90 0.97 1.02 1.26 1.47 1.61
0.36 0.38 0.36 0.33 0.31 0.30 0.31 0.32 0.38 0.50 0.57 0.62 0.64 0.55 0.55 0.65 0.68 0.70 0.69 0.61 0.51 0.52 0.51 0.46 0.42 0.43 0.49 0.56 0.56 0.62 0.61 0.61 0.66 0.73 0.81 0.85 0.82 0.90 0.99 1.00 1.07 1.18 1.23
0.38 0.35 0.32 0.31 0.29 0.28 0.28 0.29 0.31 0.34 0.36 0.35 0.34 0.31 0.40 0.54 0.57 0.54 0.51 0.46 0.45 0.48 0.53 0.46 0.42 0.46 0.46 0.51 0.58 0.61 0.60 0.70 0.77 0.77 0.75 0.85 0.91 0.98 1.15 1.14 1.22 1.15 1.05
0.19 0.17 0.15 0.15 0.15 0.16 0.19 0.18 0.15 0.18 0.17 0.16 0.17 0.21 0.23 0.26 0.28 0.26 0.28 0.35 0.40 0.44 0.40 0.44 0.57 0.56 0.57 0.66 0.61 0.54 0.60 0.73 0.81 0.76 0.77 0.87 0.96 1.13 1.25 1.27 1.28 1.17 1.10
0.07 0.08 0.11 0.11 0.11 0.13 0.16 0.15 0.14 0.14 0.14 0.15 0.16 0.18 0.20 0.22 0.22 0.22 0.24 0.27 0.30 0.36 0.38 0.42 0.55 0.60 0.65 0.66 0.53 0.50 0.61 0.73 0.82 0.82 0.81 1.01 1.01 1.11 1.16 1.21 1.32 1.33 1.21
0.07 0.09 0.10 0.10 0.11 0.12 0.14 0.13 0.13 0.14 0.18 0.19 0.18 0.17 0.18 0.21 0.26 0.29 0.29 0.28 0.27 0.29 0.33 0.37 0.42 0.43 0.43 0.44 0.44 0.47 0.53 0.63 0.75 0.78 0.79 0.75 0.90 0.93 1.02 1.14 1.20 1.42 1.33
0.07 0.10 0.11 0.12 0.14 0.15 0.15 0.16 0.14 0.16 0.20 0.20 0.19 0.19 0.19 0.22 0.26 0.34 0.34 0.31 0.29 0.27 0.28 0.33 0.40 0.42 0.37 0.33 0.35 0.40 0.47 0.59 0.62 0.63 0.70 0.69 0.78 0.82 0.89 0.91 1.09 1.30 1.27
0.06 0.09 0.12 0.14 0.14 0.16 0.18 0.18 0.19 0.20 0.21 0.21 0.21 0.22 0.23 0.24 0.26 0.29 0.31 0.32 0.30 0.31 0.32 0.34 0.38 0.40 0.40 0.39 0.41 0.44 0.50 0.53 0.49 0.46 0.63 0.70 0.78 0.75 0.73 0.85 1.05 1.12 1.15
0.07 0.07 0.09 0.12 0.17 0.19 0.20 0.21 0.24 0.25 0.25 0.24 0.24 0.23 0.25 0.27 0.28 0.31 0.33 0.35 0.37 0.37 0.37 0.37 0.41 0.44 0.44 0.42 0.40 0.41 0.45 0.46 0.45 0.47 0.63 0.77 0.82 0.78 0.74 0.81 0.94 1.00 1.13
0.11 0.09 0.09 0.11 0.14 0.19 0.21 0.24 0.24 0.27 0.28 0.27 0.27 0.27 0.27 0.29 0.32 0.35 0.37 0.37 0.37 0.40 0.38 0.39 0.43 0.42 0.39 0.41 0.42 0.43 0.45 0.46 0.49 0.59 0.76 0.89 0.89 0.89 0.85 0.87 0.96 0.95 0.94
0.11 0.11 0.12 0.11 0.12 0.14 0.15 0.19 0.20 0.22 0.26 0.30 0.29 0.27 0.29 0.33 0.33 0.35 0.35 0.37 0.38 0.40 0.38 0.37 0.40 0.40 0.39 0.41 0.43 0.47 0.50 0.49 0.59 0.76 0.93 1.05 1.12 1.12 1.06 1.01 0.99 0.92 0.90

GEFSMW_prec_meanprecacc_282.txt.gz
Total_Precipitation_Accumulation
0.48 0.42 0.39 0.45 0.46 0.41 0.37 0.43 0.49 0.52 0.53 0.65 0.80 0.90 0.98 1.12 1.30 1.35 1.42 1.57 1.60 1.60 1.69 1.79 1.86 1.83 1.78 1.88 2.08 2.48 2.37 2.02 1.80 1.81 1.70 1.55 1.53 1.58 1.54 1.68 1.75 1.66 1.61
0.37 0.34 0.32 0.35 0.37 0.38 0.36 0.38 0.49 0.58 0.62 0.68 0.82 0.99 1.22 1.30 1.43 1.59 1.59 1.60 1.66 1.70 1.77 1.95 2.07 2.05 2.06 2.16 2.22 2.50 2.69 2.43 2.21 2.20 2.37 2.14 1.93 1.61 1.36 1.41 1.53 1.59 1.63
0.32 0.26 0.28 0.30 0.32 0.34 0.42 0.44 0.56 0.76 0.93 1.00 1.20 1.50 1.75 1.81 1.75 1.78 1.85 1.82 1.83 1.90 1.86 1.94 2.14 2.15 2.16 2.24 2.43 2.75 3.08 3.06 2.76 2.51 2.68 2.43 2.15 2.06 1.56 1.26 1.32 1.46 1.58
0.40 0.31 0.29 0.32 0.30 0.35 0.49 0.68 0.88 1.18 1.39 1.50 1.65 1.88 1.99 2.02 1.94 1.96 1.98 1.99 1.89 1.82 1.82 1.91 2.10 2.26 2.40 2.53 2.60 2.59 3.00 3.33 3.15 2.93 2.55 2.22 2.09 2.24 2.10 1.62 1.34 1.38 1.42
0.43 0.44 0.43 0.48 0.50 0.60 0.81 1.16 1.44 1.63 1.76 1.79 1.84 2.02 2.16 2.31 2.33 2.24 2.10 2.03 2.01 1.94 1.84 1.86 1.92 1.96 2.08 2.26 2.40 2.46 2.72 2.96 3.14 3.12 2.89 2.59 2.40 1.96 1.96 2.04 1.79 1.53 1.30
0.48 0.58 0.71 0.85 0.94 1.02 1.23 1.47 1.62 1.76 1.74 1.71 1.73 1.84 2.03 2.18 2.20 2.25 2.24 2.13 2.04 1.95 1.81 1.73 1.81 1.83 1.84 1.99 2.12 2.24 2.53 2.73 2.88 2.95 2.87 2.76 2.68 2.36 2.08 1.93 1.90 1.75 1.51
0.57 0.77 0.94 1.10 1.21 1.31 1.42 1.46 1.45 1.52 1.55 1.50 1.50 1.57 1.66 1.69 1.73 1.86 1.80 1.69 1.61 1.56 1.53 1.43 1.46 1.60 1.67 1.85 1.94 1.91 1.99 2.17 2.39 2.57 2.62 2.65 2.56 2.48 2.39 2.24 2.03 1.79 1.47
0.84 0.96 1.07 1.18 1.24 1.37 1.42 1.38 1.34 1.34 1.28 1.21 1.23 1.22 1.28 1.36 1.35 1.36 1.33 1.26 1.22 1.21 1.17 1.16 1.16 1.21 1.30 1.52 1.76 1.79 1.80 1.85 1.93 2.02 2.30 2.48 2.45 2.47 2.26 2.15 2.19 1.96 1.64
1.09 1.27 1.27 1.18 1.13 1.19 1.26 1.24 1.19 1.14 1.05 0.99 1.01 1.02 1.08 1.12 1.09 1.04 0.98 0.99 0.93 0.93 0.92 0.97 1.05 1.12 1.12 1.22 1.37 1.58 1.64 1.72 1.79 1.79 1.95 2.11 2.22 2.21 2.03 2.06 2.16 2.07 1.77
1.18 1.45 1.56 1.44 1.20 1.03 1.06 1.03 1.02 1.06 1.05 1.01 1.01 0.98 0.90 0.82 0.80 0.81 0.74 0.74 0.80 0.82 0.84 0.84 0.90 0.97 1.01 1.10 1.21 1.26 1.36 1.46 1.62 1.79 1.92 1.94 1.98 2.06 1.96 1.95 2.06 2.06 1.88
1.40 1.52 1.53 1.40 1.25 0.99 0.92 0.92 0.91 0.95 1.03 0.97 0.98 0.96 0.85 0.72 0.67 0.62 0.57 0.58 0.62 0.67 0.67 0.73 0.84 0.88 0.91 0.94 0.95 0.99 1.04 1.11 1.23 1.31 1.46 1.66 1.84 1.95 1.95 1.99 2.04 2.07 1.95
1.09 1.08 1.16 1.16 1.10 0.99 0.92 0.99 1.02 1.04 0.99 0.93 0.90 0.87 0.80 0.70 0.70 0.64 0.56 0.58 0.63 0.65 0.65 0.71 0.77 0.79 0.85 0.89 0.87 0.86 0.91 1.03 1.12 1.14 1.18 1.29 1.56 1.72 1.83 1.91 1.94 2.00 1.96
0.82 0.75 0.85 0.99 0.93 0.88 0.92 1.00 1.13 1.16 1.09 0.97 0.89 0.87 0.82 0.80 0.83 0.72 0.63 0.62 0.70 0.82 0.84 0.82 0.85 0.81 0.84 0.87 0.85 0.86 0.89 0.92 0.98 1.01 1.03 1.13 1.27 1.43 1.52 1.62 1.74 1.82 1.93
0.65 0.60 0.57 0.64 0.65 0.67 0.69 0.81 1.06 1.29 1.27 1.14 1.02 0.95 0.90 0.89 0.87 0.74 0.67 0.64 0.67 0.71 0.74 0.81 0.87 0.93 0.98 0.97 0.91 0.90 0.90 0.86 0.87 0.93 1.01 1.03 1.07 1.25 1.47 1.58 1.67 1.72 1.83
0.45 0.40 0.37 0.39 0.41 0.46 0.54 0.65 0.94 1.15 1.17 1.15 1.02 0.92 0.84 0.77 0.72 0.70 0.72 0.66 0.60 0.59 0.59 0.68 0.76 0.86 0.96 1.00 0.99 0.86 0.76 0.77 0.82 0.81 0.82 0.89 0.99 1.09 1.29 1.41 1.64 1.70 1.83
0.36 0.36 0.33 0.30 0.27 0.29 0.37 0.45 0.63 0.81 0.90 0.94 0.90 0.77 0.75 0.68 0.61 0.64 0.72 0.72 0.61 0.55 0.55 0.59 0.57 0.60 0.65 0.84 0.84 0.73 0.61 0.64 0.74 0.80 0.81 0.80 0.84 0.91 0.98 1.02 1.26 1.48 1.63
0.37 0.39 0.38 0.35 0.32 0.31 0.32 0.33 0.39 0.51 0.58 0.63 0.65 0.56 0.55 0.66 0.69 0.71 0.70 0.62 0.53 0.54 0.53 0.48 0.43 0.45 0.51 0.57 0.57 0.63 0.61 0.62 0.66 0.74 0.83 0.87 0.84 0.91 1.00 1.01 1.08 1.18 1.25
0.40 0.36 0.34 0.32 0.30 0.29 0.30 0.31 0.32 0.36 0.37 0.36 0.35 0.33 0.41 0.55 0.58 0.55 0.53 0.47 0.47 0.50 0.55 0.47 0.43 0.47 0.48 0.52 0.58 0.62 0.60 0.70 0.78 0.78 0.76 0.87 0.93 0.99 1.16 1.16 1.23 1.17 1.08
0.21 0.18 0.17 0.17 0.16 0.18 0.20 0.19 0.17 0.20 0.20 0.19 0.19 0.23 0.26 0.29 0.29 0.27 0.29 0.36 0.42 0.46 0.41 0.45 0.59 0.58 0.58 0.67 0.62 0.55 0.61 0.73 0.81 0.77 0.78 0.89 0.97 1.16 1.27 1.29 1.29 1.19 1.12
0.08 0.10 0.12 0.12 0.12 0.14 0.17 0.16 0.17 0.17 0.18 0.18 0.19 0.20 0.22 0.24 0.23 0.23 0.25 0.29 0.32 0.37 0.39 0.43 0.57 0.62 0.66 0.68 0.54 0.52 0.62 0.74 0.83 0.82 0.81 1.03 1.02 1.13 1.18 1.23 1.34 1.35 1.23
0.08 0.10 0.11 0.11 0.12 0.13 0.15 0.14 0.14 0.17 0.22 0.23 0.21 0.19 0.19 0.22 0.27 0.30 0.30 0.29 0.28 0.30 0.34 0.38 0.43 0.44 0.44 0.45 0.45 0.48 0.53 0.63 0.76 0.78 0.80 0.77 0.92 0.96 1.05 1.15 1.21 1.44 1.35
0.08 0.11 0.12 0.13 0.15 0.15 0.16 0.16 0.15 0.18 0.24 0.24 0.22 0.20 0.21 0.23 0.27 0.34 0.35 0.32 0.30 0.28 0.29 0.34 0.41 0.42 0.38 0.35 0.37 0.41 0.48 0.61 0.63 0.64 0.71 0.71 0.80 0.84 0.92 0.93 1.11 1.31 1.30
0.07 0.10 0.13 0.15 0.15 0.16 0.18 0.19 0.20 0.21 0.23 0.25 0.24 0.24 0.24 0.25 0.27 0.30 0.32 0.33 0.31 0.32 0.33 0.34 0.39 0.41 0.41 0.40 0.43 0.46 0.51 0.54 0.50 0.47 0.63 0.71 0.79 0.76 0.74 0.88 1.09 1.14 1.17
0.07 0.08 0.10 0.13 0.18 0.20 0.21 0.23 0.25 0.27 0.27 0.27 0.27 0.26 0.27 0.29 0.30 0.33 0.35 0.37 0.38 0.38 0.37 0.38 0.42 0.45 0.45 0.43 0.40 0.42 0.46 0.47 0.46 0.47 0.63 0.77 0.83 0.79 0.76 0.84 0.97 1.01 1.14
0.12 0.10 0.10 0.12 0.16 0.20 0.22 0.25 0.26 0.29 0.30 0.30 0.30 0.30 0.29 0.30 0.34 0.37 0.39 0.38 0.38 0.41 0.39 0.40 0.44 0.43 0.40 0.42 0.43 0.43 0.45 0.46 0.49 0.59 0.76 0.89 0.90 0.91 0.87 0.89 0.98 0.97 0.95
0.11 0.12 0.12 0.12 0.12 0.15 0.16 0.19 0.21 0.23 0.26 0.31 0.30 0.29 0.32 0.35 0.35 0.36 0.36 0.38 0.39 0.41 0.39 0.38 0.41 0.41 0.40 0.42 0.45 0.48 0.51 0.49 0.59 0.77 0.93 1.06 1.13 1.13 1.08 1.04 1.01 0.93 0.91

GEFSMW_prec_meanprecacc_288.txt.gz
Total_Precipitation_Accumulation
0.48 0.42 0.39 0.45 0.46 0.41 0.38 0.43 0.49 0.53 0.54 0.66 0.80 0.90 0.99 1.13 1.31 1.36 1.43 1.58 1.63 1.63 1.72 1.82 1.89 1.86 1.81 1.90 2.10 2.51 2.40 2.04 1.82 1.83 1.70 1.56 1.53 1.59 1.55 1.68 1.76 1.67 1.62
0.37 0.34 0.32 0.35 0.37 0.38 0.36 0.38 0.49 0.58 0.62 0.68 0.83 1.00 1.23 1.32 1.44 1.61 1.61 1.62 1.68 1.73 1.79 1.98 2.10 2.07 2.08 2.17 2.25 2.54 2.73 2.45 2.23 2.23 2.40 2.16 1.95 1.62 1.37 1.42 1.54 1.60 1.64
0.32 0.26 0.28 0.30 0.32 0.34 0.42 0.44 0.56 0.76 0.93 1.01 1.22 1.52 1.78 1.84 1.77 1.79 1.87 1.84 1.85 1.93 1.88 1.95 2.16 2.17 2.18 2.26 2.47 2.79 3.13 3.09 2.78 2.53 2.71 2.46 2.17 2.08 1.58 1.28 1.34 1.48 1.60
0.40 0.31 0.29 0.32 0.30 0.35 0.49 0.68 0.88 1.18 1.40 1.50 1.66 1.89 2.00 2.04 1.96 1.97 2.00 2.01 1.92 1.85 1.85 1.93 2.11 2.28 2.42 2.56 2.63 2.61 3.03 3.37 3.18 2.95 2.57 2.25 2.11 2.26 2.13 1.64 1.35 1.39 1.44
0.44 0.44 0.43 0.48 0.50 0.60 0.81 1.16 1.44 1.63 1.76 1.79 1.85 2.03 2.17 2.33 2.36 2.26 2.11 2.05 2.03 1.97 1.88 1.90 1.94 1.99 2.11 2.28 2.43 2.48 2.74 3.00 3.18 3.15 2.92 2.61 2.42 1.98 1.98 2.06 1.81 1.54 1.32
0.48 0.58 0.71 0.85 0.94 1.02 1.23 1.47 1.62 1.77 1.75 1.71 1.73 1.85 2.04 2.20 2.23 2.27 2.24 2.14 2.06 1.97 1.84 1.77 1.84 1.86 1.87 2.02 2.15 2.26 2.54 2.76 2.92 2.98 2.90 2.79 2.71 2.38 2.11 1.95 1.91 1.77 1.53
0.57 0.77 0.94 1.10 1.21 1.31 1.42 1.46 1.45 1.52 1.55 1.51 1.50 1.57 1.67 1.70 1.75 1.88 1.81 1.70 1.62 1.57 1.54 1.46 1.48 1.62 1.70 1.87 1.95 1.92 2.00 2.18 2.41 2.60 2.65 2.68 2.59 2.50 2.42 2.26 2.05 1.81 1.48
0.84 0.97 1.08 1.19 1.24 1.37 1.43 1.39 1.35 1.35 1.28 1.22 1.23 1.23 1.29 1.37 1.37 1.37 1.34 1.27 1.24 1.22 1.17 1.18 1.17 1.23 1.32 1.53 1.77 1.79 1.81 1.86 1.96 2.04 2.32 2.51 2.48 2.49 2.27 2.17 2.21 1.98 1.66
1.10 1.28 1.28 1.20 1.14 1.20 1.27 1.24 1.19 1.14 1.06 0.99 1.01 1.02 1.10 1.14 1.10 1.05 0.99 1.00 0.94 0.93 0.92 0.97 1.06 1.12 1.12 1.22 1.37 1.59 1.66 1.73 1.81 1.81 1.97 2.13 2.23 2.23 2.05 2.08 2.18 2.09 1.79
1.18 1.46 1.57 1.45 1.21 1.04 1.07 1.04 1.02 1.07 1.05 1.01 1.01 0.99 0.91 0.84 0.82 0.82 0.75 0.75 0.81 0.82 0.84 0.85 0.90 0.98 1.02 1.10 1.22 1.28 1.38 1.48 1.64 1.81 1.94 1.96 2.00 2.07 1.98 1.96 2.07 2.08 1.90
1.40 1.52 1.54 1.41 1.25 1.00 0.94 0.94 0.92 0.97 1.04 0.97 0.98 0.97 0.86 0.73 0.69 0.64 0.59 0.59 0.63 0.68 0.68 0.74 0.85 0.88 0.91 0.95 0.96 1.00 1.05 1.13 1.25 1.32 1.47 1.68 1.87 1.97 1.97 2.01 2.06 2.09 1.96
1.10 1.09 1.17 1.17 1.11 0.99 0.93 1.00 1.04 1.05 1.00 0.95 0.92 0.88 0.81 0.71 0.70 0.65 0.57 0.59 0.64 0.66 0.66 0.72 0.78 0.80 0.87 0.90 0.88 0.88 0.93 1.04 1.14 1.16 1.21 1.33 1.58 1.73 1.84 1.93 1.96 2.02 1.98
0.84 0.76 0.85 1.00 0.94 0.89 0.93 1.02 1.15 1.17 1.10 0.99 0.90 0.87 0.83 0.81 0.84 0.72 0.64 0.63 0.71 0.83 0.85 0.83 0.86 0.82 0.86 0.88 0.86 0.88 0.91 0.93 1.00 1.03 1.06 1.16 1.29 1.45 1.54 1.64 1.75 1.84 1.95
0.68 0.61 0.57 0.64 0.66 0.68 0.70 0.83 1.08 1.30 1.28 1.16 1.03 0.96 0.91 0.91 0.88 0.75 0.68 0.64 0.68 0.72 0.74 0.82 0.89 0.95 1.00 0.99 0.93 0.93 0.93 0.88 0.89 0.95 1.03 1.06 1.09 1.27 1.49 1.59 1.69 1.74 1.84
0.48 0.41 0.38 0.40 0.41 0.46 0.55 0.67 0.96 1.16 1.18 1.16 1.03 0.93 0.85 0.79 0.73 0.71 0.72 0.67 0.61 0.60 0.60 0.70 0.78 0.88 0.98 1.03 1.02 0.89 0.78 0.79 0.83 0.84 0.85 0.92 1.01 1.12 1.32 1.43 1.66 1.71 1.85
0.38 0.37 0.34 0.31 0.28 0.29 0.37 0.47 0.65 0.82 0.91 0.95 0.91 0.78 0.76 0.69 0.61 0.65 0.73 0.73 0.62 0.56 0.56 0.60 0.58 0.62 0.68 0.87 0.87 0.75 0.63 0.66 0.76 0.83 0.84 0.83 0.86 0.93 1.00 1.05 1.28 1.49 1.65
0.41 0.41 0.40 0.36 0.34 0.32 0.33 0.36 0.42 0.52 0.59 0.64 0.66 0.57 0.56 0.66 0.69 0.71 0.71 0.63 0.54 0.55 0.54 0.49 0.44 0.47 0.54 0.60 0.58 0.65 0.63 0.64 0.69 0.77 0.85 0.89 0.86 0.92 1.01 1.02 1.10 1.20 1.26
0.44 0.40 0.37 0.34 0.32 0.31 0.31 0.34 0.35 0.37 0.38 0.37 0.36 0.34 0.42 0.55 0.58 0.56 0.53 0.49 0.48 0.52 0.56 0.48 0.44 0.49 0.50 0.54 0.59 0.63 0.62 0.73 0.80 0.80 0.79 0.89 0.94 1.00 1.17 1.17 1.24 1.18 1.09
0.24 0.22 0.21 0.20 0.20 0.21 0.22 0.22 0.20 0.21 0.21 0.20 0.20 0.24 0.27 0.30 0.30 0.28 0.31 0.38 0.44 0.48 0.44 0.47 0.60 0.59 0.59 0.68 0.63 0.56 0.63 0.75 0.83 0.78 0.79 0.90 0.98 1.16 1.28 1.31 1.31 1.21 1.13
0.09 0.11 0.14 0.15 0.16 0.18 0.20 0.19 0.19 0.19 0.19 0.20 0.21 0.23 0.23 0.25 0.25 0.25 0.27 0.31 0.36 0.41 0.42 0.46 0.59 0.63 0.67 0.69 0.55 0.53 0.63 0.76 0.84 0.83 0.82 1.03 1.03 1.13 1.19 1.24 1.36 1.36 1.24
0.09 0.11 0.12 0.13 0.14 0.15 0.17 0.16 0.16 0.19 0.24 0.26 0.24 0.22 0.21 0.24 0.30 0.33 0.33 0.33 0.32 0.35 0.39 0.43 0.46 0.46 0.45 0.46 0.47 0.49 0.54 0.64 0.76 0.79 0.80 0.77 0.92 0.96 1.06 1.16 1.22 1.45 1.36
0.08 0.11 0.13 0.14 0.16 0.17 0.17 0.18 0.16 0.19 0.25 0.26 0.24 0.24 0.24 0.25 0.29 0.37 0.38 0.36 0.35 0.33 0.33 0.37 0.43 0.44 0.38 0.36 0.38 0.42 0.49 0.61 0.64 0.64 0.72 0.72 0.81 0.85 0.93 0.94 1.12 1.32 1.31
0.07 0.10 0.13 0.16 0.17 0.18 0.20 0.21 0.21 0.22 0.24 0.25 0.26 0.26 0.27 0.27 0.29 0.32 0.34 0.36 0.36 0.36 0.36 0.36 0.40 0.41 0.42 0.41 0.44 0.47 0.51 0.55 0.50 0.47 0.64 0.72 0.80 0.77 0.75 0.89 1.10 1.15 1.17
0.07 0.09 0.11 0.14 0.19 0.22 0.23 0.25 0.27 0.28 0.28 0.28 0.29 0.28 0.30 0.31 0.32 0.35 0.37 0.40 0.41 0.41 0.40 0.40 0.44 0.46 0.47 0.43 0.41 0.43 0.46 0.47 0.46 0.48 0.64 0.78 0.84 0.80 0.77 0.85 0.99 1.03 1.15
0.12 0.11 0.11 0.14 0.18 0.23 0.25 0.29 0.29 0.32 0.32 0.32 0.32 0.32 0.31 0.32 0.35 0.38 0.41 0.41 0.41 0.44 0.42 0.43 0.46 0.44 0.41 0.43 0.45 0.45 0.46 0.47 0.50 0.60 0.76 0.89 0.90 0.91 0.87 0.90 1.00 0.99 0.97
0.12 0.13 0.13 0.13 0.14 0.16 0.18 0.23 0.24 0.26 0.29 0.33 0.32 0.30 0.33 0.36 0.36 0.37 0.37 0.40 0.41 0.44 0.42 0.41 0.43 0.43 0.42 0.44 0.46 0.49 0.52 0.50 0.60 0.77 0.93 1.06 1.13 1.13 1.09 1.05 1.02 0.95 0.93

GEFSMW_prec_meanprecacc_294.txt.gz
Total_Precipitation_Accumulation
0.48 0.42 0.39 0.46 0.46 0.41 0.38 0.43 0.50 0.53 0.54 0.66 0.80 0.91 1.00 1.14 1.32 1.37 1.44 1.59 1.65 1.65 1.75 1.84 1.91 1.87 1.82 1.91 2.11 2.53 2.42 2.07 1.85 1.84 1.71 1.57 1.54 1.59 1.55 1.68 1.77 1.67 1.63
0.38 0.34 0.33 0.35 0.38 0.38 0.36 0.39 0.49 0.58 0.63 0.69 0.84 1.01 1.24 1.33 1.46 1.64 1.65 1.66 1.73 1.78 1.83 2.02 2.13 2.09 2.09 2.19 2.26 2.55 2.74 2.47 2.25 2.24 2.41 2.17 1.95 1.63 1.38 1.43 1.54 1.60 1.64
0.33 0.27 0.29 0.31 0.33 0.35 0.42 0.45 0.56 0.76 0.93 1.01 1.23 1.54 1.80 1.85 1.80 1.82 1.90 1.88 1.90 1.96 1.91 1.98 2.17 2.19 2.19 2.27 2.48 2.80 3.14 3.11 2.80 2.54 2.72 2.47 2.18 2.09 1.59 1.29 1.35 1.49 1.61
0.41 0.32 0.30 0.33 0.31 0.36 0.50 0.68 0.88 1.18 1.40 1.50 1.67 1.91 2.02 2.05 1.99 2.00 2.01 2.04 1.96 1.88 1.87 1.95 2.12 2.29 2.43 2.57 2.64 2.62 3.03 3.38 3.18 2.96 2.58 2.26 2.11 2.27 2.13 1.65 1.35 1.40 1.45
0.45 0.46 0.45 0.50 0.51 0.61 0.82 1.17 1.44 1.64 1.76 1.80 1.86 2.05 2.19 2.36 2.40 2.28 2.13 2.07 2.07 2.00 1.90 1.91 1.95 2.00 2.12 2.29 2.44 2.50 2.75 3.01 3.19 3.17 2.94 2.63 2.42 1.98 1.99 2.07 1.81 1.54 1.32
0.50 0.60 0.73 0.87 0.94 1.03 1.24 1.48 1.63 1.78 1.76 1.72 1.75 1.86 2.06 2.23 2.25 2.29 2.26 2.16 2.09 2.01 1.86 1.79 1.85 1.87 1.88 2.03 2.16 2.28 2.56 2.77 2.93 3.00 2.92 2.81 2.72 2.39 2.11 1.95 1.91 1.77 1.53
0.60 0.82 0.99 1.13 1.23 1.33 1.44 1.48 1.47 1.54 1.56 1.52 1.51 1.58 1.68 1.72 1.77 1.90 1.83 1.71 1.63 1.59 1.56 1.48 1.50 1.63 1.71 1.88 1.97 1.93 2.01 2.19 2.42 2.60 2.66 2.70 2.60 2.52 2.42 2.27 2.05 1.81 1.49
0.87 1.01 1.12 1.23 1.28 1.41 1.46 1.42 1.38 1.36 1.30 1.23 1.24 1.24 1.30 1.39 1.39 1.39 1.36 1.28 1.25 1.23 1.19 1.20 1.19 1.24 1.33 1.55 1.78 1.80 1.81 1.87 1.97 2.05 2.33 2.52 2.49 2.50 2.29 2.18 2.22 1.98 1.66
1.12 1.31 1.31 1.23 1.18 1.23 1.31 1.28 1.23 1.17 1.08 1.00 1.02 1.03 1.11 1.15 1.12 1.07 1.02 1.02 0.95 0.95 0.93 0.98 1.07 1.14 1.13 1.23 1.39 1.60 1.66 1.74 1.81 1.82 1.99 2.14 2.24 2.24 2.07 2.10 2.19 2.09 1.79
1.21 1.49 1.60 1.48 1.23 1.06 1.10 1.06 1.05 1.10 1.09 1.03 1.03 1.00 0.93 0.86 0.83 0.83 0.77 0.77 0.83 0.84 0.85 0.86 0.91 0.99 1.03 1.11 1.22 1.28 1.39 1.49 1.65 1.82 1.95 1.97 2.01 2.09 1.99 1.98 2.09 2.08 1.90
1.43 1.55 1.57 1.44 1.28 1.02 0.96 0.95 0.95 0.99 1.06 0.99 1.01 0.99 0.88 0.75 0.70 0.65 0.60 0.61 0.65 0.70 0.70 0.76 0.86 0.89 0.92 0.95 0.96 1.00 1.06 1.14 1.26 1.32 1.48 1.69 1.88 1.98 1.98 2.02 2.07 2.10 1.97
1.13 1.12 1.20 1.20 1.14 1.01 0.95 1.02 1.06 1.07 1.02 0.96 0.93 0.90 0.84 0.74 0.73 0.66 0.59 0.60 0.65 0.67 0.68 0.74 0.80 0.82 0.88 0.90 0.88 0.88 0.93 1.04 1.14 1.17 1.21 1.34 1.60 1.75 1.85 1.94 1.96 2.03 1.99
0.87 0.80 0.89 1.03 0.97 0.91 0.94 1.03 1.17 1.19 1.12 1.01 0.92 0.89 0.84 0.83 0.86 0.74 0.65 0.65 0.73 0.84 0.86 0.85 0.88 0.84 0.87 0.89 0.87 0.89 0.92 0.95 1.02 1.05 1.07 1.17 1.30 1.46 1.55 1.65 1.76 1.85 1.96
0.72 0.67 0.61 0.67 0.69 0.71 0.72 0.85 1.11 1.34 1.31 1.18 1.05 0.97 0.92 0.92 0.89 0.76 0.70 0.66 0.69 0.73 0.76 0.84 0.91 0.96 1.01 0.99 0.94 0.94 0.95 0.90 0.92 0.99 1.05 1.08 1.10 1.29 1.51 1.61 1.70 1.75 1.85
0.53 0.48 0.44 0.43 0.44 0.49 0.57 0.69 0.99 1.22 1.21 1.18 1.04 0.93 0.86 0.80 0.74 0.72 0.74 0.69 0.63 0.61 0.61 0.70 0.79 0.90 0.99 1.03 1.03 0.90 0.80 0.81 0.87 0.87 0.88 0.95 1.04 1.14 1.35 1.46 1.68 1.73 1.87
0.47 0.45 0.39 0.35 0.32 0.32 0.40 0.50 0.69 0.88 0.95 0.97 0.91 0.79 0.77 0.70 0.62 0.66 0.75 0.75 0.64 0.58 0.57 0.61 0.59 0.63 0.68 0.88 0.88 0.77 0.65 0.68 0.78 0.85 0.86 0.86 0.91 0.97 1.03 1.08 1.31 1.51 1.66
0.48 0.47 0.44 0.40 0.37 0.35 0.36 0.39 0.46 0.57 0.64 0.66 0.66 0.57 0.57 0.67 0.69 0.72 0.72 0.65 0.56 0.59 0.57 0.51 0.47 0.49 0.56 0.62 0.60 0.66 0.65 0.66 0.71 0.79 0.87 0.92 0.90 0.96 1.04 1.05 1.13 1.22 1.28
0.48 0.46 0.43 0.37 0.35 0.34 0.34 0.37 0.39 0.42 0.42 0.39 0.37 0.34 0.43 0.57 0.59 0.56 0.54 0.49 0.49 0.54 0.59 0.51 0.47 0.51 0.52 0.56 0.61 0.64 0.63 0.74 0.81 0.81 0.80 0.93 0.98 1.03 1.18 1.18 1.26 1.20 1.11
0.27 0.27 0.28 0.25 0.23 0.24 0.25 0.25 0.23 0.25 0.24 0.21 0.22 0.26 0.28 0.32 0.32 0.30 0.32 0.38 0.45 0.50 0.46 0.49 0.62 0.61 0.61 0.70 0.65 0.57 0.63 0.76 0.84 0.79 0.81 0.92 1.00 1.18 1.29 1.31 1.32 1.22 1.15
0.11 0.14 0.20 0.23 0.21 0.21 0.23 0.23 0.22 0.22 0.22 0.22 0.23 0.25 0.25 0.28 0.28 0.28 0.29 0.33 0.38 0.43 0.45 0.49 0.62 0.66 0.70 0.71 0.58 0.55 0.65 0.76 0.85 0.84 0.83 1.04 1.04 1.14 1.19 1.24 1.36 1.36 1.25
0.11 0.13 0.16 0.20 0.21 0.20 0.21 0.20 0.19 0.22 0.27 0.28 0.26 0.25 0.25 0.27 0.32 0.35 0.35 0.34 0.34 0.37 0.41 0.46 0.50 0.50 0.49 0.49 0.50 0.52 0.56 0.66 0.78 0.80 0.81 0.77 0.93 0.97 1.06 1.17 1.22 1.45 1.37
0.09 0.13 0.15 0.18 0.21 0.21 0.21 0.21 0.20 0.21 0.27 0.29 0.27 0.27 0.28 0.28 0.32 0.40 0.40 0.38 0.37 0.35 0.35 0.40 0.48 0.49 0.43 0.40 0.41 0.45 0.51 0.63 0.65 0.65 0.73 0.72 0.82 0.86 0.93 0.94 1.12 1.32 1.31
0.08 0.12 0.15 0.18 0.20 0.22 0.25 0.26 0.25 0.25 0.27 0.28 0.29 0.29 0.30 0.30 0.32 0.35 0.37 0.39 0.38 0.39 0.39 0.40 0.45 0.47 0.46 0.45 0.47 0.49 0.54 0.57 0.51 0.48 0.65 0.73 0.81 0.77 0.75 0.89 1.10 1.15 1.18
0.08 0.10 0.12 0.16 0.22 0.25 0.26 0.30 0.31 0.32 0.32 0.32 0.33 0.33 0.34 0.34 0.35 0.37 0.40 0.42 0.43 0.44 0.43 0.43 0.48 0.51 0.50 0.46 0.43 0.45 0.48 0.49 0.47 0.49 0.65 0.79 0.84 0.80 0.77 0.85 0.99 1.03 1.16
0.13 0.12 0.13 0.15 0.20 0.25 0.28 0.33 0.34 0.37 0.36 0.35 0.36 0.37 0.37 0.37 0.39 0.41 0.44 0.45 0.44 0.46 0.44 0.45 0.48 0.47 0.45 0.45 0.47 0.47 0.48 0.49 0.51 0.61 0.77 0.90 0.90 0.91 0.87 0.90 1.00 0.99 0.98
0.14 0.14 0.14 0.14 0.16 0.18 0.20 0.25 0.28 0.32 0.35 0.38 0.36 0.34 0.37 0.40 0.39 0.40 0.40 0.43 0.45 0.47 0.44 0.42 0.45 0.45 0.45 0.47 0.49 0.52 0.54 0.53 0.62 0.79 0.94 1.06 1.13 1.14 1.09 1.05 1.02 0.96 0.94

GEFSMW_prec_meanprecacc_300.txt.gz
Total_Precipitation_Accumulation
0.49 0.43 0.40 0.46 0.47 0.41 0.38 0.44 0.51 0.54 0.55 0.66 0.81 0.91 1.00 1.15 1.33 1.39 1.47 1.62 1.67 1.67 1.78 1.88 1.93 1.90 1.84 1.92 2.12 2.55 2.46 2.12 1.90 1.88 1.74 1.58 1.55 1.60 1.56 1.69 1.77 1.68 1.63
0.39 0.35 0.33 0.36 0.38 0.38 0.37 0.39 0.50 0.59 0.63 0.69 0.84 1.01 1.25 1.33 1.47 1.67 1.68 1.68 1.75 1.80 1.86 2.05 2.15 2.11 2.11 2.20 2.27 2.57 2.76 2.51 2.30 2.28 2.43 2.19 1.97 1.63 1.39 1.44 1.55 1.61 1.65
0.34 0.27 0.29 0.32 0.33 0.35 0.43 0.46 0.57 0.77 0.94 1.02 1.24 1.55 1.81 1.87 1.81 1.84 1.91 1.89 1.92 2.00 1.96 2.01 2.20 2.22 2.21 2.28 2.49 2.81 3.16 3.13 2.82 2.56 2.74 2.49 2.19 2.10 1.59 1.29 1.35 1.49 1.61
0.42 0.33 0.31 0.34 0.32 0.37 0.50 0.69 0.89 1.19 1.40 1.51 1.67 1.92 2.04 2.07 2.01 2.01 2.02 2.05 1.98 1.91 1.91 1.98 2.16 2.33 2.46 2.58 2.64 2.63 3.05 3.39 3.20 2.98 2.59 2.27 2.12 2.28 2.14 1.65 1.35 1.40 1.45
0.46 0.47 0.46 0.51 0.52 0.61 0.83 1.18 1.45 1.64 1.76 1.80 1.87 2.07 2.21 2.37 2.41 2.29 2.14 2.09 2.09 2.03 1.93 1.94 1.98 2.03 2.14 2.30 2.44 2.50 2.76 3.01 3.20 3.18 2.95 2.64 2.43 1.99 1.99 2.07 1.81 1.54 1.32
0.52 0.62 0.75 0.89 0.96 1.04 1.25 1.49 1.63 1.78 1.76 1.73 1.75 1.87 2.06 2.23 2.26 2.30 2.27 2.17 2.10 2.03 1.89 1.81 1.87 1.89 1.90 2.04 2.17 2.29 2.57 2.79 2.94 3.01 2.93 2.82 2.73 2.40 2.12 1.95 1.92 1.77 1.53
0.62 0.84 1.01 1.15 1.25 1.35 1.46 1.50 1.48 1.55 1.57 1.52 1.52 1.58 1.69 1.74 1.79 1.92 1.84 1.72 1.65 1.61 1.57 1.50 1.52 1.64 1.72 1.89 1.98 1.94 2.03 2.22 2.44 2.62 2.68 2.71 2.61 2.52 2.43 2.28 2.06 1.81 1.49
0.89 1.03 1.14 1.25 1.30 1.43 1.49 1.44 1.40 1.38 1.31 1.24 1.25 1.25 1.31 1.40 1.41 1.41 1.38 1.30 1.26 1.25 1.21 1.21 1.21 1.26 1.35 1.56 1.79 1.81 1.83 1.90 2.00 2.07 2.35 2.53 2.49 2.51 2.30 2.19 2.23 1.99 1.66
1.14 1.32 1.32 1.24 1.20 1.26 1.33 1.30 1.24 1.19 1.09 1.02 1.03 1.05 1.12 1.17 1.13 1.08 1.03 1.04 0.97 0.97 0.96 1.00 1.09 1.16 1.15 1.25 1.40 1.61 1.67 1.76 1.83 1.83 1.99 2.14 2.24 2.24 2.08 2.12 2.20 2.11 1.80
1.24 1.51 1.62 1.49 1.25 1.09 1.12 1.08 1.07 1.12 1.11 1.05 1.05 1.03 0.95 0.88 0.85 0.85 0.78 0.79 0.84 0.85 0.87 0.88 0.93 1.01 1.05 1.13 1.24 1.29 1.40 1.50 1.66 1.83 1.95 1.98 2.02 2.10 2.01 1.99 2.10 2.09 1.91
1.45 1.57 1.58 1.45 1.30 1.05 0.98 0.97 0.96 1.01 1.09 1.02 1.03 1.01 0.90 0.77 0.72 0.67 0.62 0.62 0.66 0.71 0.71 0.77 0.87 0.91 0.94 0.97 0.98 1.01 1.06 1.14 1.27 1.34 1.49 1.71 1.89 1.99 1.98 2.03 2.08 2.10 1.97
1.14 1.14 1.22 1.23 1.16 1.04 0.97 1.04 1.07 1.09 1.04 0.99 0.96 0.92 0.85 0.75 0.74 0.68 0.60 0.62 0.66 0.68 0.69 0.75 0.81 0.82 0.89 0.92 0.90 0.89 0.94 1.05 1.15 1.17 1.22 1.35 1.60 1.76 1.86 1.94 1.97 2.04 2.00
0.89 0.82 0.91 1.06 1.00 0.94 0.97 1.06 1.19 1.21 1.14 1.03 0.94 0.91 0.86 0.84 0.87 0.75 0.66 0.66 0.74 0.85 0.87 0.86 0.89 0.85 0.88 0.90 0.88 0.89 0.92 0.95 1.02 1.06 1.08 1.18 1.31 1.47 1.56 1.66 1.77 1.86 1.97
0.73 0.69 0.63 0.69 0.71 0.73 0.75 0.87 1.13 1.36 1.33 1.21 1.07 0.98 0.94 0.93 0.89 0.77 0.71 0.67 0.70 0.74 0.76 0.85 0.92 0.98 1.02 1.00 0.95 0.95 0.96 0.91 0.93 1.00 1.06 1.09 1.12 1.30 1.52 1.63 1.71 1.76 1.86
0.55 0.50 0.46 0.45 0.46 0.51 0.59 0.72 1.02 1.24 1.23 1.20 1.06 0.95 0.88 0.81 0.75 0.72 0.75 0.71 0.64 0.62 0.62 0.71 0.80 0.91 1.00 1.04 1.04 0.91 0.81 0.82 0.87 0.88 0.89 0.97 1.06 1.16 1.37 1.47 1.70 1.74 1.88
0.50 0.48 0.42 0.38 0.34 0.35 0.42 0.52 0.72 0.90 0.98 1.00 0.93 0.80 0.78 0.71 0.62 0.66 0.75 0.76 0.65 0.59 0.58 0.62 0.60 0.64 0.69 0.89 0.89 0.78 0.66 0.69 0.79 0.86 0.87 0.87 0.92 0.99 1.05 1.10 1.33 1.53 1.68
0.49 0.49 0.46 0.42 0.40 0.38 0.39 0.42 0.49 0.61 0.68 0.72 0.70 0.59 0.59 0.68 0.70 0.72 0.72 0.65 0.57 0.59 0.58 0.52 0.48 0.50 0.57 0.63 0.61 0.67 0.66 0.67 0.72 0.80 0.89 0.93 0.91 0.98 1.06 1.08 1.16 1.25 1.30
0.48 0.47 0.45 0.39 0.37 0.36 0.37 0.41 0.43 0.45 0.48 0.46 0.42 0.37 0.46 0.59 0.62 0.58 0.55 0.50 0.50 0.55 0.60 0.53 0.48 0.53 0.54 0.58 0.62 0.65 0.63 0.75 0.82 0.83 0.82 0.94 0.99 1.04 1.19 1.19 1.27 1.21 1.12
0.27 0.29 0.32 0.28 0.25 0.26 0.28 0.29 0.27 0.29 0.30 0.28 0.27 0.30 0.32 0.36 0.35 0.32 0.34 0.40 0.46 0.51 0.46 0.50 0.64 0.62 0.64 0.73 0.67 0.58 0.64 0.77 0.85 0.80 0.82 0.93 1.01 1.19 1.30 1.33 1.33 1.23 1.16
0.14 0.18 0.24 0.27 0.23 0.23 0.27 0.26 0.26 0.27 0.27 0.27 0.27 0.29 0.30 0.33 0.32 0.31 0.32 0.35 0.39 0.43 0.45 0.49 0.63 0.68 0.72 0.74 0.61 0.57 0.66 0.77 0.86 0.85 0.84 1.05 1.05 1.15 1.20 1.25 1.37 1.37 1.26
0.13 0.15 0.19 0.24 0.25 0.23 0.24 0.24 0.24 0.27 0.32 0.33 0.30 0.29 0.29 0.31 0.35 0.38 0.37 0.35 0.35 0.38 0.42 0.46 0.50 0.51 0.50 0.51 0.52 0.54 0.58 0.67 0.79 0.81 0.82 0.79 0.94 0.98 1.08 1.18 1.23 1.47 1.39
0.12 0.14 0.16 0.21 0.26 0.26 0.25 0.28 0.27 0.27 0.33 0.33 0.31 0.30 0.32 0.33 0.36 0.43 0.42 0.40 0.39 0.36 0.36 0.41 0.49 0.50 0.44 0.42 0.42 0.46 0.53 0.64 0.66 0.66 0.74 0.74 0.84 0.88 0.95 0.95 1.13 1.34 1.32
0.12 0.15 0.16 0.20 0.25 0.26 0.30 0.32 0.31 0.31 0.32 0.32 0.32 0.33 0.34 0.35 0.36 0.39 0.40 0.42 0.41 0.41 0.40 0.41 0.46 0.48 0.47 0.48 0.51 0.51 0.55 0.58 0.52 0.49 0.66 0.75 0.82 0.79 0.77 0.91 1.11 1.16 1.18
0.09 0.12 0.14 0.18 0.25 0.29 0.31 0.36 0.37 0.37 0.37 0.38 0.38 0.37 0.38 0.40 0.40 0.42 0.45 0.48 0.49 0.49 0.47 0.46 0.50 0.53 0.52 0.50 0.48 0.48 0.50 0.50 0.48 0.50 0.67 0.81 0.86 0.81 0.77 0.86 1.00 1.04 1.16
0.13 0.12 0.13 0.16 0.22 0.28 0.30 0.35 0.38 0.41 0.40 0.39 0.42 0.44 0.44 0.44 0.46 0.47 0.49 0.50 0.48 0.50 0.48 0.49 0.51 0.50 0.47 0.49 0.52 0.50 0.49 0.50 0.52 0.63 0.78 0.91 0.92 0.93 0.88 0.91 1.01 1.00 0.99
0.14 0.14 0.15 0.15 0.17 0.20 0.23 0.27 0.30 0.36 0.40 0.42 0.40 0.40 0.43 0.46 0.45 0.45 0.45 0.48 0.49 0.50 0.47 0.44 0.47 0.47 0.47 0.50 0.52 0.54 0.56 0.55 0.65 0.81 0.96 1.08 1.15 1.15 1.11 1.07 1.04 0.97 0.95

GEFSMW_prec_meanprecacc_306.txt.gz
Total_Precipitation_Accumulation
0.49 0.43 0.40 0.46 0.47 0.41 0.38 0.45 0.52 0.55 0.55 0.67 0.81 0.92 1.03 1.16 1.35 1.41 1.48 1.63 1.68 1.69 1.81 1.90 1.96 1.91 1.86 1.94 2.14 2.58 2.53 2.19 1.95 1.92 1.78 1.63 1.58 1.63 1.60 1.73 1.80 1.70 1.65
0.40 0.36 0.34 0.36 0.38 0.38 0.37 0.40 0.51 0.60 0.64 0.70 0.84 1.03 1.27 1.35 1.49 1.68 1.69 1.70 1.76 1.81 1.88 2.07 2.18 2.14 2.13 2.21 2.28 2.59 2.79 2.55 2.33 2.33 2.49 2.24 2.02 1.67 1.42 1.47 1.57 1.62 1.66
0.34 0.28 0.30 0.32 0.34 0.36 0.43 0.46 0.58 0.78 0.94 1.02 1.24 1.56 1.83 1.88 1.82 1.85 1.91 1.90 1.93 2.01 1.97 2.03 2.22 2.24 2.23 2.30 2.50 2.82 3.18 3.15 2.84 2.59 2.79 2.55 2.25 2.14 1.63 1.32 1.37 1.51 1.62
0.42 0.33 0.31 0.34 0.32 0.37 0.51 0.69 0.90 1.20 1.41 1.51 1.68 1.94 2.06 2.10 2.02 2.02 2.03 2.06 1.99 1.92 1.93 2.00 2.16 2.34 2.48 2.61 2.66 2.64 3.07 3.42 3.23 3.00 2.61 2.30 2.16 2.32 2.17 1.68 1.37 1.41 1.46
0.46 0.47 0.46 0.51 0.52 0.62 0.83 1.18 1.45 1.65 1.78 1.81 1.88 2.09 2.23 2.39 2.42 2.30 2.15 2.10 2.10 2.04 1.95 1.96 1.99 2.04 2.16 2.33 2.47 2.53 2.78 3.03 3.23 3.21 2.97 2.65 2.44 2.01 2.02 2.09 1.83 1.55 1.33
0.53 0.63 0.76 0.89 0.96 1.05 1.26 1.50 1.64 1.79 1.77 1.74 1.76 1.89 2.08 2.25 2.28 2.32 2.29 2.18 2.12 2.05 1.92 1.84 1.89 1.91 1.92 2.07 2.19 2.31 2.59 2.81 2.96 3.03 2.95 2.84 2.76 2.42 2.14 1.96 1.93 1.78 1.54
0.62 0.84 1.02 1.16 1.25 1.35 1.46 1.51 1.49 1.56 1.58 1.53 1.53 1.60 1.70 1.75 1.81 1.95 1.87 1.75 1.66 1.62 1.59 1.51 1.53 1.66 1.74 1.91 1.99 1.95 2.03 2.24 2.46 2.64 2.69 2.73 2.62 2.53 2.44 2.29 2.07 1.81 1.49
0.90 1.03 1.15 1.26 1.31 1.44 1.50 1.45 1.41 1.39 1.31 1.24 1.26 1.26 1.33 1.42 1.43 1.43 1.40 1.33 1.29 1.27 1.23 1.23 1.23 1.28 1.36 1.57 1.79 1.81 1.83 1.92 2.02 2.09 2.37 2.54 2.50 2.52 2.31 2.20 2.24 2.00 1.67
1.14 1.32 1.33 1.25 1.21 1.26 1.34 1.31 1.26 1.20 1.10 1.02 1.04 1.06 1.13 1.18 1.15 1.09 1.05 1.07 1.00 0.99 0.98 1.03 1.11 1.18 1.17 1.25 1.41 1.61 1.68 1.77 1.85 1.85 2.01 2.16 2.25 2.25 2.09 2.12 2.22 2.12 1.82
1.24 1.52 1.63 1.50 1.27 1.10 1.13 1.09 1.08 1.13 1.12 1.07 1.07 1.04 0.97 0.89 0.86 0.86 0.80 0.81 0.87 0.87 0.89 0.89 0.94 1.02 1.06 1.13 1.24 1.30 1.40 1.51 1.68 1.84 1.97 1.99 2.03 2.10 2.01 2.00 2.11 2.10 1.92
1.45 1.57 1.59 1.46 1.32 1.06 0.99 0.98 0.97 1.03 1.10 1.04 1.06 1.04 0.91 0.78 0.73 0.68 0.63 0.64 0.69 0.73 0.72 0.78 0.88 0.92 0.95 0.98 0.99 1.02 1.08 1.16 1.28 1.35 1.50 1.72 1.90 1.99 1.99 2.04 2.09 2.12 1.99
1.15 1.15 1.23 1.24 1.17 1.05 0.97 1.04 1.09 1.10 1.07 1.02 0.99 0.94 0.87 0.76 0.75 0.69 0.61 0.63 0.67 0.70 0.70 0.76 0.82 0.84 0.90 0.93 0.90 0.90 0.96 1.07 1.16 1.18 1.23 1.35 1.61 1.77 1.87 1.95 1.98 2.05 2.01
0.89 0.83 0.92 1.06 1.00 0.94 0.98 1.08 1.22 1.24 1.17 1.05 0.96 0.93 0.88 0.85 0.88 0.75 0.67 0.66 0.74 0.86 0.88 0.87 0.90 0.86 0.89 0.91 0.88 0.90 0.94 0.97 1.04 1.08 1.10 1.19 1.32 1.48 1.57 1.67 1.78 1.86 1.98
0.74 0.70 0.64 0.70 0.72 0.74 0.76 0.89 1.15 1.38 1.35 1.23 1.09 1.01 0.96 0.95 0.91 0.78 0.71 0.67 0.71 0.75 0.78 0.86 0.93 0.99 1.03 1.02 0.96 0.96 0.97 0.92 0.94 1.01 1.08 1.11 1.13 1.31 1.53 1.64 1.73 1.77 1.88
0.56 0.51 0.46 0.46 0.46 0.52 0.60 0.73 1.03 1.26 1.26 1.23 1.08 0.97 0.91 0.85 0.77 0.74 0.77 0.71 0.64 0.63 0.64 0.74 0.82 0.92 1.01 1.05 1.05 0.92 0.82 0.83 0.88 0.88 0.89 0.98 1.08 1.18 1.38 1.49 1.71 1.76 1.89
0.50 0.48 0.42 0.38 0.35 0.35 0.43 0.54 0.73 0.93 1.01 1.03 0.96 0.83 0.81 0.75 0.66 0.69 0.78 0.78 0.65 0.60 0.60 0.64 0.63 0.66 0.71 0.90 0.90 0.79 0.67 0.70 0.80 0.87 0.88 0.88 0.93 1.00 1.06 1.11 1.34 1.54 1.69
0.50 0.50 0.47 0.43 0.41 0.39 0.40 0.43 0.50 0.63 0.73 0.76 0.73 0.62 0.62 0.72 0.73 0.75 0.75 0.67 0.58 0.60 0.59 0.54 0.50 0.52 0.59 0.66 0.62 0.68 0.67 0.68 0.73 0.81 0.89 0.94 0.92 0.98 1.07 1.08 1.16 1.25 1.31
0.49 0.47 0.45 0.40 0.38 0.37 0.38 0.43 0.45 0.48 0.50 0.50 0.48 0.42 0.49 0.63 0.65 0.61 0.58 0.52 0.51 0.55 0.60 0.53 0.49 0.55 0.57 0.61 0.64 0.66 0.65 0.75 0.83 0.84 0.83 0.94 1.00 1.04 1.20 1.21 1.29 1.23 1.13
0.28 0.29 0.32 0.29 0.26 0.27 0.29 0.31 0.30 0.33 0.32 0.31 0.32 0.36 0.38 0.41 0.40 0.36 0.37 0.43 0.48 0.51 0.47 0.51 0.64 0.64 0.66 0.76 0.70 0.61 0.66 0.78 0.85 0.81 0.83 0.94 1.02 1.20 1.31 1.34 1.35 1.24 1.16
0.14 0.20 0.28 0.30 0.25 0.25 0.28 0.28 0.28 0.30 0.30 0.30 0.31 0.33 0.35 0.39 0.37 0.35 0.35 0.38 0.41 0.46 0.47 0.51 0.64 0.69 0.73 0.75 0.63 0.61 0.70 0.80 0.87 0.86 0.85 1.06 1.05 1.16 1.21 1.27 1.38 1.38 1.27
0.14 0.17 0.22 0.28 0.27 0.26 0.27 0.27 0.27 0.30 0.36 0.37 0.34 0.32 0.32 0.34 0.39 0.41 0.40 0.38 0.38 0.41 0.45 0.49 0.52 0.53 0.52 0.52 0.52 0.55 0.60 0.71 0.82 0.82 0.83 0.79 0.95 0.99 1.09 1.20 1.25 1.48 1.40
0.13 0.15 0.17 0.25 0.28 0.28 0.29 0.31 0.30 0.30 0.36 0.37 0.35 0.34 0.35 0.35 0.38 0.45 0.45 0.42 0.41 0.38 0.39 0.43 0.50 0.51 0.46 0.43 0.43 0.47 0.54 0.67 0.69 0.68 0.75 0.75 0.85 0.89 0.96 0.97 1.15 1.36 1.34
0.14 0.17 0.18 0.22 0.27 0.29 0.32 0.35 0.34 0.34 0.35 0.36 0.38 0.39 0.38 0.38 0.38 0.40 0.42 0.44 0.43 0.43 0.42 0.42 0.47 0.49 0.49 0.50 0.52 0.52 0.56 0.59 0.53 0.50 0.68 0.76 0.84 0.80 0.77 0.92 1.12 1.17 1.20
0.10 0.13 0.15 0.19 0.28 0.32 0.33 0.38 0.39 0.40 0.40 0.42 0.44 0.44 0.45 0.44 0.43 0.44 0.46 0.49 0.51 0.50 0.48 0.47 0.51 0.54 0.54 0.53 0.50 0.50 0.51 0.50 0.49 0.50 0.68 0.83 0.88 0.83 0.79 0.87 1.01 1.05 1.17
0.13 0.13 0.14 0.17 0.22 0.29 0.32 0.37 0.40 0.44 0.44 0.43 0.46 0.49 0.49 0.49 0.50 0.51 0.52 0.52 0.50 0.52 0.50 0.51 0.54 0.53 0.50 0.53 0.57 0.54 0.52 0.52 0.54 0.64 0.79 0.93 0.94 0.96 0.91 0.93 1.02 1.01 1.00
0.14 0.14 0.15 0.16 0.17 0.21 0.24 0.29 0.32 0.39 0.43 0.45 0.44 0.44 0.48 0.50 0.49 0.49 0.50 0.52 0.53 0.55 0.52 0.49 0.51 0.51 0.50 0.53 0.56 0.57 0.59 0.57 0.66 0.83 0.98 1.09 1.17 1.18 1.14 1.10 1.06 0.99 0.96

GEFSMW_prec_meanprecacc_312.txt.gz
Total_Precipitation_Accumulation
0.50 0.44 0.40 0.47 0.47 0.41 0.38 0.45 0.52 0.55 0.55 0.67 0.81 0.93 1.04 1.19 1.37 1.43 1.48 1.63 1.69 1.69 1.82 1.91 1.97 1.93 1.87 1.96 2.16 2.60 2.56 2.23 1.98 1.95 1.82 1.66 1.60 1.65 1.61 1.75 1.83 1.73 1.67
0.40 0.36 0.35 0.36 0.38 0.39 0.37 0.40 0.52 0.60 0.64 0.70 0.84 1.03 1.28 1.36 1.51 1.71 1.69 1.70 1.76 1.82 1.89 2.08 2.19 2.15 2.15 2.23 2.31 2.62 2.82 2.57 2.36 2.37 2.55 2.28 2.05 1.69 1.43 1.48 1.58 1.63 1.68
0.35 0.28 0.31 0.33 0.34 0.36 0.43 0.47 0.59 0.78 0.95 1.02 1.24 1.56 1.83 1.89 1.84 1.87 1.93 1.92 1.93 2.01 1.98 2.04 2.23 2.25 2.24 2.32 2.54 2.86 3.21 3.18 2.86 2.62 2.84 2.62 2.31 2.18 1.65 1.34 1.39 1.52 1.64
0.43 0.34 0.32 0.35 0.33 0.38 0.51 0.69 0.91 1.20 1.42 1.51 1.68 1.95 2.07 2.11 2.04 2.04 2.05 2.08 2.00 1.92 1.93 2.01 2.18 2.35 2.48 2.62 2.69 2.67 3.11 3.45 3.26 3.02 2.64 2.34 2.21 2.36 2.21 1.71 1.40 1.44 1.49
0.47 0.48 0.47 0.52 0.53 0.63 0.84 1.18 1.46 1.66 1.78 1.81 1.88 2.10 2.25 2.40 2.43 2.31 2.17 2.12 2.12 2.05 1.96 1.97 2.00 2.05 2.17 2.33 2.48 2.55 2.82 3.08 3.27 3.23 3.00 2.68 2.48 2.05 2.06 2.12 1.86 1.58 1.35
0.53 0.63 0.76 0.90 0.97 1.06 1.27 1.50 1.65 1.79 1.78 1.75 1.77 1.90 2.11 2.27 2.29 2.33 2.31 2.21 2.14 2.06 1.92 1.85 1.90 1.92 1.93 2.08 2.20 2.33 2.62 2.85 3.00 3.08 2.98 2.87 2.79 2.46 2.17 1.99 1.95 1.81 1.56
0.62 0.85 1.02 1.17 1.26 1.37 1.48 1.52 1.49 1.56 1.59 1.55 1.54 1.61 1.71 1.76 1.82 1.96 1.89 1.78 1.69 1.64 1.60 1.52 1.55 1.67 1.74 1.91 1.99 1.96 2.05 2.26 2.49 2.68 2.74 2.77 2.66 2.56 2.47 2.32 2.09 1.83 1.50
0.90 1.03 1.15 1.26 1.31 1.45 1.51 1.46 1.42 1.40 1.33 1.28 1.29 1.28 1.34 1.42 1.44 1.45 1.43 1.36 1.32 1.29 1.25 1.24 1.24 1.30 1.37 1.58 1.80 1.82 1.84 1.93 2.03 2.11 2.40 2.58 2.54 2.55 2.33 2.23 2.27 2.02 1.68
1.14 1.32 1.33 1.25 1.21 1.26 1.34 1.31 1.26 1.20 1.11 1.04 1.07 1.09 1.15 1.19 1.15 1.11 1.07 1.09 1.02 1.02 1.00 1.05 1.14 1.20 1.18 1.27 1.42 1.62 1.69 1.77 1.86 1.86 2.03 2.19 2.28 2.27 2.10 2.14 2.24 2.15 1.85
1.24 1.52 1.63 1.50 1.27 1.10 1.13 1.10 1.09 1.14 1.13 1.08 1.08 1.06 0.98 0.90 0.87 0.87 0.81 0.82 0.88 0.89 0.91 0.91 0.97 1.04 1.07 1.15 1.26 1.30 1.41 1.52 1.70 1.86 1.98 2.01 2.05 2.12 2.02 2.02 2.13 2.13 1.95
1.45 1.57 1.59 1.47 1.32 1.06 0.99 0.98 0.98 1.04 1.12 1.06 1.07 1.05 0.93 0.79 0.74 0.69 0.63 0.65 0.69 0.74 0.74 0.80 0.90 0.94 0.97 1.00 1.00 1.04 1.09 1.17 1.30 1.37 1.52 1.74 1.93 2.01 2.00 2.06 2.11 2.13 2.00
1.15 1.15 1.23 1.24 1.17 1.05 0.98 1.05 1.10 1.12 1.09 1.05 1.02 0.97 0.89 0.78 0.76 0.69 0.61 0.63 0.68 0.71 0.71 0.78 0.84 0.86 0.92 0.95 0.92 0.93 0.98 1.09 1.18 1.20 1.25 1.37 1.63 1.79 1.88 1.97 2.00 2.07 2.03
0.89 0.83 0.92 1.07 1.00 0.94 0.98 1.08 1.23 1.25 1.19 1.08 1.00 0.97 0.91 0.88 0.90 0.77 0.68 0.67 0.75 0.87 0.89 0.87 0.91 0.88 0.91 0.93 0.90 0.92 0.96 0.99 1.05 1.10 1.12 1.22 1.35 1.50 1.58 1.68 1.80 1.88 1.99
0.74 0.70 0.64 0.70 0.72 0.74 0.76 0.89 1.16 1.39 1.36 1.24 1.12 1.05 1.03 1.02 0.97 0.81 0.73 0.69 0.71 0.76 0.79 0.87 0.93 1.00 1.05 1.03 0.98 0.98 0.99 0.95 0.97 1.03 1.10 1.14 1.17 1.34 1.56 1.66 1.74 1.79 1.89
0.56 0.51 0.47 0.46 0.47 0.52 0.60 0.74 1.05 1.28 1.28 1.24 1.10 1.00 0.95 0.91 0.85 0.80 0.81 0.73 0.65 0.64 0.65 0.75 0.83 0.93 1.02 1.07 1.07 0.94 0.85 0.86 0.92 0.92 0.91 1.00 1.10 1.20 1.41 1.51 1.74 1.79 1.92
0.50 0.48 0.43 0.38 0.35 0.35 0.43 0.54 0.74 0.94 1.03 1.05 0.98 0.86 0.85 0.81 0.72 0.75 0.83 0.81 0.68 0.62 0.61 0.65 0.64 0.67 0.72 0.93 0.93 0.81 0.70 0.73 0.84 0.92 0.90 0.90 0.96 1.03 1.10 1.15 1.38 1.58 1.73
0.50 0.50 0.48 0.44 0.41 0.39 0.41 0.44 0.51 0.65 0.74 0.78 0.75 0.64 0.65 0.78 0.81 0.83 0.81 0.71 0.61 0.62 0.60 0.55 0.52 0.54 0.60 0.67 0.64 0.70 0.69 0.70 0.76 0.85 0.93 0.97 0.94 1.00 1.09 1.11 1.18 1.27 1.33
0.49 0.48 0.46 0.41 0.39 0.39 0.39 0.44 0.46 0.50 0.53 0.52 0.50 0.45 0.52 0.68 0.72 0.68 0.64 0.58 0.56 0.58 0.62 0.54 0.51 0.57 0.59 0.63 0.66 0.68 0.66 0.77 0.85 0.86 0.86 0.97 1.02 1.06 1.22 1.23 1.31 1.24 1.14
0.28 0.29 0.33 0.30 0.27 0.27 0.30 0.32 0.31 0.34 0.35 0.34 0.35 0.40 0.43 0.46 0.47 0.44 0.44 0.49 0.53 0.56 0.50 0.53 0.66 0.66 0.67 0.78 0.72 0.63 0.67 0.80 0.88 0.83 0.84 0.96 1.04 1.21 1.33 1.36 1.37 1.26 1.18
0.14 0.20 0.29 0.31 0.26 0.26 0.29 0.29 0.29 0.31 0.32 0.33 0.35 0.38 0.41 0.44 0.44 0.43 0.43 0.45 0.48 0.51 0.53 0.56 0.68 0.72 0.75 0.78 0.65 0.62 0.71 0.83 0.90 0.89 0.87 1.07 1.06 1.18 1.23 1.28 1.40 1.41 1.29
0.14 0.18 0.22 0.30 0.29 0.27 0.28 0.29 0.30 0.32 0.39 0.40 0.38 0.37 0.37 0.40 0.45 0.48 0.46 0.45 0.45 0.47 0.51 0.54 0.58 0.57 0.54 0.55 0.54 0.57 0.62 0.73 0.84 0.84 0.85 0.81 0.96 1.00 1.10 1.21 1.26 1.50 1.42
0.13 0.15 0.18 0.26 0.29 0.29 0.31 0.34 0.34 0.35 0.40 0.42 0.40 0.39 0.41 0.41 0.43 0.50 0.50 0.49 0.48 0.45 0.45 0.48 0.55 0.56 0.50 0.47 0.46 0.49 0.56 0.68 0.71 0.70 0.77 0.76 0.87 0.90 0.97 0.98 1.16 1.37 1.36
0.14 0.17 0.18 0.24 0.29 0.31 0.35 0.37 0.37 0.37 0.39 0.40 0.43 0.44 0.44 0.44 0.43 0.45 0.46 0.49 0.49 0.49 0.48 0.48 0.52 0.53 0.53 0.54 0.56 0.55 0.59 0.61 0.55 0.52 0.70 0.78 0.86 0.82 0.79 0.92 1.13 1.19 1.22
0.10 0.13 0.15 0.20 0.29 0.33 0.34 0.39 0.41 0.42 0.43 0.44 0.47 0.49 0.50 0.50 0.48 0.49 0.52 0.54 0.55 0.54 0.52 0.51 0.55 0.58 0.57 0.56 0.53 0.52 0.53 0.53 0.51 0.52 0.69 0.85 0.89 0.84 0.80 0.88 1.02 1.06 1.19
0.13 0.13 0.14 0.17 0.23 0.30 0.33 0.38 0.42 0.46 0.46 0.46 0.50 0.54 0.55 0.54 0.55 0.56 0.57 0.56 0.54 0.55 0.53 0.54 0.57 0.56 0.53 0.56 0.60 0.56 0.54 0.54 0.56 0.66 0.82 0.95 0.97 0.98 0.92 0.94 1.04 1.03 1.02
0.14 0.15 0.15 0.16 0.18 0.22 0.26 0.31 0.34 0.42 0.47 0.48 0.48 0.48 0.53 0.56 0.54 0.55 0.54 0.56 0.57 0.59 0.55 0.51 0.53 0.54 0.53 0.57 0.59 0.60 0.61 0.59 0.69 0.85 1.00 1.12 1.19 1.20 1.16 1.12 1.08 1.01 0.98